[[{"header":{"parameterUnit":"m.s-1","parameterCategory":1,"la1":30.6,"la2":29.2853,"lo1":-89.7004,"lo2":-87.6739,"dy":0.0162,"dx":0.0183,"nx":112,"ny":82,"refTime":"2023-09-05T06:00:00:Z","depth":0,"parameterNumber":2,"parameterNumberName":"U-component_of_WINDS"},"data":[0.0,0.0,0.0,0.0,0.0,0.0,0.0,0.0,0.0,0.0,0.0,0.0,0.0,0.0,0.0,0.0,0.0,0.0,0.0,0.0,0.0,0.0,0.0,0.0,0.0,0.0,0.0,0.0,0.0,0.0,0.0,0.0,0.0,0.0,0.0,0.0,0.0,0.0,0.0,0.0,0.0,0.0,0.0,0.0,0.0,0.0,0.0,0.0,0.0,0.0,0.0,0.0,0.0,0.0,0.0,0.0,0.0,0.0,0.0,0.0,0.0,0.0,0.0,0.0,0.0,0.0,0.0,0.0,0.0,0.0,0.0,0.0,0.0,0.0,0.0,0.0,0.0,0.0,0.0,0.0,0.0,0.0,0.0,0.0,0.0,0.0,0.0,0.0,0.0,0.0,-2.7904,-2.8415,-2.91,-2.8958,-2.7534,-2.7417,-2.6208,-2.3385,0.0,0.0,0.0,0.0,0.0,0.0,0.0,0.0,0.0,0.0,0.0,0.0,0.0,0.0,0.0,0.0,0.0,0.0,0.0,0.0,0.0,0.0,0.0,0.0,0.0,0.0,0.0,0.0,0.0,0.0,0.0,0.0,0.0,0.0,0.0,0.0,0.0,0.0,0.0,0.0,0.0,0.0,0.0,0.0,0.0,0.0,0.0,0.0,0.0,0.0,0.0,0.0,0.0,0.0,0.0,0.0,0.0,0.0,0.0,0.0,0.0,0.0,0.0,0.0,0.0,0.0,0.0,0.0,0.0,0.0,0.0,0.0,0.0,0.0,0.0,0.0,0.0,0.0,0.0,0.0,0.0,0.0,0.0,0.0,0.0,0.0,0.0,0.0,0.0,0.0,0.0,0.0,0.0,0.0,0.0,0.0,0.0,0.0,0.0,0.0,0.0,0.0,0.0,0.0,-2.9135,-2.9231,-2.9782,-2.942,-2.7558,-2.7374,-2.6431,-2.4225,0.0,0.0,0.0,0.0,0.0,0.0,0.0,0.0,0.0,0.0,0.0,0.0,0.0,0.0,0.0,0.0,0.0,0.0,0.0,0.0,0.0,0.0,0.0,0.0,0.0,0.0,0.0,0.0,0.0,0.0,0.0,0.0,0.0,0.0,0.0,0.0,0.0,0.0,0.0,0.0,0.0,0.0,0.0,0.0,0.0,0.0,0.0,0.0,0.0,0.0,0.0,0.0,0.0,0.0,0.0,0.0,0.0,0.0,0.0,0.0,0.0,0.0,0.0,0.0,0.0,0.0,0.0,0.0,0.0,0.0,0.0,0.0,0.0,0.0,0.0,0.0,0.0,0.0,0.0,0.0,0.0,0.0,0.0,0.0,0.0,0.0,0.0,0.0,0.0,0.0,0.0,0.0,0.0,0.0,0.0,0.0,0.0,0.0,0.0,0.0,0.0,0.0,0.0,-3.0344,-3.0387,-3.0387,-3.0611,-3.0281,-2.9081,-2.8683,-2.7765,-2.6096,-2.4921,0.0,0.0,0.0,0.0,0.0,0.0,0.0,0.0,0.0,0.0,0.0,0.0,0.0,0.0,0.0,0.0,0.0,0.0,0.0,0.0,0.0,0.0,0.0,0.0,0.0,0.0,0.0,0.0,0.0,0.0,0.0,0.0,0.0,0.0,0.0,0.0,0.0,0.0,0.0,0.0,0.0,0.0,0.0,0.0,0.0,0.0,0.0,0.0,0.0,0.0,0.0,0.0,0.0,0.0,0.0,0.0,0.0,0.0,0.0,0.0,0.0,0.0,0.0,0.0,0.0,0.0,0.0,0.0,0.0,0.0,0.0,0.0,0.0,0.0,0.0,0.0,0.0,0.0,0.0,0.0,0.0,0.0,0.0,0.0,0.0,0.0,0.0,0.0,0.0,0.0,0.0,0.0,0.0,0.0,0.0,0.0,0.0,0.0,0.0,0.0,0.0,0.0,-3.0892,-3.119,-3.119,-3.119,-3.0881,-3.0152,-2.9688,-2.8755,-2.7265,-2.6049,0.0,0.0,0.0,0.0,0.0,0.0,0.0,0.0,0.0,0.0,0.0,0.0,0.0,0.0,0.0,0.0,0.0,0.0,0.0,0.0,0.0,0.0,0.0,0.0,0.0,0.0,0.0,0.0,0.0,0.0,0.0,0.0,0.0,0.0,0.0,0.0,0.0,0.0,0.0,0.0,0.0,0.0,0.0,0.0,0.0,0.0,0.0,0.0,0.0,0.0,0.0,0.0,0.0,0.0,0.0,0.0,0.0,0.0,0.0,0.0,0.0,0.0,0.0,0.0,0.0,0.0,0.0,0.0,0.0,0.0,0.0,0.0,0.0,0.0,0.0,0.0,0.0,0.0,0.0,0.0,0.0,0.0,0.0,0.0,0.0,0.0,0.0,0.0,0.0,0.0,0.0,0.0,0.0,0.0,0.0,0.0,0.0,0.0,0.0,0.0,0.0,0.0,-3.1173,-3.119,-3.119,-3.119,-3.074,-2.9536,-2.9435,-2.8576,-2.6683,-2.585,0.0,0.0,0.0,0.0,0.0,0.0,0.0,0.0,0.0,0.0,0.0,0.0,0.0,0.0,0.0,0.0,0.0,0.0,0.0,0.0,0.0,0.0,0.0,0.0,0.0,0.0,0.0,0.0,0.0,0.0,0.0,0.0,0.0,0.0,0.0,0.0,0.0,0.0,0.0,0.0,0.0,0.0,0.0,0.0,0.0,0.0,0.0,0.0,0.0,0.0,0.0,0.0,0.0,0.0,0.0,0.0,0.0,0.0,0.0,0.0,0.0,0.0,0.0,0.0,0.0,0.0,0.0,0.0,0.0,0.0,0.0,0.0,0.0,0.0,0.0,0.0,0.0,0.0,0.0,0.0,0.0,0.0,0.0,0.0,0.0,0.0,0.0,0.0,0.0,0.0,0.0,0.0,0.0,0.0,0.0,0.0,0.0,0.0,0.0,0.0,0.0,0.0,-3.119,-3.119,0.0,-3.119,-3.0857,-3.0028,-2.9635,-2.8951,-2.7816,0.0,0.0,0.0,0.0,0.0,0.0,0.0,0.0,0.0,0.0,0.0,0.0,0.0,0.0,0.0,0.0,0.0,0.0,0.0,0.0,0.0,0.0,0.0,0.0,0.0,0.0,0.0,0.0,0.0,0.0,0.0,0.0,0.0,0.0,0.0,0.0,0.0,0.0,0.0,0.0,0.0,0.0,0.0,0.0,0.0,0.0,0.0,0.0,0.0,0.0,0.0,0.0,0.0,0.0,0.0,0.0,0.0,0.0,0.0,0.0,0.0,0.0,0.0,0.0,0.0,0.0,0.0,0.0,0.0,0.0,0.0,0.0,0.0,0.0,0.0,0.0,0.0,0.0,0.0,0.0,0.0,0.0,0.0,0.0,0.0,0.0,0.0,0.0,0.0,0.0,0.0,0.0,0.0,0.0,0.0,0.0,0.0,0.0,0.0,0.0,0.0,0.0,-3.119,-3.119,-3.119,0.0,-3.119,-3.0874,-3.0061,-2.9627,-2.9058,-2.8253,0.0,0.0,0.0,0.0,0.0,0.0,0.0,0.0,0.0,0.0,0.0,0.0,0.0,0.0,0.0,0.0,0.0,0.0,0.0,0.0,0.0,0.0,0.0,0.0,0.0,0.0,0.0,0.0,0.0,0.0,0.0,0.0,0.0,0.0,0.0,0.0,0.0,0.0,0.0,0.0,0.0,0.0,0.0,0.0,0.0,0.0,0.0,0.0,0.0,0.0,0.0,0.0,0.0,0.0,0.0,0.0,0.0,0.0,0.0,0.0,0.0,0.0,0.0,0.0,0.0,0.0,0.0,0.0,0.0,0.0,0.0,0.0,0.0,0.0,0.0,0.0,0.0,0.0,0.0,0.0,0.0,0.0,0.0,0.0,0.0,0.0,0.0,0.0,0.0,0.0,0.0,0.0,0.0,0.0,0.0,0.0,0.0,0.0,0.0,0.0,0.0,0.0,-3.119,-3.119,-3.119,-3.119,-3.119,-3.0699,-2.9496,-2.9402,-2.8887,0.0,0.0,0.0,0.0,0.0,0.0,0.0,0.0,0.0,0.0,0.0,0.0,0.0,0.0,0.0,0.0,0.0,0.0,0.0,0.0,0.0,0.0,0.0,0.0,0.0,0.0,0.0,0.0,0.0,0.0,0.0,0.0,0.0,0.0,0.0,0.0,0.0,0.0,0.0,0.0,0.0,0.0,0.0,0.0,0.0,0.0,0.0,0.0,0.0,0.0,0.0,0.0,0.0,0.0,0.0,0.0,0.0,0.0,0.0,0.0,0.0,0.0,0.0,0.0,0.0,0.0,0.0,0.0,0.0,0.0,0.0,0.0,0.0,0.0,0.0,0.0,0.0,0.0,0.0,0.0,0.0,0.0,0.0,0.0,0.0,0.0,0.0,0.0,0.0,0.0,0.0,0.0,0.0,0.0,0.0,0.0,0.0,0.0,0.0,0.0,0.0,0.0,0.0,-3.119,-3.119,-3.1015,-3.0617,-3.0576,-3.0081,-2.8873,-2.8763,-2.8444,-2.7675,0.0,0.0,0.0,0.0,0.0,0.0,0.0,0.0,0.0,0.0,0.0,0.0,0.0,0.0,0.0,0.0,0.0,0.0,0.0,0.0,0.0,0.0,0.0,0.0,0.0,0.0,0.0,0.0,0.0,0.0,0.0,0.0,0.0,0.0,0.0,0.0,0.0,0.0,0.0,0.0,0.0,0.0,0.0,0.0,0.0,0.0,0.0,0.0,0.0,0.0,0.0,0.0,0.0,0.0,0.0,0.0,0.0,0.0,0.0,0.0,0.0,0.0,0.0,0.0,0.0,0.0,0.0,0.0,0.0,0.0,0.0,0.0,0.0,0.0,0.0,0.0,0.0,0.0,0.0,0.0,0.0,0.0,0.0,0.0,0.0,0.0,0.0,0.0,0.0,0.0,0.0,0.0,0.0,0.0,0.0,0.0,0.0,0.0,0.0,0.0,0.0,0.0,-3.119,-3.119,-3.0975,-3.0335,-3.0293,-2.9805,-2.8606,-2.8511,-2.8222,-2.7625,0.0,0.0,0.0,0.0,0.0,0.0,0.0,0.0,0.0,0.0,0.0,0.0,0.0,0.0,0.0,0.0,0.0,0.0,0.0,0.0,0.0,0.0,0.0,0.0,0.0,0.0,0.0,0.0,0.0,0.0,0.0,0.0,0.0,0.0,0.0,0.0,0.0,0.0,0.0,0.0,0.0,0.0,0.0,0.0,0.0,0.0,0.0,0.0,0.0,0.0,0.0,0.0,0.0,0.0,0.0,0.0,0.0,0.0,0.0,0.0,0.0,0.0,0.0,0.0,0.0,0.0,0.0,0.0,0.0,0.0,0.0,0.0,0.0,0.0,0.0,0.0,0.0,0.0,0.0,0.0,0.0,0.0,0.0,0.0,0.0,0.0,0.0,0.0,0.0,0.0,0.0,0.0,0.0,0.0,0.0,0.0,0.0,0.0,0.0,0.0,0.0,0.0,-3.1015,-3.1015,-3.0797,-3.0208,-3.0123,-2.9673,-2.8511,-2.8415,-2.8189,-2.761,0.0,0.0,0.0,0.0,0.0,0.0,0.0,0.0,0.0,0.0,0.0,0.0,0.0,0.0,0.0,0.0,0.0,0.0,0.0,0.0,0.0,0.0,0.0,0.0,0.0,0.0,0.0,0.0,0.0,0.0,0.0,0.0,0.0,0.0,0.0,0.0,0.0,0.0,0.0,0.0,0.0,0.0,0.0,0.0,0.0,0.0,0.0,0.0,0.0,0.0,0.0,0.0,0.0,0.0,0.0,0.0,0.0,0.0,0.0,0.0,-3.5183,0.0,0.0,0.0,0.0,0.0,0.0,0.0,0.0,0.0,0.0,0.0,0.0,0.0,0.0,0.0,0.0,0.0,0.0,0.0,0.0,0.0,0.0,0.0,0.0,0.0,0.0,0.0,0.0,0.0,0.0,0.0,0.0,0.0,0.0,0.0,0.0,0.0,0.0,0.0,0.0,0.0,-2.9761,-2.9761,-2.954,-2.8966,-2.8873,-2.8591,-2.786,-2.781,-2.771,-2.7625,-2.7625,0.0,0.0,0.0,0.0,0.0,0.0,0.0,0.0,0.0,0.0,0.0,0.0,0.0,0.0,0.0,0.0,0.0,0.0,0.0,0.0,0.0,0.0,0.0,0.0,0.0,0.0,0.0,0.0,0.0,0.0,0.0,0.0,0.0,0.0,0.0,0.0,0.0,0.0,0.0,0.0,0.0,0.0,0.0,0.0,0.0,0.0,0.0,0.0,0.0,0.0,0.0,0.0,0.0,0.0,0.0,0.0,0.0,0.0,0.0,0.0,-3.5896,0.0,0.0,0.0,0.0,0.0,0.0,0.0,0.0,0.0,0.0,0.0,0.0,0.0,0.0,0.0,0.0,0.0,0.0,0.0,0.0,0.0,0.0,0.0,0.0,0.0,0.0,0.0,0.0,0.0,0.0,0.0,0.0,0.0,0.0,0.0,0.0,0.0,0.0,0.0,0.0,-2.9406,-2.9406,-2.918,-2.8559,-2.8511,-2.8238,-2.766,-2.7625,-2.7625,-2.7625,-2.7625,0.0,0.0,0.0,0.0,0.0,0.0,0.0,0.0,0.0,0.0,0.0,0.0,0.0,0.0,0.0,0.0,0.0,0.0,0.0,0.0,0.0,0.0,0.0,0.0,0.0,0.0,0.0,0.0,0.0,0.0,0.0,0.0,0.0,0.0,0.0,0.0,0.0,0.0,0.0,0.0,0.0,0.0,0.0,0.0,0.0,0.0,0.0,0.0,0.0,0.0,0.0,0.0,0.0,-3.7863,-3.8028,-3.8028,-3.8028,-3.8224,-3.8511,-3.7613,-3.672,-3.5836,0.0,0.0,0.0,0.0,0.0,0.0,0.0,0.0,0.0,0.0,0.0,0.0,0.0,0.0,0.0,0.0,0.0,0.0,0.0,0.0,0.0,0.0,0.0,0.0,0.0,-3.2058,-3.1676,0.0,0.0,0.0,0.0,0.0,0.0,0.0,0.0,0.0,0.0,0.0,0.0,-2.9088,-2.9088,-2.8904,-2.8415,-2.8319,-2.814,-2.761,-2.7625,-2.7575,-2.7408,-2.7408,-2.7034,0.0,0.0,0.0,0.0,0.0,0.0,0.0,0.0,0.0,0.0,0.0,0.0,0.0,0.0,0.0,0.0,0.0,0.0,0.0,0.0,0.0,0.0,0.0,0.0,0.0,0.0,0.0,0.0,0.0,0.0,0.0,0.0,-3.7631,-3.7778,0.0,0.0,0.0,0.0,0.0,0.0,0.0,0.0,0.0,0.0,0.0,0.0,0.0,0.0,-3.8493,-3.8493,-3.8493,-3.8493,-3.8548,-3.8585,-3.8585,-3.8585,-3.8383,-3.7973,-3.7436,0.0,-3.6921,-3.5887,0.0,0.0,0.0,0.0,0.0,0.0,0.0,0.0,0.0,0.0,0.0,0.0,0.0,0.0,0.0,0.0,0.0,0.0,0.0,0.0,0.0,0.0,-3.2368,-3.0468,-3.0002,-2.9614,0.0,-2.9181,-3.0133,-2.9671,0.0,0.0,0.0,0.0,0.0,0.0,0.0,0.0,-2.7845,-2.7845,-2.781,-2.771,-2.771,-2.766,-2.7625,-2.7625,-2.7306,-2.6669,-2.6669,-2.6,-2.4624,-2.5119,0.0,0.0,0.0,0.0,0.0,0.0,0.0,0.0,0.0,0.0,0.0,0.0,0.0,0.0,0.0,0.0,0.0,0.0,0.0,0.0,0.0,0.0,0.0,0.0,0.0,0.0,0.0,0.0,0.0,-3.7088,-3.7705,-3.8279,-3.7955,-3.7863,0.0,0.0,0.0,0.0,0.0,0.0,0.0,0.0,0.0,-3.8365,-3.8365,-3.8456,-3.8707,-3.8707,-3.8707,-3.8707,-3.8707,-3.8707,-3.8707,-3.8707,-3.8566,-3.8315,-3.7796,-3.7596,-3.7501,-3.6163,-3.5622,-3.5622,0.0,0.0,0.0,0.0,0.0,-3.5622,-3.5622,0.0,0.0,0.0,0.0,0.0,0.0,0.0,0.0,0.0,0.0,0.0,0.0,0.0,0.0,-2.9852,-2.927,-2.8779,-2.781,-2.8256,-2.8784,0.0,-2.851,-2.8364,-2.7685,0.0,0.0,0.0,0.0,0.0,-2.7625,-2.7625,-2.7625,-2.7625,-2.7625,-2.7625,-2.7625,-2.7203,-2.6826,-2.651,-2.6122,-2.5398,-2.435,-2.4624,-2.4279,0.0,0.0,0.0,0.0,0.0,0.0,0.0,0.0,0.0,0.0,0.0,0.0,0.0,0.0,0.0,0.0,0.0,0.0,0.0,0.0,0.0,0.0,0.0,0.0,0.0,0.0,0.0,0.0,-3.7379,-3.7644,-3.8589,-3.7802,-3.7509,0.0,0.0,0.0,0.0,0.0,0.0,-3.8083,-3.8083,-3.8083,-3.8083,-3.8083,-3.8083,-3.8083,-3.8279,-3.8401,-3.8401,-3.8585,-3.8707,-3.8707,-3.8707,-3.8707,-3.867,-3.8132,-3.7826,-3.7596,-3.6334,-3.5819,-3.5802,-3.5656,-3.5622,-3.5622,-3.5622,-3.5622,-3.5622,-3.5622,-3.5622,-3.5622,-3.5622,0.0,-3.5543,-3.5363,0.0,0.0,0.0,0.0,-3.3154,-3.2644,0.0,-3.0083,-2.9225,-2.8666,-2.8203,-2.7679,-2.7709,-2.7835,0.0,-2.7979,-2.8173,-2.7715,0.0,0.0,0.0,0.0,-2.7625,-2.7625,-2.7625,-2.7625,-2.7625,-2.7625,-2.7625,-2.7625,-2.693,-2.6404,-2.6229,-2.5508,-2.4781,-2.4002,-2.4002,-2.3708,-2.3138,0.0,0.0,0.0,0.0,0.0,0.0,0.0,0.0,0.0,0.0,0.0,0.0,0.0,0.0,0.0,0.0,0.0,0.0,0.0,0.0,0.0,0.0,0.0,0.0,0.0,0.0,0.0,0.0,0.0,-3.8544,-3.7316,0.0,0.0,0.0,0.0,-3.6437,-3.6437,-3.6437,-3.6437,-3.6437,-3.6437,-3.6437,-3.6437,-3.6437,-3.6437,-3.7186,-3.7546,-3.7564,-3.8315,-3.8707,-3.8707,-3.8707,-3.8707,-3.867,-3.8132,-3.7643,-3.7185,-3.662,-3.6378,-3.6282,-3.5819,-3.5622,-3.5622,-3.5622,-3.5622,-3.5622,-3.5622,-3.5622,-3.5622,-3.5622,-3.5622,-3.5476,-3.4774,-3.4578,0.0,0.0,-3.2517,-3.2006,-3.018,-2.9646,-2.9246,-2.8,-2.7685,-2.767,-2.7625,-2.8083,-2.8353,0.0,-2.7655,-2.767,-2.7625,0.0,-2.7625,-2.7625,-2.7625,-2.7625,-2.7625,-2.7625,-2.7625,-2.7625,-2.7625,-2.7625,-2.7625,-2.693,-2.6176,-2.5508,-2.4738,-2.4002,-2.3185,-2.3125,-2.3125,-2.3078,-2.3078,0.0,0.0,0.0,0.0,0.0,0.0,0.0,0.0,0.0,0.0,0.0,0.0,0.0,0.0,0.0,0.0,0.0,0.0,0.0,0.0,0.0,0.0,0.0,0.0,0.0,0.0,0.0,0.0,-3.7017,-3.6153,0.0,-3.6656,-3.6472,-3.6297,-3.6297,-3.6297,-3.6297,-3.6297,-3.6297,-3.6297,-3.6297,-3.6297,-3.6297,-3.6297,-3.6583,-3.6725,-3.6723,-3.7009,-3.7168,-3.7168,-3.7686,-3.7937,-3.7955,-3.8261,-3.8132,-3.7617,-3.7108,-3.6525,-3.587,-3.5673,-3.5622,-3.5622,-3.5622,-3.5622,-3.5622,-3.5622,-3.5622,-3.5509,-3.5037,-3.4903,-3.4757,-3.3996,-3.3802,-3.3683,-3.3168,-3.2428,-3.1692,-3.1361,-3.008,-2.8826,-2.8786,-2.8157,-2.7625,-2.7625,-2.7769,-2.7874,-2.767,-2.7934,-2.8098,-2.7649,-2.7625,-2.7625,-2.7625,-2.7625,-2.7625,-2.7625,-2.7625,-2.7625,-2.7625,-2.7625,-2.7408,-2.693,-2.6229,-2.5453,-2.4738,-2.3943,-2.3424,-2.3138,-2.3078,-2.3078,-2.3078,-2.3078,-2.359,0.0,0.0,0.0,0.0,0.0,0.0,0.0,0.0,0.0,0.0,0.0,0.0,0.0,0.0,0.0,0.0,0.0,0.0,0.0,0.0,0.0,0.0,0.0,0.0,0.0,0.0,-3.5465,-3.6223,-3.5292,-3.4932,-3.5762,-3.5623,-3.5467,-3.5467,-3.5467,-3.5467,-3.5467,-3.5467,-3.5467,-3.5467,-3.5467,-3.5467,-3.5467,-3.5734,-3.5864,-3.5864,-3.615,-3.6307,-3.6325,-3.6842,-3.7092,-3.7129,-3.7674,-3.7491,-3.683,-3.6516,-3.5802,-3.4919,-3.538,-3.5622,-3.5622,-3.5622,-3.5622,-3.5543,-3.5313,-3.5082,-3.479,-3.4287,-3.4135,-3.3989,-3.3261,-3.3049,-3.2985,-3.274,-3.1856,-3.105,-3.128,-2.9907,-2.8536,-2.8758,-2.8173,-2.7625,-2.7625,-2.7625,-2.7625,-2.7625,-2.7934,-2.8113,-2.77,-2.7625,-2.7625,-2.7625,-2.7625,-2.7625,-2.7625,-2.7625,-2.7625,-2.7625,-2.7625,-2.7306,-2.6563,-2.6068,-2.5342,-2.435,-2.3826,-2.3365,-2.3138,-2.3365,-2.3365,-2.3138,-2.3078,-2.359,-2.461,0.0,0.0,0.0,0.0,0.0,0.0,0.0,0.0,0.0,0.0,0.0,0.0,0.0,0.0,0.0,0.0,0.0,0.0,0.0,0.0,0.0,0.0,0.0,-3.4833,-3.5237,-3.5642,-3.6176,-3.4778,-3.4109,-3.4897,-3.4265,-3.3807,-3.3807,-3.3807,-3.3807,-3.3807,-3.3807,-3.3807,-3.3807,-3.3807,-3.3807,-3.3807,-3.4567,-3.4971,-3.4971,-3.5808,-3.6213,-3.6213,-3.625,-3.625,-3.626,-3.6278,-3.5726,-3.4808,-3.4823,-3.4281,-3.3539,-3.497,-3.5526,-3.5526,-3.5526,-3.5526,-3.5442,-3.4706,-3.3991,-3.3378,-3.3361,-3.3381,-3.3213,-3.2491,-3.2281,-3.2122,-3.1382,-3.0752,-3.0157,-2.9576,-2.8955,-2.8364,-2.7765,-2.7625,-2.7625,-2.7625,-2.7625,-2.7625,-2.7625,-2.7625,-2.7625,-2.7625,-2.7625,-2.7625,-2.7625,-2.7625,0.0,-2.7625,-2.7625,-2.7625,-2.7625,-2.7625,-2.7306,-2.651,-2.6457,-2.5837,-2.435,-2.4292,-2.3884,-2.3138,-2.3826,-2.3884,-2.3138,-2.3138,-2.3138,-2.3138,0.0,0.0,0.0,0.0,0.0,0.0,0.0,0.0,0.0,0.0,0.0,0.0,0.0,0.0,0.0,0.0,0.0,0.0,0.0,0.0,0.0,0.0,-3.3862,-3.4091,-3.4209,-3.432,-3.4475,-3.4072,-3.388,-3.4109,-3.3944,-3.3807,-3.3807,-3.3807,-3.3807,-3.3807,-3.3807,-3.3807,-3.3807,-3.3807,-3.3807,-3.3807,-3.4017,-3.4109,-3.4109,-3.4357,-3.4494,-3.4512,-3.5081,-3.5375,-3.5385,-3.6021,-3.591,-3.53,-3.5287,-3.4771,-3.3926,-3.3984,-3.3979,-3.3979,-3.3979,-3.3979,-3.3985,-3.3794,-3.3577,-3.3291,-3.2761,-3.261,-3.2457,-3.1715,-3.1506,-3.1472,-3.128,-3.0752,-3.0275,-3.0094,-2.9304,-2.844,-2.8283,-2.7906,-2.7625,-2.7625,-2.7625,-2.7625,-2.7625,-2.7625,-2.7625,-2.7625,-2.7625,-2.7625,-2.7625,-2.7625,0.0,-2.7625,-2.7625,-2.7625,-2.7625,-2.7625,-2.7071,-2.5783,-2.5673,-2.5063,-2.3531,-2.3424,-2.3305,-2.3138,-2.3305,-2.3305,-2.3078,-2.3649,-2.3943,0.0,0.0,0.0,0.0,0.0,0.0,0.0,0.0,0.0,0.0,0.0,0.0,0.0,0.0,0.0,0.0,0.0,0.0,0.0,0.0,0.0,0.0,-3.3807,-3.3807,-3.3807,-3.3807,-3.3807,-3.3807,-3.3807,-3.3807,-3.3807,-3.3807,-3.3807,-3.3807,-3.3807,-3.3807,-3.3807,-3.3807,-3.3807,-3.3807,-3.3807,-3.3807,-3.3807,-3.3807,-3.3807,-3.3807,-3.3807,-3.3807,-3.3825,-3.4283,-3.4494,0.0,-3.5026,-3.4971,-3.4532,-3.4555,-3.397,0.0,0.0,0.0,0.0,0.0,-3.3186,-3.2934,-3.2946,-3.2757,-3.2422,-3.1981,-3.1839,-3.1771,-3.1331,-3.119,-3.1157,-3.0875,-3.0387,-2.9873,-2.9607,-2.8819,-2.8127,-2.8127,-2.7876,-2.7625,-2.7625,-2.7625,-2.7625,-2.7625,0.0,0.0,-2.7625,-2.7625,-2.7625,-2.7625,-2.7625,-2.7625,0.0,-2.7625,-2.7458,-2.7152,-2.7137,-2.6549,-2.5063,-2.5231,0.0,0.0,0.0,-2.359,-2.359,-2.3245,0.0,0.0,0.0,-2.3826,-2.3826,0.0,0.0,0.0,-2.3989,-2.4381,0.0,0.0,0.0,0.0,0.0,0.0,0.0,0.0,0.0,0.0,0.0,0.0,0.0,0.0,0.0,0.0,-3.3807,-3.3807,-3.3807,-3.3807,-3.3807,-3.3807,-3.3807,-3.3807,-3.3807,-3.3807,-3.3807,-3.3807,-3.3807,-3.3807,-3.3807,0.0,0.0,0.0,0.0,-3.3807,-3.3807,-3.3807,-3.3807,-3.3807,-3.3807,-3.3807,-3.3807,-3.3807,-3.3807,-3.3807,-3.3807,-3.3597,-3.325,-3.3232,-3.2643,-3.1933,-3.328,-3.3515,-3.3144,-3.3144,-3.2757,0.0,0.0,0.0,0.0,-3.119,-3.119,-3.119,-3.119,-3.119,-3.1067,-3.0476,-2.9886,-2.9261,-2.8676,-2.8032,-2.7625,-2.7625,-2.7625,-2.7625,-2.7625,-2.7625,-2.7625,-2.7625,-2.7625,-2.7625,-2.7625,-2.7625,-2.7625,-2.7625,-2.7524,0.0,-2.7473,-2.7408,-2.7086,-2.6457,0.0,0.0,-2.4408,-2.4908,-2.4667,-2.3185,-2.3767,-2.4176,-2.4176,-2.3484,-2.3424,-2.4176,-2.3484,-2.3078,-2.3078,-2.3078,-2.3078,-2.3138,-2.4496,-2.4781,0.0,0.0,0.0,0.0,0.0,0.0,0.0,0.0,0.0,0.0,0.0,0.0,0.0,0.0,0.0,-3.3788,-3.3807,-3.3807,-3.3807,-3.3807,-3.3807,-3.3807,-3.3807,-3.3807,-3.3807,-3.3807,-3.3807,-3.3807,-3.3807,-3.3807,-3.3807,-3.3807,0.0,-3.3807,-3.3807,-3.3807,-3.3807,-3.3807,-3.3807,-3.3807,0.0,0.0,-3.3807,-3.3807,-3.3807,-3.3807,-3.3807,-3.377,-3.3661,-3.334,-3.265,-3.1816,-3.1759,-3.1698,-3.163,-3.163,-3.1523,-3.1399,-3.1399,-3.1331,-3.119,-3.119,-3.119,-3.119,-3.119,-3.119,0.0,-3.0478,-2.9858,-2.9275,-2.8671,-2.8032,-2.7625,-2.7625,-2.7625,-2.7625,-2.7625,-2.7625,-2.7625,-2.7625,-2.7625,-2.7625,-2.7625,-2.7625,-2.7625,-2.7625,-2.7086,-2.6721,-2.6721,-2.6162,-2.5783,-2.5618,-2.5618,-2.5231,-2.435,-2.4452,-2.4105,-2.3125,-2.3258,-2.3305,-2.3305,-2.3185,-2.3185,-2.3305,-2.3198,-2.3078,-2.3078,-2.3078,-2.3078,-2.3138,-2.3424,-2.3471,0.0,0.0,0.0,0.0,0.0,0.0,0.0,0.0,0.0,0.0,0.0,-3.2639,0.0,0.0,-3.3578,-3.377,-3.3807,-3.3807,-3.3807,-3.3807,-3.3807,-3.3807,-3.3807,-3.3807,-3.3807,-3.3807,-3.3807,-3.3807,-3.3807,-3.3807,-3.3807,-3.3807,-3.3807,-3.3807,-3.3807,-3.3807,-3.3807,-3.3807,-3.3807,-3.3807,-3.3807,-3.3807,-3.3807,-3.3807,-3.3689,-3.3499,-3.349,-3.337,-3.3113,-3.268,-3.2229,-3.1768,-3.1359,-3.119,-3.119,-3.119,-3.119,-3.119,-3.119,-3.119,-3.119,-3.119,-3.119,-3.119,-3.119,-3.119,-3.1009,-3.0092,-2.9627,-2.9184,-2.8283,-2.781,-2.7625,-2.7625,-2.7625,-2.7625,-2.7625,-2.7625,-2.7509,-2.7137,-2.7034,-2.693,-2.6534,-2.6481,-2.6602,-2.6982,-2.6721,-2.6336,-2.6014,-2.5618,-2.5231,-2.4908,-2.4851,-2.4567,-2.3767,-2.3708,-2.3543,-2.3138,-2.3078,-2.3078,-2.3078,-2.3078,-2.3078,-2.3078,-2.3078,-2.3078,-2.3078,-2.3078,-2.3078,-2.3078,-2.3078,-2.3078,0.0,0.0,0.0,0.0,0.0,0.0,0.0,0.0,-2.9004,-3.079,-3.1566,-3.2076,-3.2557,-3.303,-3.3405,-3.3752,-3.3807,-3.3807,-3.3807,-3.3807,-3.3807,-3.3807,-3.3807,-3.3807,-3.3807,-3.3807,-3.3807,-3.3807,-3.3807,-3.3807,-3.3807,-3.3807,-3.3807,-3.3807,-3.3807,-3.3807,-3.3807,-3.3807,-3.3807,-3.3807,-3.3807,-3.3807,-3.3807,-3.3807,-3.3633,-3.3298,-3.3216,-3.2873,-3.2336,-3.1966,-3.1752,-3.166,-3.1312,-3.119,-3.119,-3.119,-3.119,-3.119,-3.119,-3.119,-3.119,-3.119,-3.119,-3.119,-3.119,-3.1112,-3.0797,-2.9717,-2.9312,-2.8955,-2.7861,-2.7625,-2.7625,-2.7625,-2.7625,-2.7625,-2.7625,-2.7625,-2.7408,-2.6826,-2.6721,-2.6496,-2.5946,-2.5728,-2.5783,-2.6229,-2.6176,-2.5837,-2.5231,-2.5063,-2.4724,-2.4118,-2.406,-2.3826,-2.3138,-2.3078,-2.3078,-2.3078,-2.3078,-2.3078,-2.3078,-2.3078,-2.3078,-2.3078,-2.3078,-2.3078,-2.3078,-2.3078,-2.3078,-2.3078,-2.3078,-2.3078,-0.7309,-1.3371,-1.8487,-1.8065,-2.157,-2.5343,0.0,0.0,-2.958,-3.0683,-3.1718,-3.2563,-3.3047,-3.3468,-3.3752,-3.3788,-3.3807,-3.3807,-3.3807,-3.3807,-3.3807,-3.3807,-3.3807,-3.3807,-3.3807,-3.3807,-3.3807,-3.3807,-3.3807,-3.3807,-3.3807,-3.3807,-3.3807,-3.3807,-3.3807,-3.3807,-3.3807,-3.3807,-3.3807,-3.3807,-3.3807,-3.3807,-3.3807,-3.3807,-3.378,-3.3726,-3.3357,-3.2702,-3.186,-3.1825,-3.1603,-3.1252,-3.123,-3.119,-3.119,-3.119,-3.119,-3.119,-3.119,-3.119,-3.119,-3.119,-3.119,-3.119,-3.119,-3.0838,-3.0251,-2.9585,-2.9013,-2.8442,-2.7775,-2.7625,-2.7625,-2.7625,-2.7625,-2.7625,-2.7625,-2.7625,-2.7575,-2.7509,-2.7458,-2.7458,-2.7357,-2.6826,-2.6176,-2.5618,-2.4951,-2.4509,-2.4452,-2.3826,-2.3305,-2.3245,-2.3245,-2.3198,-2.3138,-2.3078,-2.3078,-2.3078,-2.3078,-2.3078,-2.3078,-2.3078,-2.3078,-2.3078,-2.3078,-2.3078,-2.3078,-2.3078,-2.3078,-2.3078,-2.3078,-2.3078,-0.8318,-1.2339,-1.561,-1.7962,-2.0568,-2.3246,-2.5748,-2.7235,-2.857,-3.0192,-3.1589,-3.2546,-3.2746,-3.3331,-3.3844,0.0,-3.4036,-3.4036,-3.4036,-3.4036,-3.3981,-3.3825,-3.3807,-3.3807,-3.3807,-3.3807,-3.3807,-3.3807,-3.3807,-3.3807,-3.3807,-3.3807,-3.3807,-3.3807,-3.3807,-3.3807,-3.3807,-3.3807,-3.3807,-3.3807,-3.3807,-3.3807,-3.3807,-3.3807,-3.368,-3.3437,-3.2965,-3.24,-3.1789,-3.1789,-3.1565,-3.119,-3.119,-3.119,-3.119,-3.119,-3.119,-3.119,-3.119,-3.119,-3.119,-3.119,-3.119,-3.119,-3.119,-3.1015,-3.0601,-2.9673,-2.9225,-2.8826,-2.786,-2.7625,-2.7625,-2.7625,-2.7625,-2.7505,-2.7081,-2.7006,-2.6674,-2.551,-2.5285,-2.5015,-2.42,-2.3784,-2.347,-2.3152,-2.38,-2.4118,-2.3649,-2.3305,-2.3078,-2.3078,-2.3078,-2.3078,-2.3078,-2.3078,-2.3078,-2.3078,-2.3078,-2.3078,-2.3078,-2.3078,-2.3078,-2.3078,-2.3078,-2.3078,-2.3078,-2.3078,-2.3078,-2.3078,-2.3078,-2.3078,-0.7807,-1.0425,-1.288,-1.6741,-1.9126,-2.1271,-2.4286,-2.5923,-2.7269,-2.9163,-3.0823,-3.2103,-3.2459,-3.3232,-3.388,-3.4173,-3.4198,-3.4228,-3.4321,-3.4351,-3.4265,-3.4072,-3.3981,-3.3925,-3.3925,-3.3844,-3.3807,-3.3807,-3.3807,-3.3807,-3.3807,-3.3807,-3.3807,-3.3807,-3.3807,-3.3807,-3.3807,-3.3807,-3.3807,-3.3807,-3.3807,-3.3807,-3.3807,-3.368,-3.339,-3.2983,-3.2517,-3.2039,-3.1623,-3.1623,-3.147,-3.119,-3.119,-3.119,-3.119,-3.119,-3.119,-3.119,-3.119,-3.119,-3.119,-3.119,-3.119,-3.119,-3.119,-3.1095,-3.074,-2.9673,-2.9127,-2.8621,-2.7573,-2.7171,-2.7036,-2.7036,-2.7036,-2.6901,-2.6422,-2.6206,-2.5654,-2.4182,-2.3742,-2.3316,-2.2268,-2.1953,-2.1801,-2.1801,-2.2773,-2.3302,-2.2732,-2.2686,-2.2686,-2.2686,-2.2811,-2.2912,-2.2912,-2.2977,-2.3078,-2.3078,-2.3078,-2.3078,-2.3078,-2.3078,-2.3078,-2.3078,-2.3078,-2.3078,-2.3078,-2.3078,-2.3078,-2.3078,-2.3078,-2.3078,-0.4377,-0.8083,-1.2079,-1.3591,-1.7184,-2.0523,-2.1453,-2.3705,-2.6,-2.733,-2.9241,-3.1028,-3.2277,-3.319,-3.388,-3.4173,-3.4205,-3.4309,-3.463,-3.468,-3.4686,-3.4686,-3.4402,-3.4191,0.0,-3.3962,-3.3807,-3.3807,-3.3807,-3.3807,-3.3807,-3.3807,-3.3807,-3.3807,-3.3807,-3.3807,-3.3807,-3.3807,-3.3807,-3.3807,-3.3807,-3.3807,-3.3807,-3.3408,-3.2952,-3.2484,-3.2039,-3.1603,-3.123,-3.123,-3.123,-3.119,-3.119,-3.119,-3.119,-3.119,-3.119,-3.119,-3.119,-3.119,-3.119,-3.119,-3.119,-3.119,-3.119,-3.0797,-3.0208,-2.9585,-2.8507,-2.7396,-2.6796,-2.6153,-2.5674,-2.5674,-2.5674,-2.5659,-2.5644,-2.5173,-2.4757,-2.4693,-2.412,-2.3701,-2.365,-2.3041,-2.2578,-2.2578,-2.1992,-2.1599,-2.1543,-2.1543,-2.1543,-2.1543,-2.202,-2.2334,-2.2334,-2.2824,-2.3078,-2.3078,-2.3078,-2.3078,-2.3078,-2.3078,-2.3078,-2.3078,-2.3078,-2.3078,-2.3078,-2.3078,-2.3078,-2.3078,-2.3078,-2.3078,-0.2627,-0.6541,-1.0294,-1.1692,-1.5025,-1.8484,-2.0273,-2.2154,-2.4077,-2.6244,-2.8056,-2.9558,-3.0752,-3.2237,-3.3371,-3.3632,-3.4301,-3.4845,-3.4941,-3.498,-3.4906,-3.4717,-3.4603,0.0,0.0,0.0,0.0,-3.3797,-3.3961,-3.3986,-3.3815,-3.3807,-3.3807,-3.3807,-3.3807,-3.3807,-3.3807,-3.3807,-3.3807,-3.3807,-3.3807,-3.3807,-3.3807,-3.3652,-3.3361,-3.2952,-3.2809,-3.2298,-3.1603,-3.1603,-3.1449,-3.119,-3.119,-3.119,-3.119,-3.119,-3.119,-3.119,-3.119,-3.119,-3.119,-3.119,-3.119,-3.1106,-3.0615,-3.0347,-2.9842,-2.8398,-2.7694,-2.713,-2.6196,-2.5779,-2.5615,-2.5615,-2.5615,-2.5495,-2.5,-2.4758,-2.4271,-2.2946,-2.2526,-2.2073,-2.1248,-2.0914,-2.0758,-2.0758,-2.1154,-2.1493,-2.1493,-2.1493,-2.1493,-2.1493,-2.1656,-2.1769,-2.1769,-2.1933,-2.2046,-2.2046,-2.2046,-2.2209,-2.2573,-2.2585,-2.2761,-2.3065,-2.3078,-2.3078,-2.3078,-2.3078,-2.3078,-2.3078,-2.3078,-2.3078,0.0206,-0.3279,-0.6408,-0.8832,-1.2063,-1.5209,-1.755,-1.9576,-2.1741,-2.4425,-2.6495,-2.8271,-2.9766,-3.1419,-3.2695,-3.3,-3.3941,-3.4672,-3.4768,-3.5037,-3.5185,-3.4999,-3.4903,-3.4843,0.0,0.0,0.0,-3.3963,-3.4104,-3.4074,-3.3815,-3.3876,-3.3902,-3.3788,-3.3807,-3.3807,-3.3807,-3.3807,-3.3807,-3.3807,-3.3807,-3.3807,-3.3807,-3.3652,-3.3447,-3.3184,-3.284,-3.2366,-3.1789,-3.1623,-3.1449,-3.119,-3.119,-3.119,-3.119,-3.119,-3.1021,-3.0835,-3.1106,-3.1021,-3.0818,-3.0818,-3.0632,-3.0273,-2.9614,-2.9441,-2.9076,-2.7464,-2.6852,-2.6424,-2.55,-2.5076,-2.4896,-2.4896,-2.4896,-2.4777,-2.4358,-2.3879,-2.3201,-2.1921,-2.1315,-2.0756,-1.994,-1.9798,-1.9798,-1.9798,-2.0413,-2.0891,-2.0891,-2.0891,-2.0891,-2.0891,-2.1079,-2.1192,-2.1192,-2.138,-2.1493,-2.1493,-2.1493,-2.1644,-2.1995,-2.1778,-2.1851,-2.2321,-2.208,-2.2055,-2.2175,-2.2175,-2.2175,-2.2175,-2.2506,-2.2506,0.4156,0.169,-0.0844,-0.5095,-0.8283,-1.1009,-1.3372,-1.6213,-1.9111,-2.1917,-2.4647,-2.7161,0.0,0.0,-3.1934,-3.2369,-3.3168,-3.3838,-3.4087,-3.4883,-3.5416,0.0,0.0,0.0,0.0,0.0,0.0,-3.428,0.0,-3.4117,-3.3842,-3.4043,-3.4068,-3.3807,-3.3807,-3.3807,-3.3807,-3.3807,-3.3807,-3.3807,-3.3807,-3.3807,-3.3807,-3.339,-3.3184,-3.3105,-3.2196,-3.1789,-3.1752,-3.1351,-3.1173,-3.114,-3.114,-3.1106,-3.1089,-3.1089,-3.0632,-3.0142,-3.0835,-3.0632,-3.004,-3.004,-2.9567,-2.8884,-2.8334,-2.8185,-2.7935,-2.6761,-2.5991,-2.5339,-2.4687,-2.4088,-2.3595,-2.3595,-2.3551,-2.3551,-2.3551,-2.256,-2.1697,-2.1649,-2.0657,-1.9798,-1.9798,-1.9798,-1.9798,-1.9798,-1.9798,-1.9798,-1.9798,-1.9798,-1.9798,-1.9798,-2.0288,-2.0668,-2.0668,-2.1104,-2.1405,-2.1405,-2.1405,-2.1418,-2.1443,-2.0799,-2.0568,-2.095,-2.0297,-2.0177,-2.0546,-2.0621,-2.0632,-2.059,-2.1491,-2.1428,0.9075,0.5623,0.1868,-0.0971,-0.4635,-0.8471,-1.1873,-1.4371,-1.7176,-2.1407,-2.3856,-2.5966,-2.819,0.0,0.0,-3.1585,-3.2465,0.0,-3.3229,-3.3972,0.0,-3.4601,0.0,-3.5416,-3.5455,-3.5243,0.0,0.0,-3.468,-3.4423,-3.4117,-3.3986,-3.385,-3.3788,-3.3807,-3.3807,-3.3807,-3.3807,-3.3807,-3.3807,-3.3807,-3.3807,-3.3807,-3.339,-3.3014,-3.2648,-3.2057,-3.164,-3.1351,-3.1252,-3.0869,-3.0378,-3.0378,-3.004,-2.955,-2.955,-2.9431,-2.9296,-2.9482,-2.9431,-2.9262,-2.9262,-2.9144,-2.8873,-2.8138,-2.79,-2.7548,-2.5972,-2.5425,-2.506,-2.4094,-2.3729,-2.3595,-2.3595,-2.3246,-2.2934,-2.2934,-2.2285,-2.1568,-2.1113,-2.0333,-1.9798,-1.9798,-1.9798,-1.9798,-1.9798,-1.9798,-1.9798,-1.9798,-1.9798,-1.9798,-1.9798,-1.9936,-2.0024,-2.0024,-2.015,-2.0225,-2.0225,-2.0225,-2.0426,-2.0907,-2.0702,-2.0606,-2.0544,-2.0916,-2.0748,-2.0093,-2.1283,-2.1424,-2.059,-2.1491,-2.1428,1.1928,0.9107,0.5878,0.2982,-0.071,-0.482,-0.9242,-1.3316,-1.7269,-2.0986,-2.3803,-2.6179,-2.8105,-2.9777,-3.0886,0.0,0.0,0.0,-3.2462,-3.3167,-3.3686,0.0,-3.4138,0.0,-3.4455,-3.4293,-3.4178,0.0,-3.4609,-3.4675,-3.4223,-3.4189,-3.3914,-3.3293,-3.3275,-3.3109,-3.2742,-3.2742,-3.2742,-3.2742,-3.2742,-3.2742,-3.2742,-3.2493,-3.2252,-3.1984,0.0,-3.0976,-3.0731,-3.0381,-2.9989,-2.9617,-2.9617,-2.9347,-2.9011,-2.9011,-2.8772,-2.8467,-2.8467,-2.8247,-2.8027,-2.8366,-2.8247,-2.7822,-2.6922,-2.6664,-2.6344,-2.4926,-2.4511,-2.4348,-2.3767,-2.3595,-2.3551,-2.329,-2.3143,-2.2965,-2.2392,-2.1946,-2.1424,-2.0534,-2.0055,-1.9798,-1.9798,-1.9798,-1.9798,-1.9798,-1.9798,-1.9798,-1.9798,-1.9798,-1.9798,-1.9798,-1.9798,-1.9798,-1.9798,-1.9798,-1.9798,-1.9798,-1.9475,-1.9454,-1.9826,-1.9221,-1.8916,-1.8962,-1.9067,-1.8903,-1.8489,-1.9404,-1.9599,-1.92,-2.0076,-2.0123,1.3852,1.23,1.0358,0.6994,0.3554,-0.0514,-0.627,-1.2274,-1.7571,-2.0809,-2.423,-2.7109,-2.864,-2.9687,-3.0397,-3.0559,0.0,-3.1725,-3.1733,-3.2375,-3.2855,-3.2858,-3.2954,-3.3028,-3.3037,-3.301,-3.2998,-3.2981,-3.4121,-3.4546,-3.4001,-3.4212,-3.3765,-3.2525,-3.2474,-3.2118,-3.1403,-3.1384,-3.1384,-3.1384,-3.1384,-3.1384,-3.1384,-3.1334,-3.1309,-3.1283,0.0,0.0,-3.0137,-2.9438,-2.907,-2.8985,-2.8931,-2.8863,-2.8778,-2.8706,-2.8247,-2.7637,-2.7637,-2.7249,-2.681,-2.7452,-2.7232,-2.6539,-2.5672,-2.5373,-2.5105,-2.4074,-2.3752,-2.3681,-2.3638,-2.3595,-2.3465,-2.292,-2.3098,-2.3024,-2.1932,-2.1554,-2.1135,-1.9991,-1.9798,-1.9798,-1.9798,-1.9798,-1.9798,-1.9798,-1.9798,-1.9798,-1.9798,-1.9695,-1.9643,-1.9643,-1.9579,-1.9527,-1.9527,-1.9527,-1.9527,-1.9527,-1.8927,-1.8555,-1.8555,-1.7302,-1.6795,-1.7089,-1.6556,-1.6435,-1.6641,-1.6819,-1.7056,-1.736,-1.8212,-1.8383,1.6863,1.5485,1.3799,1.1541,0.8589,0.3993,-0.4787,-0.9293,-1.372,-2.1292,-2.5016,-2.746,-2.9152,-3.0056,-3.0547,-3.0513,-3.0691,-3.0826,-3.0821,-3.1566,-3.2099,0.0,-3.2761,-3.3169,-3.3177,-3.3068,0.0,0.0,0.0,-3.314,-3.2798,-3.2637,-3.2366,-3.1949,-3.1734,-3.1531,-3.1384,-3.1384,-3.1384,-3.1384,-3.1384,-3.1384,-3.1384,-3.1074,-3.0893,-3.0866,0.0,0.0,-3.0106,-2.9966,-2.9548,-2.8969,-2.8637,-2.8144,-2.7543,-2.7216,-2.6996,-2.6894,-2.6894,-2.681,-2.6708,-2.6843,-2.6793,-2.6657,-2.6505,-2.6175,-2.5726,-2.5105,-2.4576,-2.4158,-2.3724,-2.3595,-2.3551,-2.3465,-2.2696,-2.1979,-2.1744,-2.0841,-2.0042,-1.985,-1.9798,-1.9798,-1.9798,-1.9798,-1.9798,-1.9798,-1.9798,-1.9798,-1.9798,-1.9254,-1.8874,-1.8874,-1.834,-1.795,-1.795,-1.795,-1.795,-1.795,-1.7841,-1.7797,-1.7797,-1.7523,-1.7179,-1.6608,-1.7097,-1.699,-1.6182,-1.7535,-1.7719,-1.6855,-1.8058,-1.8219,1.9242,1.7949,1.6449,1.5051,1.3429,0.9959,0.1177,-0.5986,-1.3269,-2.1968,-2.6237,-2.8765,-2.9916,-3.038,-3.0585,-3.0558,-3.0583,-3.0604,-3.0604,-3.0952,-3.1244,-3.1276,-3.1635,-3.1898,-3.1894,-3.1808,0.0,0.0,0.0,-3.1853,-3.2469,-3.1853,-3.1431,-3.1332,-3.0798,-3.0485,-3.035,-3.0368,-3.03,-3.0155,-3.0155,-3.0155,-3.0155,-2.994,-2.9864,-2.9839,-2.9394,0.0,-2.8935,-2.8724,-2.831,-2.776,-2.76,-2.7279,-2.6954,-2.6791,-2.6691,-2.6691,-2.6691,-2.6691,-2.6691,-2.6691,-2.6539,-2.628,-2.6016,-2.5561,-2.5067,-2.4511,-2.4184,-2.3906,-2.3681,-2.3595,-2.3406,-2.2786,-2.1649,-2.0805,-2.1161,-2.0484,-1.9798,-1.9798,-1.9798,-1.9798,-1.9798,-1.9798,-1.9798,-1.9798,-1.9798,-1.9798,-1.9798,-1.8821,-1.8436,-1.9202,-1.898,-1.8608,-1.8232,-1.8167,-1.8004,-1.7633,-1.7246,-1.7034,-1.7034,-1.6641,-1.6301,-1.5921,-1.6244,-1.6243,-1.5723,-1.6526,-1.6704,-1.6387,-1.7009,-1.7176,2.1588,2.0483,1.9196,1.8434,1.7903,1.5616,0.807,-0.1853,-1.177,-1.9902,-2.5594,-2.9334,-3.0056,-3.0283,-3.0335,-3.0311,-3.0393,-3.0477,-3.0538,-3.0541,-3.0543,-3.0586,-3.0644,0.0,-3.0684,-3.0637,0.0,0.0,0.0,0.0,-3.1987,-3.1159,-3.0639,-3.0639,-2.9982,-2.9551,-2.9412,-2.9434,-2.9332,-2.9089,-2.9089,-2.9062,-2.8994,-2.8994,-2.8994,-2.8994,-2.8658,0.0,0.0,-2.7794,-2.7482,-2.7192,-2.7019,-2.6971,-2.6939,-2.6741,-2.6691,-2.6691,-2.6691,-2.6691,-2.6691,-2.6691,-2.6436,-2.6033,-2.5524,-2.4989,-2.4471,-2.3921,-2.3681,-2.3595,-2.3595,-2.3595,-2.326,-2.1979,-2.0855,-2.0105,-2.0497,-2.0156,-1.9798,-1.9798,-1.9798,-1.9798,-1.9798,-1.9695,-1.9579,-1.9579,-1.9423,-1.9307,-1.9307,-1.834,-1.8058,-1.9202,-1.9032,-1.865,-1.8058,-1.7993,-1.7731,-1.7191,-1.6585,-1.6265,-1.6265,-1.569,-1.541,-1.541,-1.541,-1.541,-1.541,-1.541,-1.5586,-1.5928,-1.6016,-1.625,2.4312,2.3636,2.2745,2.2364,2.1672,1.9521,1.3824,0.4206,-0.525,-1.1489,-2.0482,-2.7577,-2.8678,-2.9232,-2.9489,-2.9425,-2.9736,-3.0057,-3.0289,-3.0331,-3.0392,-3.0585,0.0,0.0,-3.0605,-3.0604,0.0,0.0,0.0,0.0,0.0,-3.0095,-2.9809,-2.9809,-2.957,-2.9433,-2.9412,-2.9589,-2.957,-2.9372,-2.9372,-2.9225,-2.8994,-2.8994,-2.8994,-2.8994,0.0,0.0,0.0,-2.8858,-2.8815,-2.8725,-2.8047,-2.7783,-2.7678,-2.6971,-2.6691,-2.6691,-2.6691,-2.6691,-2.6691,-2.6691,-2.6657,-2.6556,-2.6068,-2.554,-2.5012,-2.4471,-2.3991,-2.3595,-2.3595,-2.3595,-2.326,-2.1979,-2.1197,-2.0547,-2.0003,-1.985,-1.9798,-1.9798,-1.9798,-1.9798,-1.9798,-1.9254,-1.8821,-1.8821,-1.8221,-1.7786,-1.7786,-1.7688,-1.7633,-1.7797,-1.6574,-1.5796,-1.568,-1.569,-1.569,-1.5633,-1.5526,-1.5526,-1.5526,-1.541,-1.541,-1.541,-1.541,-1.541,-1.541,-1.541,-1.543,-1.5478,-1.5879,-1.6145,2.5794,2.552,2.5302,2.5188,2.5023,2.3974,2.0618,1.0831,0.0119,-0.8194,-1.716,-2.4134,-2.6157,-2.7584,-2.8426,-2.8393,-2.8798,-2.9225,-2.9537,-2.9748,-2.9997,-3.0326,-3.0489,0.0,0.0,0.0,0.0,0.0,0.0,0.0,0.0,-3.0215,-3.0128,-3.0128,-3.0041,-2.9867,-2.9589,-2.9661,-2.9533,-2.9156,-2.9156,-2.9112,-2.8994,-2.8994,-2.8994,-2.8994,0.0,0.0,0.0,-2.8352,-2.8047,-2.7601,-2.7286,-2.7178,-2.7147,-2.6808,-2.6691,-2.6691,-2.6691,-2.6691,-2.6691,-2.6691,-2.6505,-2.6175,-2.5689,-2.5144,-2.4592,-2.4074,-2.3752,-2.3595,-2.3595,-2.3024,-2.2225,-2.1355,-2.0683,-2.0105,-1.985,-1.9798,-1.9798,-1.9798,-1.9798,-1.9798,-1.9798,-1.9579,-1.9202,-1.8768,-1.8447,-1.8124,-1.7688,-1.7191,-1.6922,-1.6922,-1.68,-1.6528,-1.6093,-1.6036,-1.5864,-1.541,-1.541,-1.541,-1.541,-1.541,-1.541,-1.541,-1.541,-1.541,-1.541,-1.541,-1.541,-1.542,-1.5586,-1.5674,2.7309,2.7233,2.7315,2.7452,2.745,2.6998,2.5149,1.5294,0.4229,-0.3843,-1.3152,-2.0702,-2.3621,-2.5473,-2.6726,-2.7137,-2.7736,-2.827,-2.8558,-2.9044,-2.9499,-2.9824,0.0,-3.0448,0.0,0.0,0.0,0.0,0.0,0.0,0.0,-3.0417,-3.0386,-3.0279,-3.0267,-3.0109,-2.978,-2.978,-2.9588,-2.9206,-2.9138,-2.9067,-2.8994,-2.8994,-2.8994,-2.8994,0.0,0.0,0.0,-2.8228,-2.7805,-2.7175,-2.7083,-2.7004,-2.6873,-2.6758,-2.6691,-2.6691,-2.6556,-2.647,-2.647,-2.6315,-2.6016,-2.5652,-2.5144,-2.4712,-2.4266,-2.3752,-2.3465,-2.3275,-2.3084,-2.2225,-2.1342,-2.0894,-2.0295,-1.9798,-1.9798,-1.9798,-1.9798,-1.9798,-1.9798,-1.9747,-1.9527,-1.9307,-1.8886,-1.8167,-1.7841,-1.7567,-1.7024,-1.6472,-1.6151,-1.6151,-1.6641,-1.6754,-1.6197,-1.6151,-1.5921,-1.541,-1.541,-1.541,-1.541,-1.541,-1.541,-1.541,-1.541,-1.541,-1.541,-1.541,-1.541,-1.541,-1.541,-1.541,2.9154,2.898,2.8771,2.9167,2.8777,2.7884,2.6333,1.6622,0.6883,0.2967,-0.7796,-1.7666,-2.125,-2.2934,-2.42,-2.5589,-2.6537,-2.7191,-2.7382,-2.8216,-2.8888,0.0,0.0,-3.0071,0.0,0.0,0.0,0.0,0.0,0.0,0.0,-3.0506,-3.0356,-3.0013,-2.9999,-2.9999,-2.9999,-2.9999,-2.9893,-2.9696,-2.9494,-2.9246,-2.8994,-2.8994,-2.8994,0.0,0.0,0.0,0.0,-2.8994,-2.8749,-2.8368,-2.802,-2.7648,-2.7241,-2.6841,-2.6691,-2.6624,-2.6156,-2.6013,-2.5924,-2.5373,-2.5221,-2.5105,-2.4576,-2.4389,-2.4266,-2.3752,-2.3157,-2.2558,-2.1899,-2.1245,-2.0795,-2.0795,-2.0295,-1.9798,-1.9798,-1.9798,-1.9798,-1.9798,-1.9798,-1.9579,-1.8821,-1.8124,-1.7357,-1.6652,-1.5921,-1.541,-1.541,-1.541,-1.541,-1.541,-1.541,-1.541,-1.541,-1.541,-1.541,-1.541,-1.541,-1.541,-1.541,-1.541,-1.541,-1.541,-1.541,-1.541,-1.541,-1.541,-1.541,-1.541,-1.541,-1.541,2.9436,2.9175,2.8968,2.8965,2.78,2.606,2.3735,1.6604,0.893,0.348,-0.5239,-1.3148,-1.7214,-2.0617,-2.3133,-2.4056,-2.5115,-2.6025,-2.6703,0.0,0.0,-2.881,-2.9555,0.0,0.0,0.0,0.0,0.0,0.0,0.0,0.0,-3.0545,-3.0485,-3.0279,-3.0267,-3.0196,-2.9999,-2.9999,-2.9829,-2.9494,-2.9434,-2.9246,-2.8994,-2.8994,0.0,0.0,0.0,0.0,0.0,-2.859,-2.8368,-2.8047,-2.7954,-2.7648,-2.7286,-2.7147,-2.6939,-2.6691,-2.6521,-2.6262,-2.5961,-2.5799,-2.5259,-2.4632,-2.4471,-2.4389,-2.4266,-2.3752,-2.3157,-2.2558,-2.1852,-2.1245,-2.0696,-2.0258,-1.9952,-1.9643,-1.915,-1.9044,-1.8886,-1.8382,-1.8286,-1.8382,-1.8661,-1.8112,-1.7523,-1.7302,-1.6641,-1.5979,-1.5468,-1.541,-1.541,-1.541,-1.541,-1.541,-1.541,-1.541,-1.541,-1.541,-1.541,-1.541,-1.541,-1.541,-1.541,-1.541,-1.541,-1.541,-1.541,-1.541,-1.541,-1.541,-1.541,-1.541,2.9219,2.8694,2.8222,2.7891,2.6348,2.409,2.1085,1.587,0.9962,0.376,-0.2887,-0.8969,-1.3429,-1.7183,-2.0096,-2.1699,-2.2979,-2.4188,0.0,0.0,0.0,-2.8627,0.0,0.0,0.0,0.0,0.0,0.0,0.0,0.0,0.0,0.0,-3.0544,-3.0447,-3.0443,-3.0344,-3.015,-3.0061,-2.9877,-2.9626,-2.9533,-2.9435,-2.9251,-2.9181,0.0,0.0,0.0,0.0,0.0,-2.8633,-2.8334,-2.7897,-2.7897,-2.756,-2.7083,-2.7083,-2.6906,-2.6657,-2.628,-2.5944,-2.5615,-2.5221,-2.4496,-2.3749,-2.3749,-2.3749,-2.3636,-2.3054,-2.2438,-2.1846,-2.1135,-2.072,-2.0295,-1.9901,-1.9798,-1.9592,-1.8874,-1.8715,-1.8501,-1.7743,-1.7578,-1.7688,-1.7852,-1.7468,-1.7079,-1.68,-1.6368,-1.5921,-1.5468,-1.541,-1.541,-1.541,-1.541,-1.541,-1.541,-1.541,-1.541,-1.541,-1.541,-1.541,-1.541,-1.541,-1.541,-1.541,-1.541,-1.541,-1.541,-1.541,-1.541,-1.541,-1.541,-1.541,0.0,2.7553,2.6767,2.6101,2.4393,2.1907,1.843,1.4514,0.0,0.3861,-0.0835,-0.5336,-1.0174,-1.3162,-1.5846,-1.8788,-2.0386,-2.1935,0.0,-2.4976,0.0,0.0,0.0,0.0,0.0,0.0,0.0,0.0,0.0,0.0,0.0,0.0,-3.0566,-3.0509,-3.0496,-3.0472,-3.0402,-3.0144,-3.0009,-2.9999,-2.9813,-2.9713,-2.9696,-2.9513,0.0,0.0,0.0,0.0,0.0,-2.8994,-2.8601,-2.7982,-2.7954,-2.747,-2.6791,-2.6758,-2.6725,-2.659,-2.5635,-2.5259,-2.5028,-2.3906,-2.3143,-2.2694,-2.2649,-2.2649,-2.2498,-2.1899,-2.1245,-2.0646,-2.0055,-1.985,-1.9798,-1.9798,-1.9747,-1.9527,-1.8768,-1.8555,-1.834,-1.7567,-1.7468,-1.7246,-1.6595,-1.6436,-1.6208,-1.5584,-1.541,-1.541,-1.541,-1.541,-1.541,-1.541,-1.541,-1.541,-1.541,-1.541,-1.541,-1.541,-1.541,-1.541,-1.541,-1.541,-1.541,-1.541,-1.541,-1.541,-1.541,-1.541,-1.541,-1.541,-1.541,-1.541,2.5361,0.0,2.576,2.4023,2.1451,1.8606,0.0,1.1889,0.7578,0.3457,-0.0845,-0.5037,-0.8742,-1.1957,-1.4828,-1.7469,-1.899,-2.0567,-2.2526,0.0,0.0,-2.7973,0.0,0.0,0.0,0.0,0.0,0.0,0.0,0.0,0.0,0.0,-3.057,-3.0499,-3.0544,-3.054,-3.0482,-3.0404,-3.0256,-2.9999,-2.9954,-2.9845,-2.9696,-2.9643,0.0,0.0,0.0,0.0,-2.8994,-2.8994,-2.8905,-2.87,-2.8394,-2.8002,-2.756,-2.7272,-2.6954,-2.6657,-2.6436,-2.5855,-2.4934,-2.342,-2.283,-2.2603,-2.21,-2.1946,-2.1899,-2.1744,-2.1245,-2.0746,-2.0597,-2.0194,-1.9798,-1.9798,-1.9371,-1.8768,-1.8015,-1.7413,-1.681,-1.6083,-1.5911,-1.6026,-1.6425,-1.6036,-1.5806,-1.6208,-1.5748,-1.541,-1.541,-1.541,-1.541,-1.541,-1.541,-1.541,-1.541,-1.541,-1.541,-1.541,-1.541,-1.541,-1.541,-1.541,-1.541,-1.541,-1.541,-1.541,-1.541,-1.541,-1.541,-1.541,-1.541,-1.541,2.3338,2.3107,2.3065,2.1702,1.9095,1.6164,1.3681,1.0709,0.7338,0.3443,0.0132,-0.3071,-0.6117,-0.9377,-1.2449,-1.4888,-1.6852,0.0,0.0,0.0,-2.5909,0.0,0.0,0.0,0.0,0.0,0.0,0.0,0.0,0.0,0.0,0.0,-3.0402,-3.036,-3.0525,-3.0566,-3.0502,-3.0535,-3.0451,-3.0232,-3.0232,-3.0087,-2.9829,-2.9729,0.0,0.0,0.0,0.0,-2.8994,-2.8797,-2.8633,-2.8456,-2.8057,-2.766,-2.7317,-2.7115,-2.6757,-2.6332,-2.6087,-2.5134,-2.3903,-2.298,-2.2314,-2.1752,-2.1403,-2.1051,-2.089,-2.1197,-2.0818,-2.0346,-2.0346,-1.9837,-1.9319,-1.9319,-1.8715,-1.8004,-1.7246,-1.6765,-1.6265,-1.5526,-1.541,-1.5526,-1.5921,-1.5633,-1.5526,-1.5921,-1.5642,-1.541,-1.541,-1.541,-1.541,-1.541,-1.505,-1.4991,-1.5352,-1.4746,-1.4628,-1.5352,-1.541,-1.541,-1.541,-1.541,-1.541,-1.541,-1.541,-1.541,-1.541,-1.541,-1.541,-1.541,-1.541,-1.541,2.1693,2.0267,1.9421,1.9108,1.6938,1.4245,1.173,0.9931,0.7624,0.3533,0.1132,-0.0994,-0.3716,-0.685,-0.9788,-1.2269,0.0,0.0,-2.0939,-2.315,0.0,0.0,0.0,0.0,0.0,0.0,0.0,0.0,0.0,0.0,0.0,0.0,0.0,-3.0163,-3.041,-3.0525,-3.0504,-3.0579,-3.0568,-3.0498,-3.0498,-3.0353,-3.0061,-2.9877,-2.9661,0.0,0.0,0.0,-2.8975,-2.8633,-2.829,-2.7954,-2.753,-2.7147,-2.6791,-2.6657,-2.6332,-2.5888,-2.5205,-2.4013,-2.277,-2.2498,-2.1704,-2.0795,-2.0696,-2.0245,-1.9901,-2.0333,-2.0144,-1.9747,-1.9643,-1.9254,-1.8821,-1.8715,-1.8124,-1.7413,-1.6652,-1.6436,-1.6151,-1.5526,-1.541,-1.541,-1.541,-1.5294,-1.5235,-1.5235,-1.5108,-1.505,-1.505,-1.505,-1.505,-1.5167,-1.4628,-1.451,-1.5352,-1.4025,-1.3786,-1.5108,-1.5235,-1.5235,-1.5235,-1.5235,-1.5167,-1.505,-1.505,-1.505,-1.505,-1.5167,-1.5235,-1.5235,-1.5235,-1.5294,1.9522,1.7015,1.5184,1.5816,1.4615,1.2643,1.0095,0.8201,0.6213,0.327,0.0666,-0.1925,-0.4623,-0.6802,-0.9029,0.0,0.0,-1.7334,0.0,0.0,0.0,0.0,0.0,0.0,0.0,0.0,0.0,0.0,0.0,0.0,0.0,0.0,0.0,-3.0009,-3.0175,-3.0337,-3.0496,-3.0575,-3.0563,-3.0498,-3.0498,-3.0443,-3.0343,-3.0299,-3.0071,0.0,0.0,-2.9357,-2.8994,-2.8929,-2.87,-2.829,-2.7936,-2.756,-2.7115,-2.6385,-2.6068,-2.5799,-2.4271,-2.3576,-2.3098,-2.1582,-2.0944,-2.0696,-2.0156,-1.9901,-1.9695,-1.919,-1.9411,-1.9643,-1.9044,-1.9254,-1.9475,-1.8874,-1.8124,-1.7413,-1.6652,-1.6036,-1.5526,-1.541,-1.541,-1.541,-1.541,-1.4815,-1.4392,-1.4392,-1.3786,-1.3373,-1.3373,-1.3373,-1.3614,-1.4323,-1.4264,-1.451,-1.5352,-1.4569,-1.4145,-1.4392,-1.4392,-1.4392,-1.4392,-1.4392,-1.4085,-1.3364,-1.3373,-1.3373,-1.3373,-1.4025,-1.4392,-1.4392,-1.4392,-1.4756,1.8562,1.57,1.3229,1.2816,1.1783,1.0483,0.885,0.7126,0.5311,0.3141,0.06,-0.1994,-0.4172,0.0,-0.9087,-1.2468,0.0,0.0,0.0,0.0,0.0,0.0,0.0,0.0,0.0,0.0,0.0,0.0,0.0,0.0,0.0,0.0,0.0,0.0,-2.9195,-2.9658,-3.0335,-3.0159,-3.0225,-3.0548,-3.0548,-3.0451,-3.0294,-3.0294,-3.0084,-2.9696,0.0,-2.9514,-2.9203,-2.8971,-2.87,-2.8368,-2.7776,-2.7282,-2.6721,-2.555,-2.4918,-2.4489,-2.3419,-2.2637,-2.1918,-2.1077,-2.0547,-2.0144,-1.9411,-1.9202,-1.898,-1.7841,-1.834,-1.9044,-1.8286,-1.8058,-1.7961,-1.7578,-1.6968,-1.6301,-1.5979,-1.5274,-1.4746,-1.4746,-1.4392,-1.4085,-1.4085,-1.3786,-1.3545,-1.3545,-1.3252,-1.3009,-1.3009,-1.3009,-1.313,-1.3485,-1.3174,-1.3235,-1.4025,-1.2992,-1.2634,-1.3485,-1.3545,-1.3545,-1.3545,-1.3545,-1.3364,-1.3009,-1.3009,-1.3009,-1.3009,-1.3364,-1.3545,-1.3545,-1.3545,-1.3734,1.7339,1.4438,1.1783,1.0071,0.9261,0.8612,0.7519,0.6094,0.4527,0.2741,0.0267,-0.2131,-0.3723,-0.6367,0.0,-1.2719,0.0,0.0,0.0,0.0,0.0,0.0,0.0,0.0,0.0,0.0,0.0,0.0,0.0,0.0,0.0,0.0,0.0,0.0,-2.8148,-2.8806,-2.9818,-2.966,-2.9921,-3.0584,-3.0586,-3.0489,-3.0269,-3.0267,-3.0101,-2.9826,-2.978,-2.9661,-2.9435,-2.899,-2.8627,-2.8288,-2.7572,-2.6737,-2.5834,-2.4634,-2.3719,-2.301,-2.2438,-2.1609,-2.0746,-2.0597,-2.0194,-1.9643,-1.8927,-1.8715,-1.8328,-1.6676,-1.7047,-1.7818,-1.7457,-1.6912,-1.6404,-1.6234,-1.5661,-1.5031,-1.4864,-1.4323,-1.3906,-1.3906,-1.3425,-1.3009,-1.3009,-1.2826,-1.2704,-1.2704,-1.2581,-1.2458,-1.2458,-1.2458,-1.252,-1.2704,-1.2143,-1.2081,-1.2696,-1.16,-1.1358,-1.2397,-1.2642,-1.2704,-1.2704,-1.2704,-1.2634,-1.2458,-1.2458,-1.2458,-1.2458,-1.2634,-1.2704,-1.2704,-1.2704,-1.2826,1.4992,1.2394,0.997,0.7603,0.7562,0.7623,0.5913,0.4785,0.3595,0.174,-0.0735,-0.2872,0.0,-0.6828,-0.9554,-1.0581,0.0,0.0,0.0,0.0,0.0,0.0,0.0,0.0,0.0,0.0,0.0,0.0,0.0,0.0,0.0,0.0,0.0,0.0,0.0,-2.7893,-2.871,-2.9251,-2.9831,-3.0504,-3.0564,-3.0562,-3.0482,-3.0482,-3.0356,-3.0163,-3.0032,-2.9861,-2.9624,-2.9037,-2.8573,-2.8144,-2.7519,-2.6097,-2.43,-2.3758,-2.2818,-2.1744,-2.1113,-2.0894,-2.0696,-2.0042,-1.985,-1.9643,-1.8927,-1.8715,-1.8263,-1.5981,-1.5476,-1.5716,-1.6404,-1.6486,-1.6208,-1.5533,-1.477,-1.4013,-1.3295,-1.313,-1.307,-1.307,-1.307,-1.3009,-1.3009,-1.2389,-1.1888,-1.1888,-1.1226,-1.0744,-1.0744,-1.0744,-1.1052,-1.1834,-1.1834,-1.1834,-1.1896,-1.1772,-1.1469,-1.0807,-1.1469,-1.1888,-1.1888,-1.1888,-1.1531,-1.0807,-1.0744,-1.0744,-1.0744,-1.1531,-1.1888,-1.1888,-1.1888,-1.2266,1.4705,1.1913,0.9301,0.7877,0.6924,0.6071,0.4806,0.3806,0.2806,0.154,-0.0803,0.0,0.0,0.0,-1.0155,0.0,0.0,0.0,0.0,0.0,0.0,0.0,0.0,0.0,0.0,0.0,0.0,0.0,0.0,0.0,0.0,0.0,0.0,0.0,0.0,-2.6974,-2.7859,-2.8166,-2.8753,-2.9639,-3.0242,-3.0551,-3.0562,-3.0562,-3.0495,-3.0385,-3.0334,-3.0087,-2.9677,-2.9603,-2.9047,-2.8208,-2.7195,-2.5746,-2.4138,-2.3673,-2.2232,-2.0406,-2.0194,-1.9517,-1.8797,-1.8489,-1.8436,-1.8286,-1.7578,-1.698,-1.6331,-1.4983,-1.4236,-1.393,-1.4236,-1.4287,-1.4209,-1.393,-1.3631,-1.3339,-1.3061,-1.2634,-1.2266,-1.2266,-1.1841,-1.1483,-1.1483,-1.1233,-1.1045,-1.1045,-1.08,-1.0624,-1.0624,-1.0624,-1.0744,-1.1045,-1.1045,-1.1045,-1.1045,-1.1045,-1.0926,-1.0624,-1.0863,-1.1045,-1.1045,-1.1045,-1.0926,-1.0624,-1.0624,-1.0624,-1.0624,-1.0926,-1.1045,-1.1045,-1.1045,-1.1233,1.3947,1.1453,0.9191,0.7562,0.647,0.5415,0.3946,0.3145,0.2344,0.1141,-0.0804,-0.3072,-0.5789,0.0,0.0,0.0,0.0,0.0,0.0,0.0,0.0,0.0,0.0,0.0,0.0,0.0,0.0,0.0,0.0,0.0,0.0,0.0,0.0,0.0,0.0,-2.5974,-2.697,-2.7227,-2.779,-2.8635,-2.9491,-3.0115,-3.0501,-3.05,-3.0535,-3.0554,-3.0451,-3.0194,-2.9855,-2.9687,-2.8984,-2.7911,-2.6354,-2.4872,-2.3477,-2.2613,-2.0917,-1.9036,-1.9036,-1.8412,-1.7501,-1.6982,-1.6794,-1.656,-1.5292,-1.452,-1.3915,-1.291,-1.2204,-1.1727,-1.1487,-1.1997,-1.2634,-1.2634,-1.2458,-1.2212,-1.2212,-1.1779,-1.1344,-1.1087,-1.0598,-1.011,-0.9843,-1.004,-1.0174,-1.0174,-1.0428,-1.0624,-1.0624,-1.0624,-1.0624,-1.0624,-1.0624,-1.0624,-1.0624,-1.0624,-1.0624,-1.0624,-1.0624,-1.0624,-1.0624,-1.0624,-1.0624,-1.0624,-1.0624,-1.0624,-1.0624,-1.0624,-1.0624,-1.0624,-1.0624,-1.0624,1.243,1.1001,0.9654,0.6268,0.6075,0.599,0.334,0.2678,0.2211,0.0337,-0.0739,-0.2143,-0.4888,-0.5359,0.0,0.0,0.0,0.0,0.0,0.0,0.0,0.0,0.0,0.0,0.0,0.0,0.0,0.0,0.0,0.0,0.0,0.0,0.0,0.0,0.0,0.0,-2.5924,-2.6567,-2.7103,-2.7568,-2.8245,-2.9174,-3.0285,-3.0273,-3.0427,-3.0671,-3.0335,-3.019,-3.0131,-2.9153,-2.8208,-2.7095,-2.5013,-2.339,-2.2026,-2.0338,-1.8826,-1.7578,-1.7578,-1.7578,-1.7258,-1.5592,-1.5078,-1.4601,-1.2226,-1.145,-1.1167,-0.9655,-0.918,-0.9,-0.821,-0.9863,-1.1764,-1.1764,-1.1163,-1.0561,-1.0561,-1.0561,-1.0301,-0.9466,-0.9274,-0.9011,-0.8156,-0.8742,-0.9274,-0.9274,-1.0047,-1.0561,-1.0561,-1.0561,-1.0561,-1.0561,-1.0561,-1.0561,-1.0624,-1.0624,-1.0624,-1.0624,-1.0624,-1.0624,-1.0624,-1.0624,-1.0624,-1.0624,-1.0624,-1.0624,-1.0624,-1.0624,-1.0624,-1.0624,-1.0624,-1.0624,1.3074,1.0705,0.8522,0.7478,0.5975,0.4461,0.2998,0.2671,0.2008,0.0,-0.1676,-0.2743,-0.414,0.0,0.0,0.0,0.0,0.0,0.0,0.0,0.0,0.0,0.0,0.0,0.0,0.0,0.0,0.0,0.0,0.0,0.0,0.0,0.0,0.0,0.0,0.0,-2.1998,-2.3493,-2.4445,-2.4883,-2.6411,-2.7828,-2.9177,-2.9171,-2.9475,-2.9991,-2.9898,-2.973,-2.9469,-2.825,-2.7642,-2.7285,-2.4922,-2.3254,-2.1998,-2.0169,-1.8,-1.5991,-1.5991,-1.5255,-1.42,-1.31,-1.2715,-1.2466,-1.111,-1.0319,-0.9769,-0.9358,-0.8815,-0.8334,-0.8086,-0.8533,-0.9105,-0.9105,-0.8924,-0.8801,-0.8801,-0.8801,-0.8871,-0.9204,-0.8812,-0.8484,-0.8877,-0.8619,-0.842,-0.842,-0.8608,-0.8801,-0.8801,-0.8801,-0.9,-0.9594,-0.9658,-0.9913,-1.0561,-1.0624,-1.0624,-1.0624,-1.0624,-1.0624,-1.0624,-1.0624,-1.0624,-1.0624,-1.0624,-1.0624,-1.0624,-1.0624,-1.0624,-1.0624,-1.0624,-1.0624,1.2614,1.0283,0.8318,0.7632,0.5967,0.4106,0.2528,0.0,0.0,0.0,-0.1477,-0.2143,-0.3737,0.0,0.0,0.0,0.0,0.0,0.0,0.0,0.0,0.0,0.0,0.0,0.0,0.0,0.0,0.0,0.0,0.0,0.0,0.0,0.0,0.0,0.0,0.0,-1.8809,-2.0301,-2.1403,-2.2189,-2.3314,-2.4797,-2.6538,-2.7916,-2.8976,-2.9758,-2.9916,-2.9394,-2.8398,-2.7415,-2.6674,-2.5883,-2.3478,-2.1939,-2.088,-1.8976,-1.6993,-1.5361,-1.5361,-1.4339,-1.2911,-1.2398,-1.1781,-1.0863,-0.8954,-0.8055,-0.7683,-0.7683,-0.7312,-0.6942,-0.6942,-0.6942,-0.7134,-0.7837,-0.8027,-0.8027,-0.8027,-0.8027,-0.8027,-0.8226,-0.7832,-0.7567,-0.7707,-0.7572,-0.7502,-0.7502,-0.7762,-0.8027,-0.8027,-0.8027,-0.8221,-0.8748,-0.8812,-0.9005,-0.9518,-0.9582,-0.9582,-0.9582,-0.9582,-0.9716,-1.0047,-1.0434,-1.0624,-1.0624,-1.0624,-1.0428,-1.011,-1.011,-0.9913,-0.9582,-0.9913,-1.011,1.1436,0.9929,0.8787,0.7148,0.5905,0.4409,0.1866,0.0604,-0.0202,-0.1012,0.0,-0.0874,-0.3274,0.0,0.0,0.0,0.0,0.0,0.0,0.0,0.0,0.0,0.0,0.0,0.0,0.0,0.0,0.0,0.0,0.0,0.0,0.0,0.0,0.0,0.0,0.0,-1.5775,-1.6882,-1.7912,0.0,-1.9166,-2.0246,-2.2292,-2.6092,-2.8484,-2.9659,-3.0018,-2.9142,-2.7355,-2.6926,-2.5596,-2.3655,-2.1566,-2.0256,-1.929,-1.7157,-1.5557,-1.4423,-1.4214,-1.3042,-1.1733,-1.1682,-1.0652,-0.8749,-0.5624,-0.47,-0.477,-0.477,-0.484,-0.4913,-0.4913,-0.4913,-0.5299,-0.6902,-0.7493,-0.7772,-0.7772,-0.7772,-0.7507,-0.6719,-0.6593,-0.6404,-0.5763,-0.6145,-0.6593,-0.6593,-0.7242,-0.7767,-0.7767,-0.7767,-0.7767,-0.7897,-0.7897,-0.7897,-0.8027,-0.8027,-0.8027,-0.8027,-0.8027,-0.8355,-0.9139,-1.0047,-1.0491,-1.0624,-1.0624,-1.0238,-0.9402,-0.9402,-0.9005,-0.8285,-0.9069,-0.9402,1.213,0.9867,0.8054,0.6953,0.495,0.2887,0.1615,0.0606,-0.0067,-0.027,-0.0674,-0.1213,0.0,0.0,0.0,0.0,0.0,0.0,0.0,0.0,0.0,0.0,0.0,0.0,0.0,0.0,0.0,0.0,0.0,0.0,0.0,0.0,0.0,0.0,0.0,-1.1624,-0.9611,-1.2225,-1.3055,0.0,-1.3468,-1.443,-1.5081,-2.1365,-2.5743,-2.8388,-2.8485,-2.8704,-2.8938,-2.8115,-2.6047,-2.3384,-2.2871,-2.1895,-2.0297,-1.6929,-1.2112,-0.704,-0.5227,-0.3384,-0.1874,-0.1789,-0.1543,-0.0966,0.0455,0.0393,-0.0131,-0.0131,-0.0661,-0.113,-0.113,-0.113,-0.1261,-0.1654,-0.386,-0.5981,-0.5981,-0.5981,-0.5903,-0.5745,-0.5693,-0.6055,-0.7215,-0.6453,-0.5697,-0.5686,-0.5818,-0.5951,-0.5951,-0.5951,-0.6207,-0.6915,-0.6981,-0.7242,-0.7962,-0.8027,-0.8027,-0.8027,-0.8027,-0.8091,-0.8291,-0.9134,-0.9913,-1.0561,-1.0624,-1.0498,-1.0301,-1.0301,-1.0238,-1.004,-1.0238,-1.0301,1.2358,0.9926,0.7603,0.5834,0.4375,0.2956,0.1617,0.0944,0.0472,0.0067,-0.0337,0.0,0.0,0.0,0.0,0.0,0.0,0.0,0.0,0.0,0.0,0.0,0.0,0.0,0.0,0.0,0.0,0.0,0.0,0.0,0.0,0.0,0.0,0.0,-0.7319,-0.7374,-0.594,-0.7106,-0.7274,-0.6384,-0.6495,-0.6744,-0.725,-1.2754,-1.6168,-1.7682,-1.554,-1.4379,-1.4217,-1.6757,-1.4864,-1.0452,-1.1225,-1.113,-1.0221,-0.786,-0.5351,-0.2654,0.0242,0.2984,0.5275,0.5279,0.5319,0.549,0.618,0.6093,0.5592,0.4727,0.357,0.2589,0.2589,0.2594,0.2601,0.2601,-0.02,-0.2802,-0.2802,-0.2802,-0.3002,-0.3533,-0.3675,-0.4087,-0.5236,-0.5446,-0.5386,-0.5379,-0.5379,-0.5379,-0.5379,-0.5379,-0.5572,-0.602,-0.6083,-0.6276,-0.6732,-0.6728,-0.6728,-0.6728,-0.6728,-0.6924,-0.7372,-0.7827,-0.8479,-0.932,-0.9326,-0.9128,-0.8731,-0.8731,-0.8731,-0.8731,-0.9192,-0.9582,1.243,0.9792,0.7229,0.502,0.4204,0.0,0.2083,0.1617,0.1349,0.0607,0.0,0.0,0.0,0.0,0.0,0.0,0.0,0.0,0.0,0.0,0.0,0.0,0.0,0.0,0.0,0.0,0.0,0.0,0.0,0.0,0.0,0.0,-0.2138,-0.2004,-0.2992,-0.3247,-0.265,-0.215,-0.1592,-0.0804,0.0735,0.1397,0.1109,-0.1294,-0.3593,-0.552,-0.1782,0.1455,0.3668,-0.182,-0.0457,0.5128,0.5344,0.5097,0.4612,0.4728,0.3776,0.2792,0.5486,0.8366,1.0788,1.048,1.0319,1.0408,1.0779,1.0829,1.0408,0.9052,0.7497,0.6244,0.6244,0.6268,0.6292,0.6292,0.3972,0.1646,0.1061,0.093,0.0664,-0.0333,-0.0799,-0.1199,-0.1803,-0.3147,-0.4231,-0.4434,-0.464,-0.4776,-0.4776,-0.4846,-0.4913,-0.4903,-0.5243,-0.5376,-0.5369,-0.5432,-0.5432,-0.5432,-0.5432,-0.569,-0.6465,-0.6465,-0.6789,-0.7507,-0.7832,-0.7632,-0.6915,-0.6915,-0.6915,-0.6915,-0.7632,-0.842,1.257,0.9362,0.6809,0.6461,0.5156,0.3936,0.0,0.0,0.2499,0.0,0.0,0.0,0.0,0.0,0.0,0.0,0.0,0.0,0.0,0.0,0.0,0.0,0.0,0.0,0.0,0.0,0.0,0.0,0.0,0.0,0.0,-0.0332,0.0,0.0733,-0.0791,-0.0197,0.2917,0.1504,0.2633,0.6266,0.7154,0.8434,1.0035,1.341,0.8861,-0.1722,-0.1122,0.3006,0.913,0.6891,0.7843,1.148,1.9057,2.0762,1.8638,1.6373,1.5607,1.5694,1.5224,1.5209,1.516,1.348,1.2932,1.2787,1.2315,1.1613,1.1032,1.1185,1.049,0.9718,0.9718,0.9725,0.9731,0.9731,0.9373,0.8223,0.5279,0.4703,0.464,0.45,0.3149,0.1936,0.1332,0.0999,0.0466,-0.0531,-0.1598,-0.2267,-0.2267,-0.2741,-0.3082,-0.308,-0.4436,-0.5393,-0.5389,-0.5389,-0.5389,-0.5389,-0.5389,-0.5452,-0.5572,-0.5572,-0.5631,-0.5756,-0.7251,-0.7962,-0.7832,-0.7832,-0.7832,-0.7832,-0.7962,-0.8091,1.1987,0.9594,0.8037,0.7546,0.6461,0.5362,0.4815,0.4084,0.3286,0.0,0.0,0.0,0.0,0.0,0.0,0.0,0.0,0.0,0.0,0.0,0.0,0.0,0.0,0.0,0.0,0.0,0.0,0.0,0.0,0.0,0.2255,0.2708,0.3166,0.3504,0.3203,0.3846,0.5387,0.6081,0.8224,1.1924,1.3124,1.484,1.6927,1.9342,1.7111,1.1552,1.4825,1.8151,2.1191,2.091,2.0587,2.0601,2.4086,2.3693,2.1129,1.9908,1.8963,1.8189,1.7702,1.7049,1.6355,1.5468,1.5211,1.5191,1.4726,1.4601,1.461,1.4712,1.4107,1.342,1.342,1.3087,1.2605,1.2284,1.2182,1.1721,0.9842,0.844,0.7302,0.6535,0.6001,0.5595,0.5321,0.5252,0.4782,0.3255,0.2591,0.1861,0.0866,0.0467,0.02,-0.0133,-0.0866,-0.1666,-0.2333,-0.24,-0.2669,-0.3345,-0.3411,-0.3549,-0.3887,-0.484,-0.5386,-0.5379,-0.6152,-0.6535,-0.6535,-0.6535,-0.6789,-0.7242,-0.7242,-0.7502,1.1939,1.0268,0.9128,0.8495,0.7695,0.6815,0.0,0.0,0.0,0.0,0.0,0.0,0.0,0.0,0.0,0.0,0.0,0.0,0.0,0.0,0.0,0.0,0.0,0.0,0.0,0.0,0.0,0.0,0.0,0.0,0.5045,0.5806,0.631,0.631,0.7222,0.7896,0.808,1.0798,1.3597,1.6297,1.7705,1.9623,2.2017,2.2496,2.2688,2.2936,2.7343,2.9505,2.9961,3.0078,2.8934,2.7038,2.5907,2.3838,2.1535,2.1605,2.0563,1.9182,1.9272,1.8774,1.8078,1.7918,1.7866,1.7837,1.7465,1.7734,1.8124,1.7966,1.7427,1.6927,1.676,1.6245,1.5633,1.519,1.5099,1.4608,1.2981,1.1245,0.9681,0.844,0.8431,0.8544,0.8366,0.8122,0.7531,0.6264,0.5932,0.5332,0.4,0.3936,0.3867,0.3392,0.3392,0.2856,0.1459,0.1393,0.0996,0.0067,-0.04,-0.0933,-0.1535,-0.2876,-0.3889,-0.45,-0.4486,-0.4818,-0.5432,-0.5432,-0.5752,-0.6396,-0.6396,-0.6724,1.29,1.1129,0.9289,0.9231,0.8609,0.7919,0.0,0.0,0.0,0.0,0.0,0.0,0.0,0.0,0.0,0.0,0.0,0.0,0.0,0.0,0.0,0.0,0.0,0.0,0.0,0.0,0.0,0.0,0.0,0.0,0.7757,0.8559,0.8977,0.8977,1.0451,1.1639,1.2462,1.5582,1.7771,1.902,1.9922,2.1886,2.4789,2.4499,2.5313,2.7004,2.7519,2.8717,3.0234,2.8633,2.7888,2.7581,2.5804,2.4326,2.3204,2.3471,2.2773,2.1769,2.2238,2.2326,2.2167,2.147,2.1258,2.1132,2.0415,2.0194,2.024,2.0157,2.01,1.993,1.9459,1.9281,1.9218,1.9218,1.9166,1.7985,1.3562,1.2478,1.2206,1.1442,1.0684,0.9931,0.9237,0.8516,0.7962,0.7897,0.7358,0.6959,0.6889,0.7386,0.7741,0.7671,0.7671,0.7003,0.5272,0.514,0.5087,0.5049,0.3418,0.2204,0.1599,0.1466,0.0333,-0.1933,-0.1999,-0.3137,-0.5376,-0.5376,-0.5439,-0.5491,-0.5491,-0.5491,1.3135,1.194,1.0771,1.0268,0.9491,0.8828,0.8854,0.8388,0.0,0.0,0.0,0.0,0.0,0.0,0.0,0.0,0.0,0.0,0.0,0.0,0.0,0.0,0.0,0.0,0.0,0.0,0.0,0.0,0.0,0.0,0.9603,1.0913,1.1658,1.1658,1.3152,1.4802,1.6533,1.7659,1.9037,2.0636,2.0907,2.2586,2.5379,2.5248,2.633,2.8278,2.8569,2.9098,2.9746,2.9773,2.9238,2.8317,2.761,2.6543,2.5355,2.538,2.5104,2.4692,2.4471,2.4396,2.432,2.393,2.3968,2.4058,2.3703,2.3792,2.392,2.3538,2.3447,2.3335,2.2776,2.2628,2.2464,2.1741,2.1233,2.046,1.879,1.7013,1.5302,1.4108,1.328,1.2663,1.2377,1.169,1.1044,1.0454,1.0184,0.9674,0.8606,0.8628,0.8592,0.8042,0.7977,0.7777,0.7111,0.7046,0.6915,0.6531,0.5196,0.4334,0.4132,0.4084,0.3685,0.2808,0.1668,-0.0467,-0.3685,-0.484,-0.5386,-0.5382,-0.5382,-0.5382,1.2835,1.2037,1.1277,0.0,1.0129,0.9705,0.9705,0.0,0.0,0.0,0.0,0.0,0.0,0.0,0.0,0.0,0.0,0.0,0.0,0.0,0.0,0.0,0.0,0.0,0.0,0.0,0.0,0.0,0.0,0.0,1.137,1.2679,1.3768,1.4514,1.5753,1.7258,1.9,1.9405,2.042,2.205,2.2557,2.3989,2.6185,2.6529,2.7452,2.8838,2.9362,2.9633,2.9742,3.0232,2.9863,2.8964,2.8525,2.7778,2.6908,2.6746,2.6637,2.66,2.633,2.6258,2.6242,2.618,2.63,2.6424,2.6285,2.6411,2.6539,2.5988,2.5829,2.5704,2.5191,2.5038,2.4768,2.3803,2.3316,2.2981,2.2626,2.0603,1.8494,1.7245,1.6422,1.5808,1.5545,1.4869,1.4123,1.328,1.299,1.2337,1.1022,1.0622,1.0273,0.973,0.9666,0.9476,0.8913,0.8849,0.8458,0.7483,0.6702,0.6252,0.626,0.6288,0.5969,0.5439,0.4215,0.2401,-0.0,-0.2004,-0.3416,-0.4161,-0.4161,-0.4298,0.0,0.0,0.0,0.0,0.0,0.0,1.0624,0.0,0.0,0.0,0.0,0.0,0.0,0.0,0.0,0.0,0.0,0.0,0.0,0.0,0.0,0.0,0.0,0.0,0.0,0.0,0.0,0.0,0.0,1.3061,1.3122,1.3846,1.5352,1.7567,1.8328,1.9097,1.985,2.1067,2.2238,2.3366,2.4906,2.6219,2.7317,2.8337,2.8796,2.886,2.9773,3.0223,3.0274,2.9748,2.957,2.9531,2.8418,2.7946,2.785,2.7578,2.7452,2.7444,2.781,2.7942,2.7976,2.8179,2.8229,2.8188,2.7994,2.7936,2.7805,2.7282,2.7126,2.6999,2.6468,2.6302,2.6101,2.5405,2.5538,2.5546,2.4484,2.2995,2.1608,2.0806,2.0036,1.9232,1.853,1.7693,1.6968,1.625,1.5548,1.4878,1.4264,1.3502,1.3061,1.3009,1.3009,1.2312,1.0732,1.0544,0.9857,0.8215,0.8091,0.8091,0.8027,0.8027,0.7233,0.5526,0.546,0.5481,0.5459,0.3074,0.0732,-0.1599,-0.1665,-0.2002,1.2757,0.0,0.0,0.0,0.0,0.0,0.0,0.0,0.0,0.0,0.0,0.0,0.0,0.0,0.0,0.0,0.0,0.0,0.0,0.0,0.0,0.0,0.0,0.0,0.0,0.0,0.0,0.0,1.4309,1.4896,1.5408,1.6239,1.7213,1.834,1.9049,1.9965,2.1183,2.2383,2.3558,2.4697,2.5746,2.6638,2.7317,2.8022,2.8612,2.9031,2.9493,2.9984,3.0436,3.0395,3.0449,3.0508,3.0098,2.9916,2.9885,2.9718,2.964,2.9557,2.9179,2.9061,2.9026,2.8899,2.8695,2.8516,2.8709,2.8594,2.8318,2.8004,2.7897,2.7733,2.7043,2.6582,2.6252,2.6049,2.6083,2.6067,2.5791,2.5158,2.4247,2.2819,2.1625,2.0785,2.058,1.9585,1.8614,1.8,1.7733,1.7148,1.595,1.5119,1.4436,1.3835,1.3339,1.2818,1.2373,1.2312,1.1873,1.0815,1.0173,0.9551,0.8941,0.835,0.7762,0.7302,0.7302,0.7307,0.726,0.5355,0.4092,0.3349,0.2071,0.1335,1.2089,1.1663,1.117,0.0,0.0,0.0,1.0624,1.0624,0.0,0.0,0.0,0.0,0.0,0.0,0.0,0.0,0.0,0.0,0.0,0.0,0.0,0.0,0.0,0.0,0.0,0.0,0.0,0.0,1.5991,1.6455,1.6903,1.7904,1.8679,1.9113,2.0054,2.1032,2.2016,2.3199,2.424,2.5141,2.6455,2.7247,2.7589,2.8363,2.8938,2.9364,2.9597,3.0013,3.051,3.0581,3.0693,3.0801,3.0781,3.0742,3.0682,3.0574,3.0509,3.0432,3.0023,2.9893,2.9829,2.9561,2.9345,2.9194,2.9307,2.9169,2.8916,2.8755,2.8609,2.8388,2.7794,2.7525,2.7356,2.703,2.7074,2.7135,2.6999,2.6813,2.6219,2.4625,2.3588,2.2993,2.2993,2.2183,2.1335,2.074,2.0213,1.9419,1.8313,1.7312,1.6493,1.6012,1.5061,1.4296,1.399,1.3657,1.3183,1.2328,1.1811,1.1315,1.0829,1.0059,0.9418,0.9035,0.8731,0.8538,0.8511,0.7125,0.6358,0.609,0.5272,0.4538,1.0863,1.0744,1.0681,0.0,0.0,0.0,1.0744,1.0807,1.087,0.0,0.0,0.0,0.0,0.0,0.0,0.0,0.0,0.0,0.0,0.0,0.0,0.0,0.0,0.0,0.0,0.0,1.6172,1.7622,1.7797,1.7895,1.795,1.9141,1.9864,1.9915,2.1156,2.209,2.2597,2.3751,2.4619,2.518,2.7023,2.7926,2.801,2.8952,2.9494,2.9678,2.9908,3.0174,3.0463,3.0494,3.0586,3.0703,3.082,3.0801,3.0702,3.0637,3.0563,3.0506,3.0417,3.0398,3.0355,3.0122,3.0042,2.9999,2.9832,2.9662,2.9513,2.9454,2.9225,2.8929,2.8565,2.8725,2.8815,2.8174,2.8237,2.8394,2.8093,2.7982,2.7596,2.632,2.5684,2.5319,2.5297,2.4776,2.421,2.3576,2.2505,2.1458,2.082,1.9597,1.8835,1.8835,1.7566,1.644,1.5638,1.4876,1.4085,1.3183,1.313,1.307,1.3009,1.2328,1.1571,1.0801,1.0072,0.9615,0.9497,0.8458,0.7752,0.7339,0.7787,0.7138,0.0,0.0,0.0,0.0,0.0,0.0,1.1717,1.2089,1.252,0.0,0.0,0.0,0.0,0.0,0.0,0.0,0.0,0.0,0.0,0.0,0.0,0.0,0.0,0.0,0.0,0.0,1.749,1.8436,1.9044,1.9619,2.0169,2.0434,2.0805,2.1301,2.21,2.2772,2.3287,2.4433,2.5389,2.6235,2.737,2.8047,2.8342,2.906,2.9414,2.9493,2.9845,3.0047,3.0109,3.0445,3.0625,3.0703,3.0723,3.0781,3.0839,3.0657,3.0602,3.0564,3.0448,3.0398,3.0398,3.0343,3.0311,3.0311,3.0273,3.0247,3.0133,2.9748,2.9334,2.8994,2.8887,2.8929,2.8952,2.8815,2.8839,2.8881,2.8791,2.8515,2.8201,2.7958,2.7006,2.6164,2.5908,2.5028,2.421,2.3576,2.2906,2.2225,2.1574,2.0735,2.0202,2.0202,1.8992,1.7901,1.7115,1.6419,1.5439,1.4025,1.3974,1.3666,1.3009,1.2818,1.2696,1.2504,1.2381,1.1943,1.1308,0.9099,0.8264,0.8798,0.827,0.7837,0.0,0.0,0.0,1.1226,0.0,0.0,0.0,1.2696,1.3009,1.3009,0.0,0.0,0.0,0.0,0.0,0.0,0.0,0.0,0.0,0.0,0.0,0.0,0.0,0.0,0.0,0.0,1.8596,1.9658,2.0357,2.0904,2.1245,2.1561,2.1894,2.2193,2.2815,2.355,2.4327,2.4918,2.577,2.6901,2.7601,2.8139,2.8615,2.9148,2.9513,2.9713,2.9908,3.0075,3.0228,3.0412,3.0563,3.0657,3.076,3.084,3.0879,3.0706,3.0626,3.0583,3.0487,3.0417,3.0398,3.0398,3.0398,3.0398,3.0398,3.0311,3.0122,2.9799,2.9533,2.9334,2.9225,2.9181,2.9178,2.904,2.8994,2.8994,2.8994,2.8839,2.8633,2.8446,2.7875,2.7274,2.6757,2.5822,2.5089,2.4808,2.4287,2.383,2.3488,2.2642,2.2052,2.2052,2.0571,1.9354,1.8649,1.7924,1.707,1.5975,1.5918,1.5573,1.4777,1.4346,1.3811,1.3009,1.3009,1.3,1.2984,1.1293,1.0725,1.1085,1.0662,1.0286,0.0,0.0,0.0,0.0,0.0,1.2381,0.0,0.0,0.0,1.3485,0.0,0.0,0.0,0.0,0.0,0.0,0.0,0.0,0.0,0.0,0.0,0.0,0.0,0.0,0.0,1.898,1.9606,2.0696,2.1342,2.1758,2.1899,2.2406,2.2785,2.3039,2.3493,2.4266,2.5335,2.5335,2.6038,2.7409,2.7736,2.8254,2.8924,2.9254,2.9607,2.9954,2.9984,3.0122,3.0323,3.0386,3.0482,3.0614,3.0777,3.0877,3.0879,3.0742,3.0652,3.0584,3.0518,3.0467,3.0398,3.0398,3.0398,3.0398,3.0398,3.0209,2.9969,2.9796,2.9731,2.9661,2.9494,2.9454,2.9414,2.9203,2.9138,2.9138,2.9138,2.9138,2.9034,2.8706,2.856,2.8254,2.756,2.674,2.6177,2.6123,2.5656,2.5303,2.5221,2.4302,2.3676,2.3676,2.2066,2.0699,1.994,1.9236,1.846,1.7622,1.7578,1.7357,1.6765,1.6079,1.5022,1.3468,1.3597,1.3846,1.4213,1.3726,1.3364,1.3252,1.307,1.261,0.0,0.0,0.0,0.0,1.2328,0.0,0.0,0.0,1.5118,1.5118,0.0,0.0,0.0,0.0,0.0,0.0,0.0,0.0,0.0,0.0,0.0,0.0,0.0,0.0,0.0,0.0,2.0646,2.0795,2.1342,2.1946,2.2543,2.2649,2.3157,2.4168,2.4266,2.4816,2.5888,2.5924,2.6573,2.784,2.7869,2.8402,2.9314,2.9373,2.9532,2.9729,2.9924,3.0013,3.0075,3.0369,3.0529,3.0604,3.0626,3.0749,3.0879,3.0742,3.0657,3.0593,3.0518,3.0467,3.0398,3.0398,3.0398,3.0398,3.0398,3.0209,2.9999,2.9969,2.9845,2.9696,2.9678,2.9661,2.9661,2.9625,2.9625,2.9625,2.9625,2.9625,2.9607,2.957,2.9122,2.8555,2.7936,2.7365,2.6862,2.6505,2.6044,2.5595,2.5243,2.4657,2.4292,2.4292,2.3216,2.1918,2.0624,1.9915,1.9024,1.7677,1.7578,1.7578,1.7468,1.7401,1.6634,1.5071,1.5756,1.5487,1.4213,1.4815,1.4746,1.4034,1.3304,1.294,0.0,0.0,0.0,0.0,0.0,0.0,1.3191,0.0,1.54,0.0,0.0,0.0,0.0,0.0,0.0,0.0,0.0,0.0,0.0,0.0,0.0,0.0,0.0,0.0,0.0,0.0,0.0,0.0,0.0,2.3054,2.3664,2.3679,2.4044,2.4816,2.4855,2.5221,2.5997,2.6179,2.6819,2.7897,2.8102,2.8603,2.9412,2.9532,2.9678,2.9893,3.0122,3.0222,3.0241,3.0374,3.0506,3.0598,3.0591,3.0719,3.0898,3.084,3.0721,3.0601,3.0567,3.0487,3.0398,3.0398,3.0398,3.0398,3.0398,3.0311,3.0222,3.0222,3.0169,3.0066,2.9908,2.9877,2.9845,2.9731,2.9696,2.9696,2.9696,2.9696,2.9696,2.9696,2.9495,2.9202,2.8824,2.8112,2.743,2.7029,2.6804,2.6539,2.6106,2.5635,2.5221,2.491,2.4168,2.3157,2.1951,2.1588,2.1046,2.0029,1.9221,1.8826,1.8826,1.8047,1.728,1.6645,1.6957,1.6789,1.6146,1.6073,1.5853,1.5497,1.4737,1.4392,0.3019,0.0,0.0,0.0,0.0,0.0,0.0,0.0,0.0,0.0,0.0,0.0,0.0,0.0,0.0,1.9889,0.0,0.0,0.0,0.0,0.0,0.0,0.0,0.0,0.0,0.0,0.0,0.0,2.3404,0.0,2.4592,2.4632,2.4871,2.5411,2.5411,2.5689,2.6191,2.6539,2.7106,2.7897,2.8237,2.8766,2.9412,2.9607,2.9813,3.0013,3.0279,3.0398,3.0398,3.0398,3.0467,3.0568,3.0591,3.07,3.0859,3.0898,3.0785,3.0626,3.0623,3.0506,3.0398,3.0398,3.0398,3.0398,3.0398,3.0398,3.0398,3.0398,3.0398,3.0355,3.015,3.0103,3.0061,2.9927,2.988,2.988,2.988,2.988,2.988,2.988,2.9782,2.9643,2.9513,2.8824,2.8166,2.766,2.753,2.7334,2.6906,2.6229,2.5615,2.5259,2.4592,2.3764,2.2785,2.2694,2.2406,2.1744,2.0801,2.0168,2.0029,1.8996,1.8317,1.7895,1.7895,1.7786,1.7578,1.709,1.681,1.6754,1.6036,1.5818,0.0,0.0,0.0,0.6737,0.0,0.0,0.0,0.0,1.4678,0.0,0.0,0.0,0.0,0.0,1.9927,2.0633,2.1688,0.0,0.0,0.0,0.0,0.0,0.0,0.0,0.0,0.0,0.0,2.4138,2.4753,2.5144,2.5182,2.5182,2.5411,2.5977,2.5961,2.6191,2.6657,2.7083,2.747,2.7897,2.8237,2.8766,2.9412,2.9607,2.9813,3.0013,3.0279,3.0398,3.0398,3.0398,3.0448,3.051,3.0571,3.0641,3.0723,3.0859,3.0818,3.0691,3.0621,3.0506,3.0398,3.0398,3.0398,3.0398,3.0398,3.0398,3.0398,3.0398,3.0398,3.0398,3.0398,3.0398,3.0398,3.0386,3.0386,3.0386,3.0386,3.0386,3.0386,3.0386,3.0007,2.9696,2.9696,2.9494,2.9144,2.8453,2.8102,2.7754,2.7317,2.6073,2.5221,2.5221,2.4282,2.3377,2.274,2.2694,2.2406,2.1744,2.1649,2.1376,2.0795,2.0746,2.0067,1.8715,1.8661,1.8328,1.7578,1.7578,1.7578,1.7523,1.681,1.678,0.0,0.0,0.6298,0.516,0.0,0.0,0.0,0.0,0.0,0.0,0.0,0.0,0.0,0.0,2.089,2.2366,2.2892,2.3488,0.0,0.0,0.0,0.0,0.0,0.0,0.0,0.0,0.0,2.4219,2.4831,2.5335,0.0,2.5726,2.5944,2.6436,2.647,2.6674,2.7083,2.7517,2.788,2.8237,2.8608,2.891,2.9156,2.9394,2.9626,2.9813,3.0032,3.0241,3.0398,3.0398,3.0448,3.0518,3.0577,3.0645,3.0723,3.0859,3.082,3.0687,3.0612,3.0544,3.0467,3.0467,3.0467,3.0467,3.0398,3.0398,3.0398,3.0398,3.0398,3.0398,3.0398,3.0398,3.0398,3.0398,3.0398,3.0398,3.0398,3.0398,3.0398,3.0398,3.0122,2.9861,2.9731,2.9532,2.9104,2.8192,2.7982,2.7542,2.6573,2.6016,2.5465,2.4752,2.4348,2.3906,2.3319,2.329,2.3187,2.298,2.2575,2.2267,2.2081,2.1224,2.0597,2.0118,1.967,1.9319,1.9044,1.8963,1.892,1.8931,1.9033,1.8771,-0.4848,0.0384,0.0,0.4475,0.8611,0.0,1.0801,0.0,0.0,0.0,0.0,0.0,0.0,0.0,2.202,2.3866,2.4413,2.4946,0.0,2.6438,0.0,0.0,0.0,0.0,0.0,0.0,2.5701,2.5115,2.5496,2.5855,0.0,0.0,2.6401,2.6691,2.6691,2.6906,2.7303,2.7678,2.8075,2.8402,2.8815,2.9044,2.9156,2.9394,2.9626,2.9813,3.0047,3.0241,3.0398,3.0417,3.0467,3.0506,3.0602,3.0662,3.0712,3.0856,3.0811,3.0691,3.0636,3.0593,3.054,3.054,3.0527,3.0525,3.0487,3.0467,3.0467,3.0448,3.0448,3.0417,3.0398,3.0398,3.0398,3.0398,3.0398,3.0398,3.0398,3.0398,3.0398,3.0398,3.0142,2.9845,2.9731,2.9436,2.8989,2.821,2.7982,2.7542,2.6607,2.6016,2.5449,2.4752,2.4348,2.3991,2.3638,2.3595,2.3595,2.3595,2.3246,2.292,2.2694,2.169,2.1028,2.0795,2.0144,1.9911,2.0112,2.0035,2.0086,2.028,2.0815,2.0646]},{"header":{"parameterUnit":"m.s-1","parameterCategory":1,"la1":30.6,"la2":29.2853,"lo1":-89.7004,"lo2":-87.6739,"dy":0.0162,"dx":0.0183,"nx":112,"ny":82,"refTime":"2023-09-05T06:00:00:Z","depth":0,"parameterNumber":3,"parameterNumberName":"V-component_of_WINDS"},"data":[0.0,0.0,0.0,0.0,0.0,0.0,0.0,0.0,0.0,0.0,0.0,0.0,0.0,0.0,0.0,0.0,0.0,0.0,0.0,0.0,0.0,0.0,0.0,0.0,0.0,0.0,0.0,0.0,0.0,0.0,0.0,0.0,0.0,0.0,0.0,0.0,0.0,0.0,0.0,0.0,0.0,0.0,0.0,0.0,0.0,0.0,0.0,0.0,0.0,0.0,0.0,0.0,0.0,0.0,0.0,0.0,0.0,0.0,0.0,0.0,0.0,0.0,0.0,0.0,0.0,0.0,0.0,0.0,0.0,0.0,0.0,0.0,0.0,0.0,0.0,0.0,0.0,0.0,0.0,0.0,0.0,0.0,0.0,0.0,0.0,0.0,0.0,0.0,0.0,0.0,-1.9089,-2.2002,-2.2329,-2.2321,-2.2297,-2.5123,-2.6903,-2.6901,0.0,0.0,0.0,0.0,0.0,0.0,0.0,0.0,0.0,0.0,0.0,0.0,0.0,0.0,0.0,0.0,0.0,0.0,0.0,0.0,0.0,0.0,0.0,0.0,0.0,0.0,0.0,0.0,0.0,0.0,0.0,0.0,0.0,0.0,0.0,0.0,0.0,0.0,0.0,0.0,0.0,0.0,0.0,0.0,0.0,0.0,0.0,0.0,0.0,0.0,0.0,0.0,0.0,0.0,0.0,0.0,0.0,0.0,0.0,0.0,0.0,0.0,0.0,0.0,0.0,0.0,0.0,0.0,0.0,0.0,0.0,0.0,0.0,0.0,0.0,0.0,0.0,0.0,0.0,0.0,0.0,0.0,0.0,0.0,0.0,0.0,0.0,0.0,0.0,0.0,0.0,0.0,0.0,0.0,0.0,0.0,0.0,0.0,0.0,0.0,0.0,0.0,0.0,0.0,-1.8206,-1.8712,-1.8791,-1.8742,-1.8764,-2.1872,-2.3799,-2.3806,0.0,0.0,0.0,0.0,0.0,0.0,0.0,0.0,0.0,0.0,0.0,0.0,0.0,0.0,0.0,0.0,0.0,0.0,0.0,0.0,0.0,0.0,0.0,0.0,0.0,0.0,0.0,0.0,0.0,0.0,0.0,0.0,0.0,0.0,0.0,0.0,0.0,0.0,0.0,0.0,0.0,0.0,0.0,0.0,0.0,0.0,0.0,0.0,0.0,0.0,0.0,0.0,0.0,0.0,0.0,0.0,0.0,0.0,0.0,0.0,0.0,0.0,0.0,0.0,0.0,0.0,0.0,0.0,0.0,0.0,0.0,0.0,0.0,0.0,0.0,0.0,0.0,0.0,0.0,0.0,0.0,0.0,0.0,0.0,0.0,0.0,0.0,0.0,0.0,0.0,0.0,0.0,0.0,0.0,0.0,0.0,0.0,0.0,0.0,0.0,0.0,0.0,0.0,-1.8961,-1.7989,-1.7989,-1.8031,-1.8015,-1.7996,-2.1128,-2.3092,-2.3088,-2.592,0.0,0.0,0.0,0.0,0.0,0.0,0.0,0.0,0.0,0.0,0.0,0.0,0.0,0.0,0.0,0.0,0.0,0.0,0.0,0.0,0.0,0.0,0.0,0.0,0.0,0.0,0.0,0.0,0.0,0.0,0.0,0.0,0.0,0.0,0.0,0.0,0.0,0.0,0.0,0.0,0.0,0.0,0.0,0.0,0.0,0.0,0.0,0.0,0.0,0.0,0.0,0.0,0.0,0.0,0.0,0.0,0.0,0.0,0.0,0.0,0.0,0.0,0.0,0.0,0.0,0.0,0.0,0.0,0.0,0.0,0.0,0.0,0.0,0.0,0.0,0.0,0.0,0.0,0.0,0.0,0.0,0.0,0.0,0.0,0.0,0.0,0.0,0.0,0.0,0.0,0.0,0.0,0.0,0.0,0.0,0.0,0.0,0.0,0.0,0.0,0.0,0.0,-1.8016,-1.8008,-1.8008,-1.8008,-1.819,-1.8568,-2.0596,-2.2265,-2.3081,-2.5265,0.0,0.0,0.0,0.0,0.0,0.0,0.0,0.0,0.0,0.0,0.0,0.0,0.0,0.0,0.0,0.0,0.0,0.0,0.0,0.0,0.0,0.0,0.0,0.0,0.0,0.0,0.0,0.0,0.0,0.0,0.0,0.0,0.0,0.0,0.0,0.0,0.0,0.0,0.0,0.0,0.0,0.0,0.0,0.0,0.0,0.0,0.0,0.0,0.0,0.0,0.0,0.0,0.0,0.0,0.0,0.0,0.0,0.0,0.0,0.0,0.0,0.0,0.0,0.0,0.0,0.0,0.0,0.0,0.0,0.0,0.0,0.0,0.0,0.0,0.0,0.0,0.0,0.0,0.0,0.0,0.0,0.0,0.0,0.0,0.0,0.0,0.0,0.0,0.0,0.0,0.0,0.0,0.0,0.0,0.0,0.0,0.0,0.0,0.0,0.0,0.0,0.0,-1.7998,-1.8008,-1.8008,-1.8008,-1.8654,-2.03,-1.9116,-1.9732,-2.289,-2.3276,0.0,0.0,0.0,0.0,0.0,0.0,0.0,0.0,0.0,0.0,0.0,0.0,0.0,0.0,0.0,0.0,0.0,0.0,0.0,0.0,0.0,0.0,0.0,0.0,0.0,0.0,0.0,0.0,0.0,0.0,0.0,0.0,0.0,0.0,0.0,0.0,0.0,0.0,0.0,0.0,0.0,0.0,0.0,0.0,0.0,0.0,0.0,0.0,0.0,0.0,0.0,0.0,0.0,0.0,0.0,0.0,0.0,0.0,0.0,0.0,0.0,0.0,0.0,0.0,0.0,0.0,0.0,0.0,0.0,0.0,0.0,0.0,0.0,0.0,0.0,0.0,0.0,0.0,0.0,0.0,0.0,0.0,0.0,0.0,0.0,0.0,0.0,0.0,0.0,0.0,0.0,0.0,0.0,0.0,0.0,0.0,0.0,0.0,0.0,0.0,0.0,0.0,-1.8008,-1.8008,0.0,-1.8008,-1.8724,-2.0446,-2.0944,-2.1717,-2.3032,0.0,0.0,0.0,0.0,0.0,0.0,0.0,0.0,0.0,0.0,0.0,0.0,0.0,0.0,0.0,0.0,0.0,0.0,0.0,0.0,0.0,0.0,0.0,0.0,0.0,0.0,0.0,0.0,0.0,0.0,0.0,0.0,0.0,0.0,0.0,0.0,0.0,0.0,0.0,0.0,0.0,0.0,0.0,0.0,0.0,0.0,0.0,0.0,0.0,0.0,0.0,0.0,0.0,0.0,0.0,0.0,0.0,0.0,0.0,0.0,0.0,0.0,0.0,0.0,0.0,0.0,0.0,0.0,0.0,0.0,0.0,0.0,0.0,0.0,0.0,0.0,0.0,0.0,0.0,0.0,0.0,0.0,0.0,0.0,0.0,0.0,0.0,0.0,0.0,0.0,0.0,0.0,0.0,0.0,0.0,0.0,0.0,0.0,0.0,0.0,0.0,0.0,-1.8008,-1.8008,-1.8008,0.0,-1.8008,-1.8735,-2.0468,-2.1823,-2.2702,-2.3084,0.0,0.0,0.0,0.0,0.0,0.0,0.0,0.0,0.0,0.0,0.0,0.0,0.0,0.0,0.0,0.0,0.0,0.0,0.0,0.0,0.0,0.0,0.0,0.0,0.0,0.0,0.0,0.0,0.0,0.0,0.0,0.0,0.0,0.0,0.0,0.0,0.0,0.0,0.0,0.0,0.0,0.0,0.0,0.0,0.0,0.0,0.0,0.0,0.0,0.0,0.0,0.0,0.0,0.0,0.0,0.0,0.0,0.0,0.0,0.0,0.0,0.0,0.0,0.0,0.0,0.0,0.0,0.0,0.0,0.0,0.0,0.0,0.0,0.0,0.0,0.0,0.0,0.0,0.0,0.0,0.0,0.0,0.0,0.0,0.0,0.0,0.0,0.0,0.0,0.0,0.0,0.0,0.0,0.0,0.0,0.0,0.0,0.0,0.0,0.0,0.0,0.0,-1.8008,-1.8008,-1.8008,-1.8008,-1.8008,-1.8721,-2.0462,-2.1069,-2.1867,0.0,0.0,0.0,0.0,0.0,0.0,0.0,0.0,0.0,0.0,0.0,0.0,0.0,0.0,0.0,0.0,0.0,0.0,0.0,0.0,0.0,0.0,0.0,0.0,0.0,0.0,0.0,0.0,0.0,0.0,0.0,0.0,0.0,0.0,0.0,0.0,0.0,0.0,0.0,0.0,0.0,0.0,0.0,0.0,0.0,0.0,0.0,0.0,0.0,0.0,0.0,0.0,0.0,0.0,0.0,0.0,0.0,0.0,0.0,0.0,0.0,0.0,0.0,0.0,0.0,0.0,0.0,0.0,0.0,0.0,0.0,0.0,0.0,0.0,0.0,0.0,0.0,0.0,0.0,0.0,0.0,0.0,0.0,0.0,0.0,0.0,0.0,0.0,0.0,0.0,0.0,0.0,0.0,0.0,0.0,0.0,0.0,0.0,0.0,0.0,0.0,0.0,0.0,-1.8008,-1.8008,-1.8269,-1.8854,-1.8921,-1.9628,-2.1365,-2.1675,-2.2123,-2.3017,0.0,0.0,0.0,0.0,0.0,0.0,0.0,0.0,0.0,0.0,0.0,0.0,0.0,0.0,0.0,0.0,0.0,0.0,0.0,0.0,0.0,0.0,0.0,0.0,0.0,0.0,0.0,0.0,0.0,0.0,0.0,0.0,0.0,0.0,0.0,0.0,0.0,0.0,0.0,0.0,0.0,0.0,0.0,0.0,0.0,0.0,0.0,0.0,0.0,0.0,0.0,0.0,0.0,0.0,0.0,0.0,0.0,0.0,0.0,0.0,0.0,0.0,0.0,0.0,0.0,0.0,0.0,0.0,0.0,0.0,0.0,0.0,0.0,0.0,0.0,0.0,0.0,0.0,0.0,0.0,0.0,0.0,0.0,0.0,0.0,0.0,0.0,0.0,0.0,0.0,0.0,0.0,0.0,0.0,0.0,0.0,0.0,0.0,0.0,0.0,0.0,0.0,-1.8008,-1.8008,-1.8337,-1.9233,-1.9299,-2.0009,-2.1753,-2.1877,-2.2249,-2.3078,0.0,0.0,0.0,0.0,0.0,0.0,0.0,0.0,0.0,0.0,0.0,0.0,0.0,0.0,0.0,0.0,0.0,0.0,0.0,0.0,0.0,0.0,0.0,0.0,0.0,0.0,0.0,0.0,0.0,0.0,0.0,0.0,0.0,0.0,0.0,0.0,0.0,0.0,0.0,0.0,0.0,0.0,0.0,0.0,0.0,0.0,0.0,0.0,0.0,0.0,0.0,0.0,0.0,0.0,0.0,0.0,0.0,0.0,0.0,0.0,0.0,0.0,0.0,0.0,0.0,0.0,0.0,0.0,0.0,0.0,0.0,0.0,0.0,0.0,0.0,0.0,0.0,0.0,0.0,0.0,0.0,0.0,0.0,0.0,0.0,0.0,0.0,0.0,0.0,0.0,0.0,0.0,0.0,0.0,0.0,0.0,0.0,0.0,0.0,0.0,0.0,0.0,-1.8269,-1.8269,-1.8596,-1.9431,-1.9562,-2.0204,-2.1877,-2.2002,-2.2322,-2.3065,0.0,0.0,0.0,0.0,0.0,0.0,0.0,0.0,0.0,0.0,0.0,0.0,0.0,0.0,0.0,0.0,0.0,0.0,0.0,0.0,0.0,0.0,0.0,0.0,0.0,0.0,0.0,0.0,0.0,0.0,0.0,0.0,0.0,0.0,0.0,0.0,0.0,0.0,0.0,0.0,0.0,0.0,0.0,0.0,0.0,0.0,0.0,0.0,0.0,0.0,0.0,0.0,0.0,0.0,0.0,0.0,0.0,0.0,0.0,0.0,-2.0621,0.0,0.0,0.0,0.0,0.0,0.0,0.0,0.0,0.0,0.0,0.0,0.0,0.0,0.0,0.0,0.0,0.0,0.0,0.0,0.0,0.0,0.0,0.0,0.0,0.0,0.0,0.0,0.0,0.0,0.0,0.0,0.0,0.0,0.0,0.0,0.0,0.0,0.0,0.0,0.0,0.0,-2.0074,-2.0074,-2.0398,-2.1239,-2.1365,-2.1741,-2.2763,-2.2823,-2.2944,-2.3078,-2.3078,0.0,0.0,0.0,0.0,0.0,0.0,0.0,0.0,0.0,0.0,0.0,0.0,0.0,0.0,0.0,0.0,0.0,0.0,0.0,0.0,0.0,0.0,0.0,0.0,0.0,0.0,0.0,0.0,0.0,0.0,0.0,0.0,0.0,0.0,0.0,0.0,0.0,0.0,0.0,0.0,0.0,0.0,0.0,0.0,0.0,0.0,0.0,0.0,0.0,0.0,0.0,0.0,0.0,0.0,0.0,0.0,0.0,0.0,0.0,0.0,-1.8686,0.0,0.0,0.0,0.0,0.0,0.0,0.0,0.0,0.0,0.0,0.0,0.0,0.0,0.0,0.0,0.0,0.0,0.0,0.0,0.0,0.0,0.0,0.0,0.0,0.0,0.0,0.0,0.0,0.0,0.0,0.0,0.0,0.0,0.0,0.0,0.0,0.0,0.0,0.0,0.0,-2.059,-2.059,-2.091,-2.1815,-2.1877,-2.2261,-2.3005,-2.3078,-2.3078,-2.3078,-2.3078,0.0,0.0,0.0,0.0,0.0,0.0,0.0,0.0,0.0,0.0,0.0,0.0,0.0,0.0,0.0,0.0,0.0,0.0,0.0,0.0,0.0,0.0,0.0,0.0,0.0,0.0,0.0,0.0,0.0,0.0,0.0,0.0,0.0,0.0,0.0,0.0,0.0,0.0,0.0,0.0,0.0,0.0,0.0,0.0,0.0,0.0,0.0,0.0,0.0,0.0,0.0,0.0,0.0,-1.4062,-1.4124,-1.4124,-1.4124,-1.4102,-1.4112,-1.4063,-1.6541,-2.0586,0.0,0.0,0.0,0.0,0.0,0.0,0.0,0.0,0.0,0.0,0.0,0.0,0.0,0.0,0.0,0.0,0.0,0.0,0.0,0.0,0.0,0.0,0.0,0.0,0.0,-2.2761,-2.249,0.0,0.0,0.0,0.0,0.0,0.0,0.0,0.0,0.0,0.0,0.0,0.0,-2.1037,-2.1037,-2.129,-2.2002,-2.2125,-2.2384,-2.3065,-2.3078,-2.3138,-2.3305,-2.3305,-2.3708,0.0,0.0,0.0,0.0,0.0,0.0,0.0,0.0,0.0,0.0,0.0,0.0,0.0,0.0,0.0,0.0,0.0,0.0,0.0,0.0,0.0,0.0,0.0,0.0,0.0,0.0,0.0,0.0,0.0,0.0,0.0,0.0,-1.407,-1.4125,0.0,0.0,0.0,0.0,0.0,0.0,0.0,0.0,0.0,0.0,0.0,0.0,0.0,0.0,-1.4105,-1.4105,-1.4105,-1.4105,-1.4126,-1.4139,-1.4139,-1.4139,-1.4065,-1.4103,-1.409,0.0,-2.0571,-2.0615,0.0,0.0,0.0,0.0,0.0,0.0,0.0,0.0,0.0,0.0,0.0,0.0,0.0,0.0,0.0,0.0,0.0,0.0,0.0,0.0,0.0,0.0,-2.3301,-2.3273,-2.2918,-2.2621,0.0,-2.219,-2.1693,-2.2157,0.0,0.0,0.0,0.0,0.0,0.0,0.0,0.0,-2.275,-2.275,-2.2823,-2.2944,-2.2944,-2.3005,-2.3078,-2.3078,-2.3424,-2.4118,-2.4118,-2.4781,-2.6176,-2.5673,0.0,0.0,0.0,0.0,0.0,0.0,0.0,0.0,0.0,0.0,0.0,0.0,0.0,0.0,0.0,0.0,0.0,0.0,0.0,0.0,0.0,0.0,0.0,0.0,0.0,0.0,0.0,0.0,0.0,-1.3682,-1.4097,-1.4122,-1.4096,-1.4062,0.0,0.0,0.0,0.0,0.0,0.0,0.0,0.0,0.0,-1.4058,-1.4058,-1.4092,-1.4088,-1.4088,-1.4088,-1.4088,-1.4088,-1.4088,-1.4088,-1.4088,-1.4132,-1.4135,-1.4131,-1.6542,-2.0573,-2.0564,-2.0566,-2.0566,0.0,0.0,0.0,0.0,0.0,-2.0566,-2.0566,0.0,0.0,0.0,0.0,0.0,0.0,0.0,0.0,0.0,0.0,0.0,0.0,0.0,0.0,-2.3745,-2.3597,-2.3304,-2.313,-2.2677,-2.2387,0.0,-2.2984,-2.3071,-2.3128,0.0,0.0,0.0,0.0,0.0,-2.3078,-2.3078,-2.3078,-2.3078,-2.3078,-2.3078,-2.3078,-2.3543,-2.3943,-2.4292,-2.4681,-2.5398,-2.6457,-2.6176,-2.6496,0.0,0.0,0.0,0.0,0.0,0.0,0.0,0.0,0.0,0.0,0.0,0.0,0.0,0.0,0.0,0.0,0.0,0.0,0.0,0.0,0.0,0.0,0.0,0.0,0.0,0.0,0.0,0.0,-1.3512,-1.3981,-1.3665,-1.3946,-1.4117,0.0,0.0,0.0,0.0,0.0,0.0,-1.4144,-1.4144,-1.4144,-1.4144,-1.4144,-1.4144,-1.4144,-1.4122,-1.4072,-1.4072,-1.4139,-1.4088,-1.4088,-1.4088,-1.4088,-1.4075,-1.4068,-1.5959,-1.9053,-2.014,-2.0576,-2.0566,-2.0586,-2.0566,-2.0566,-2.0566,-2.0566,-2.0566,-2.0566,-2.0566,-2.0566,-2.0566,0.0,-2.0624,-2.0623,0.0,0.0,0.0,0.0,-2.5097,-2.5504,0.0,-2.2159,-2.356,-2.3842,-2.3665,-2.3226,-2.3251,-2.3253,0.0,-2.3477,-2.364,-2.3153,0.0,0.0,0.0,0.0,-2.3078,-2.3078,-2.3078,-2.3078,-2.3078,-2.3078,-2.3078,-2.3078,-2.3826,-2.4408,-2.4567,-2.5287,-2.6,-2.6774,-2.6774,-2.7034,-2.7575,0.0,0.0,0.0,0.0,0.0,0.0,0.0,0.0,0.0,0.0,0.0,0.0,0.0,0.0,0.0,0.0,0.0,0.0,0.0,0.0,0.0,0.0,0.0,0.0,0.0,0.0,0.0,0.0,0.0,-1.2524,-1.3398,0.0,0.0,0.0,0.0,-1.4078,-1.4078,-1.4078,-1.4078,-1.4078,-1.4078,-1.4078,-1.4078,-1.4078,-1.4078,-1.4089,-1.4131,-1.4138,-1.4135,-1.4088,-1.4088,-1.4088,-1.4088,-1.4075,-1.4068,-1.4262,-1.4741,-1.886,-2.0582,-2.0632,-2.0576,-2.0566,-2.0566,-2.0566,-2.0566,-2.0566,-2.0566,-2.0566,-2.0566,-2.0566,-2.0566,-2.0585,-2.0586,-2.0572,0.0,0.0,-2.0715,-2.1285,-2.2845,-2.0758,-1.9084,-2.2372,-2.3128,-2.3115,-2.3078,-2.3565,-2.3791,0.0,-2.3103,-2.3115,-2.3078,0.0,-2.3078,-2.3078,-2.3078,-2.3078,-2.3078,-2.3078,-2.3078,-2.3078,-2.3078,-2.3078,-2.3078,-2.3826,-2.4624,-2.5287,-2.6068,-2.6774,-2.7509,-2.756,-2.756,-2.7625,-2.7625,0.0,0.0,0.0,0.0,0.0,0.0,0.0,0.0,0.0,0.0,0.0,0.0,0.0,0.0,0.0,0.0,0.0,0.0,0.0,0.0,0.0,0.0,0.0,0.0,0.0,0.0,0.0,0.0,-1.2475,-1.3338,0.0,-1.2981,-1.2915,-1.2942,-1.2942,-1.2942,-1.2942,-1.2942,-1.2942,-1.2942,-1.2942,-1.2942,-1.2942,-1.2942,-1.2955,-1.3367,-1.4097,-1.4114,-1.4082,-1.4082,-1.409,-1.409,-1.4096,-1.4115,-1.4068,-1.444,-1.8806,-2.056,-2.0605,-2.0596,-2.0566,-2.0566,-2.0566,-2.0566,-2.0566,-2.0566,-2.0566,-2.0605,-2.0639,-2.0559,-2.0576,-2.0629,-1.9811,-1.896,-1.8957,-1.8911,-1.9042,-1.9692,-2.0577,-2.1624,-2.2795,-2.3108,-2.3078,-2.3078,-2.3301,-2.3389,-2.3115,-2.3439,-2.3577,-2.3201,-2.3078,-2.3078,-2.3078,-2.3078,-2.3078,-2.3078,-2.3078,-2.3078,-2.3078,-2.3078,-2.3305,-2.3826,-2.4567,-2.5342,-2.6068,-2.6826,-2.7306,-2.7575,-2.7625,-2.7625,-2.7625,-2.7625,-2.7137,0.0,0.0,0.0,0.0,0.0,0.0,0.0,0.0,0.0,0.0,0.0,0.0,0.0,0.0,0.0,0.0,0.0,0.0,0.0,0.0,0.0,0.0,0.0,0.0,0.0,0.0,-1.3172,-1.2384,-1.302,-1.3147,-1.2401,-1.2266,-1.2299,-1.2299,-1.2299,-1.2299,-1.2299,-1.2299,-1.2299,-1.2299,-1.2299,-1.2299,-1.2299,-1.2304,-1.27,-1.3498,-1.3516,-1.3484,-1.3491,-1.3501,-1.35,-1.3514,-1.3899,-1.4111,-1.4415,-1.8807,-2.0566,-2.0569,-2.0633,-2.0566,-2.0566,-2.0566,-2.0566,-2.0624,-2.0594,-2.0562,-2.0596,-2.0601,-2.0207,-1.9723,-1.969,-1.8889,-1.8003,-1.7962,-1.8023,-1.8017,-1.7969,-2.0554,-2.3108,-2.3081,-2.3121,-2.3078,-2.3078,-2.3078,-2.3078,-2.3078,-2.3439,-2.359,-2.314,-2.3078,-2.3078,-2.3078,-2.3078,-2.3078,-2.3078,-2.3078,-2.3078,-2.3078,-2.3078,-2.3424,-2.4234,-2.4738,-2.5453,-2.6457,-2.693,-2.7357,-2.7575,-2.7357,-2.7357,-2.7575,-2.7625,-2.7137,-2.6162,0.0,0.0,0.0,0.0,0.0,0.0,0.0,0.0,0.0,0.0,0.0,0.0,0.0,0.0,0.0,0.0,0.0,0.0,0.0,0.0,0.0,0.0,0.0,-1.2335,-1.2305,-1.2272,-1.228,-1.2316,-1.233,-1.2272,-1.2302,-1.2305,-1.2305,-1.2305,-1.2305,-1.2305,-1.2305,-1.2305,-1.2305,-1.2305,-1.2305,-1.2305,-1.2326,-1.2298,-1.2298,-1.233,-1.2293,-1.2293,-1.2305,-1.2305,-1.2397,-1.3564,-1.4073,-1.4418,-1.8711,-2.0497,-2.0553,-2.0599,-2.0615,-2.0615,-2.0615,-2.0615,-2.0566,-2.0546,-2.0525,-2.0554,-2.0544,-1.937,-1.8033,-1.801,-1.7986,-1.7989,-1.8027,-1.8024,-1.8031,-1.8124,-2.0653,-2.3071,-2.3092,-2.3078,-2.3078,-2.3078,-2.3078,-2.3078,-2.3078,-2.3078,-2.3078,-2.3078,-2.3078,-2.3078,-2.3078,-2.3078,0.0,-2.3078,-2.3078,-2.3078,-2.3078,-2.3078,-2.3424,-2.4292,-2.435,-2.4951,-2.6457,-2.651,-2.6878,-2.7575,-2.693,-2.6878,-2.7575,-2.7575,-2.7575,-2.7575,0.0,0.0,0.0,0.0,0.0,0.0,0.0,0.0,0.0,0.0,0.0,0.0,0.0,0.0,0.0,0.0,0.0,0.0,0.0,0.0,0.0,0.0,-1.2325,-1.2324,-1.2282,-1.2322,-1.2293,-1.2317,-1.2331,-1.233,-1.2271,-1.2305,-1.2305,-1.2305,-1.2305,-1.2305,-1.2305,-1.2305,-1.2305,-1.2305,-1.2305,-1.2305,-1.2297,-1.233,-1.233,-1.2335,-1.23,-1.2306,-1.2337,-1.2267,-1.2357,-1.2667,-1.2805,-1.311,-1.7115,-1.8683,-1.8805,-2.0118,-2.0619,-2.0619,-2.0619,-2.0619,-2.042,-1.912,-1.8708,-1.8739,-1.8724,-1.8356,-1.7991,-1.8035,-1.8007,-1.7988,-1.7969,-1.8024,-1.8553,-2.1072,-2.2384,-2.3133,-2.3109,-2.3106,-2.3078,-2.3078,-2.3078,-2.3078,-2.3078,-2.3078,-2.3078,-2.3078,-2.3078,-2.3078,-2.3078,-2.3078,0.0,-2.3078,-2.3078,-2.3078,-2.3078,-2.3078,-2.3636,-2.5007,-2.5119,-2.5728,-2.7188,-2.7306,-2.7408,-2.7575,-2.7408,-2.7408,-2.7625,-2.7086,-2.6826,0.0,0.0,0.0,0.0,0.0,0.0,0.0,0.0,0.0,0.0,0.0,0.0,0.0,0.0,0.0,0.0,0.0,0.0,0.0,0.0,0.0,0.0,-1.2305,-1.2305,-1.2305,-1.2305,-1.2305,-1.2305,-1.2305,-1.2305,-1.2305,-1.2305,-1.2305,-1.2305,-1.2305,-1.2305,-1.2305,-1.2305,-1.2305,-1.2305,-1.2305,-1.2305,-1.2305,-1.2305,-1.2305,-1.2305,-1.2305,-1.2305,-1.2311,-1.2309,-1.23,0.0,-1.2317,-1.2298,-1.2483,-1.4668,-1.6112,0.0,0.0,0.0,0.0,0.0,-1.9548,-1.9399,-1.8356,-1.7971,-1.7972,-1.8002,-1.8014,-1.7975,-1.7998,-1.8008,-1.7988,-1.8006,-1.7989,-1.8757,-2.221,-2.313,-2.3083,-2.3083,-2.3081,-2.3078,-2.3078,-2.3078,-2.3078,-2.3078,0.0,0.0,-2.3078,-2.3078,-2.3078,-2.3078,-2.3078,-2.3078,0.0,-2.3078,-2.3245,-2.3603,-2.359,-2.4221,-2.5728,-2.5563,0.0,0.0,0.0,-2.7137,-2.7137,-2.7458,0.0,0.0,0.0,-2.693,-2.693,0.0,0.0,0.0,-2.6759,-2.6375,0.0,0.0,0.0,0.0,0.0,0.0,0.0,0.0,0.0,0.0,0.0,0.0,0.0,0.0,0.0,0.0,-1.2305,-1.2305,-1.2305,-1.2305,-1.2305,-1.2305,-1.2305,-1.2305,-1.2305,-1.2305,-1.2305,-1.2305,-1.2305,-1.2305,-1.2305,0.0,0.0,0.0,0.0,-1.2305,-1.2305,-1.2305,-1.2305,-1.2305,-1.2305,-1.2305,-1.2305,-1.2305,-1.2305,-1.2305,-1.2305,-1.2311,-1.2349,-1.2508,-1.3772,-1.5661,-1.7325,-1.8008,-1.7996,-1.7996,-1.7971,0.0,0.0,0.0,0.0,-1.8008,-1.8008,-1.8008,-1.8008,-1.8008,-1.8027,-1.8221,-1.8404,-1.9276,-2.2303,-2.3107,-2.3078,-2.3078,-2.3078,-2.3078,-2.3078,-2.3078,-2.3078,-2.3078,-2.3078,-2.3078,-2.3078,-2.3078,-2.3078,-2.3078,-2.3198,0.0,-2.3258,-2.3305,-2.3649,-2.435,0.0,0.0,-2.6404,-2.5906,-2.6108,-2.7509,-2.6982,-2.6616,-2.6616,-2.7255,-2.7306,-2.6616,-2.7255,-2.7625,-2.7625,-2.7625,-2.7625,-2.7575,-2.6269,-2.6,0.0,0.0,0.0,0.0,0.0,0.0,0.0,0.0,0.0,0.0,0.0,0.0,0.0,0.0,0.0,-1.2298,-1.2305,-1.2305,-1.2305,-1.2305,-1.2305,-1.2305,-1.2305,-1.2305,-1.2305,-1.2305,-1.2305,-1.2305,-1.2305,-1.2305,-1.2305,-1.2305,0.0,-1.2305,-1.2305,-1.2305,-1.2305,-1.2305,-1.2305,-1.2305,0.0,0.0,-1.2305,-1.2305,-1.2305,-1.2305,-1.2305,-1.2291,-1.2418,-1.398,-1.5749,-1.7455,-1.7877,-1.8025,-1.7987,-1.7987,-1.8017,-1.8037,-1.8037,-1.7998,-1.8008,-1.8008,-1.8008,-1.8008,-1.8008,-1.8008,0.0,-1.9698,-2.1102,-2.2261,-2.2908,-2.3107,-2.3078,-2.3078,-2.3078,-2.3078,-2.3078,-2.3078,-2.3078,-2.3078,-2.3078,-2.3078,-2.3078,-2.3078,-2.3078,-2.3078,-2.3649,-2.406,-2.406,-2.461,-2.5007,-2.5175,-2.5175,-2.5563,-2.6457,-2.6336,-2.6654,-2.756,-2.7473,-2.7408,-2.7408,-2.7509,-2.7509,-2.7408,-2.7524,-2.7625,-2.7625,-2.7625,-2.7625,-2.7575,-2.7306,-2.724,0.0,0.0,0.0,0.0,0.0,0.0,0.0,0.0,0.0,0.0,0.0,-1.5133,0.0,0.0,-1.2304,-1.2291,-1.2305,-1.2305,-1.2305,-1.2305,-1.2305,-1.2305,-1.2305,-1.2305,-1.2305,-1.2305,-1.2305,-1.2305,-1.2305,-1.2305,-1.2305,-1.2305,-1.2305,-1.2305,-1.2305,-1.2305,-1.2305,-1.2305,-1.2305,-1.2305,-1.2305,-1.2305,-1.2305,-1.2305,-1.268,-1.328,-1.3616,-1.3908,-1.4312,-1.5413,-1.6422,-1.7338,-1.7832,-1.8008,-1.8008,-1.8008,-1.8008,-1.8008,-1.8008,-1.8008,-1.8008,-1.8008,-1.8008,-1.8008,-1.8008,-1.8008,-1.8357,-2.0107,-2.1823,-2.311,-2.3109,-2.313,-2.3078,-2.3078,-2.3078,-2.3078,-2.3078,-2.3078,-2.3185,-2.359,-2.3708,-2.3826,-2.4208,-2.4266,-2.4163,-2.3767,-2.406,-2.4452,-2.4794,-2.5175,-2.5563,-2.5906,-2.596,-2.6229,-2.6982,-2.7034,-2.7203,-2.7575,-2.7625,-2.7625,-2.7625,-2.7625,-2.7625,-2.7625,-2.7625,-2.7625,-2.7625,-2.7625,-2.7625,-2.7625,-2.7625,-2.7625,0.0,0.0,0.0,0.0,0.0,0.0,0.0,0.0,-1.938,-1.8228,-1.5566,-1.3204,-1.2416,-1.2267,-1.2324,-1.2285,-1.2305,-1.2305,-1.2305,-1.2305,-1.2305,-1.2305,-1.2305,-1.2305,-1.2305,-1.2305,-1.2305,-1.2305,-1.2305,-1.2305,-1.2305,-1.2305,-1.2305,-1.2305,-1.2305,-1.2305,-1.2305,-1.2305,-1.2305,-1.2305,-1.2305,-1.2305,-1.2305,-1.2305,-1.2826,-1.3878,-1.4615,-1.5416,-1.621,-1.6464,-1.6706,-1.6922,-1.7716,-1.8008,-1.8008,-1.8008,-1.8008,-1.8008,-1.8008,-1.8008,-1.8008,-1.8008,-1.8008,-1.8008,-1.8008,-1.8144,-1.8596,-2.0139,-2.169,-2.2929,-2.3069,-2.3078,-2.3078,-2.3078,-2.3078,-2.3078,-2.3078,-2.3078,-2.3305,-2.3943,-2.406,-2.4279,-2.4838,-2.5063,-2.5007,-2.4567,-2.4624,-2.4951,-2.5563,-2.5728,-2.6054,-2.6669,-2.6721,-2.693,-2.7575,-2.7625,-2.7625,-2.7625,-2.7625,-2.7625,-2.7625,-2.7625,-2.7625,-2.7625,-2.7625,-2.7625,-2.7625,-2.7625,-2.7625,-2.7625,-2.7625,-2.7625,-3.4388,-3.2282,-3.0316,-3.0365,-2.7984,-2.5343,0.0,0.0,-1.9394,-1.8255,-1.7672,-1.6324,-1.2934,-1.2264,-1.2285,-1.2298,-1.2305,-1.2305,-1.2305,-1.2305,-1.2305,-1.2305,-1.2305,-1.2305,-1.2305,-1.2305,-1.2305,-1.2305,-1.2305,-1.2305,-1.2305,-1.2305,-1.2305,-1.2305,-1.2305,-1.2305,-1.2305,-1.2305,-1.2305,-1.2305,-1.2305,-1.2305,-1.2305,-1.2305,-1.2378,-1.2526,-1.3477,-1.4903,-1.6585,-1.6567,-1.707,-1.7862,-1.794,-1.8008,-1.8008,-1.8008,-1.8008,-1.8008,-1.8008,-1.8008,-1.8008,-1.8008,-1.8008,-1.8008,-1.8008,-1.8529,-1.9365,-2.0333,-2.1273,-2.2221,-2.2896,-2.3078,-2.3078,-2.3078,-2.3078,-2.3078,-2.3078,-2.3078,-2.3138,-2.3185,-2.3245,-2.3245,-2.3365,-2.3943,-2.4624,-2.5175,-2.5837,-2.6283,-2.6336,-2.693,-2.7408,-2.7458,-2.7458,-2.7524,-2.7575,-2.7625,-2.7625,-2.7625,-2.7625,-2.7625,-2.7625,-2.7625,-2.7625,-2.7625,-2.7625,-2.7625,-2.7625,-2.7625,-2.7625,-2.7625,-2.7625,-2.7625,-3.4319,-3.3003,-3.1653,-3.0494,-2.8968,-2.7098,-2.4649,-2.2752,-2.0853,-1.8502,-1.742,-1.5962,-1.2899,-1.2297,-1.2318,0.0,-1.2304,-1.2304,-1.2304,-1.2304,-1.2284,-1.2311,-1.2305,-1.2305,-1.2305,-1.2305,-1.2305,-1.2305,-1.2305,-1.2305,-1.2305,-1.2305,-1.2305,-1.2305,-1.2305,-1.2305,-1.2305,-1.2305,-1.2305,-1.2305,-1.2305,-1.2305,-1.2305,-1.2305,-1.2592,-1.3171,-1.4163,-1.5367,-1.6636,-1.6636,-1.7139,-1.8008,-1.8008,-1.8008,-1.8008,-1.8008,-1.8008,-1.8008,-1.8008,-1.8008,-1.8008,-1.8008,-1.8008,-1.8008,-1.8008,-1.8269,-1.8844,-2.0204,-2.0846,-2.1428,-2.2763,-2.3078,-2.3078,-2.3078,-2.3078,-2.2977,-2.2723,-2.2661,-2.2781,-2.3273,-2.3373,-2.3635,-2.4413,-2.4845,-2.5169,-2.5488,-2.6087,-2.6669,-2.7086,-2.7408,-2.7625,-2.7625,-2.7625,-2.7625,-2.7625,-2.7625,-2.7625,-2.7625,-2.7625,-2.7625,-2.7625,-2.7625,-2.7625,-2.7625,-2.7625,-2.7625,-2.7625,-2.7625,-2.7625,-2.7625,-2.7625,-2.7625,-3.3817,-3.3063,-3.2081,-3.0358,-2.9172,-2.7721,-2.504,-2.3341,-2.1691,-1.9211,-1.735,-1.5399,-1.3197,-1.2508,-1.2331,-1.2269,-1.136,-1.0628,-1.0657,-1.1577,-1.2302,-1.2317,-1.2284,-1.2264,-1.2264,-1.2318,-1.2305,-1.2305,-1.2305,-1.2305,-1.2305,-1.2305,-1.2305,-1.2305,-1.2305,-1.2305,-1.2305,-1.2305,-1.2305,-1.2305,-1.2305,-1.2305,-1.2305,-1.2592,-1.3237,-1.4171,-1.5163,-1.6149,-1.6991,-1.6991,-1.7354,-1.8008,-1.8008,-1.8008,-1.8008,-1.8008,-1.8008,-1.8008,-1.8008,-1.8008,-1.8008,-1.8008,-1.8008,-1.8008,-1.8008,-1.8134,-1.8654,-2.0204,-2.0681,-2.1082,-2.2528,-2.2799,-2.2686,-2.2686,-2.2686,-2.2573,-2.2171,-2.2185,-2.2498,-2.3149,-2.3434,-2.3831,-2.4839,-2.5143,-2.5301,-2.5301,-2.5854,-2.6454,-2.6971,-2.7036,-2.7036,-2.7036,-2.7186,-2.7305,-2.7305,-2.7505,-2.7625,-2.7625,-2.7625,-2.7625,-2.7625,-2.7625,-2.7625,-2.7625,-2.7625,-2.7625,-2.7625,-2.7625,-2.7625,-2.7625,-2.7625,-2.7625,-3.2697,-3.1539,-3.0277,-2.9822,-2.7769,-2.5802,-2.5342,-2.3193,-2.1149,-2.0688,-1.8183,-1.5724,-1.4371,-1.3158,-1.2331,-1.2269,-0.9006,-0.6514,-0.6497,-0.9862,-1.2283,-1.2283,-1.2267,-1.2276,0.0,-1.2277,-1.2305,-1.2305,-1.2305,-1.2305,-1.2305,-1.2305,-1.2305,-1.2305,-1.2305,-1.2305,-1.2305,-1.2305,-1.2305,-1.2305,-1.2305,-1.2305,-1.2305,-1.3244,-1.4243,-1.5234,-1.6149,-1.707,-1.794,-1.794,-1.794,-1.8008,-1.8008,-1.8008,-1.8008,-1.8008,-1.8008,-1.8008,-1.8008,-1.8008,-1.8008,-1.8008,-1.8008,-1.8008,-1.8008,-1.8596,-1.9431,-2.0333,-2.0807,-2.1212,-2.2089,-2.1945,-2.1543,-2.1543,-2.1543,-2.1531,-2.1518,-2.1979,-2.2389,-2.243,-2.2989,-2.3393,-2.3444,-2.4069,-2.4531,-2.4531,-2.5188,-2.5627,-2.5674,-2.5674,-2.5674,-2.5674,-2.6243,-2.6617,-2.6617,-2.72,-2.7625,-2.7625,-2.7625,-2.7625,-2.7625,-2.7625,-2.7625,-2.7625,-2.7625,-2.7625,-2.7625,-2.7625,-2.7625,-2.7625,-2.7625,-2.7625,-3.2472,-3.1795,-3.0991,-3.0261,-2.8862,-2.7276,-2.5949,-2.4283,-2.255,-2.0689,-1.8047,-1.5633,-1.4095,-1.2213,-1.1247,-1.2158,-0.8951,-0.6301,-0.6318,-0.7435,-0.83,-0.8335,-0.8307,0.0,0.0,0.0,0.0,-1.2218,-1.1694,-1.162,-1.2224,-1.2305,-1.2305,-1.2305,-1.2305,-1.2305,-1.2305,-1.2305,-1.2305,-1.2305,-1.2305,-1.2305,-1.2305,-1.2666,-1.331,-1.4243,-1.4522,-1.5579,-1.707,-1.707,-1.7432,-1.8008,-1.8008,-1.8008,-1.8008,-1.8008,-1.8008,-1.8008,-1.8008,-1.8008,-1.8008,-1.8008,-1.8008,-1.7959,-1.7676,-1.7787,-1.8287,-1.9335,-1.9663,-2.0075,-2.1403,-2.1631,-2.1493,-2.1493,-2.1493,-2.1393,-2.1071,-2.1145,-2.1379,-2.187,-2.2136,-2.256,-2.3392,-2.3743,-2.3879,-2.3879,-2.4878,-2.5615,-2.5615,-2.5615,-2.5615,-2.5615,-2.5809,-2.5944,-2.5944,-2.6138,-2.6273,-2.6273,-2.6273,-2.6467,-2.6901,-2.6916,-2.7126,-2.761,-2.7625,-2.7625,-2.7625,-2.7625,-2.7625,-2.7625,-2.7625,-2.7625,-3.1406,-3.1195,-3.0805,-3.0057,-2.9124,-2.8012,-2.6515,-2.5056,-2.3416,-2.1232,-1.838,-1.5752,-1.4038,-1.1669,-1.023,-1.1122,-0.8463,-0.627,-0.6287,-0.6336,-0.6283,-0.6329,-0.6311,-0.7327,0.0,0.0,0.0,-1.1446,-1.1081,-1.1236,-1.2224,-1.1996,-1.1922,-1.2298,-1.2305,-1.2305,-1.2305,-1.2305,-1.2305,-1.2305,-1.2305,-1.2305,-1.2305,-1.2666,-1.3091,-1.3745,-1.445,-1.5438,-1.6636,-1.6991,-1.7432,-1.8008,-1.8008,-1.8008,-1.8008,-1.8008,-1.791,-1.7803,-1.7959,-1.791,-1.7793,-1.7793,-1.7686,-1.7566,-1.7531,-1.7516,-1.7818,-1.9141,-1.933,-1.9552,-2.0835,-2.1041,-2.0891,-2.0891,-2.0891,-2.079,-2.0439,-2.0758,-2.1167,-2.1636,-2.2072,-2.2651,-2.345,-2.3595,-2.3595,-2.3595,-2.4328,-2.4896,-2.4896,-2.4896,-2.4896,-2.4896,-2.5121,-2.5255,-2.5255,-2.548,-2.5615,-2.5615,-2.5615,-2.5794,-2.6213,-2.6419,-2.6864,-2.7564,-2.7758,-2.7977,-2.8255,-2.8255,-2.8255,-2.8255,-2.8042,-2.8042,-2.9573,-2.9757,-2.9754,-2.9267,-2.8651,-2.7949,-2.7116,-2.545,-2.3705,-2.2303,-1.9084,-1.5999,0.0,0.0,-0.9232,-0.9205,-0.7581,-0.6271,-0.6318,-0.6308,-0.6325,0.0,0.0,0.0,0.0,0.0,0.0,-0.9911,0.0,-1.1168,-1.215,-1.1391,-1.1316,-1.2305,-1.2305,-1.2305,-1.2305,-1.2305,-1.2305,-1.2305,-1.2305,-1.2305,-1.2305,-1.3237,-1.3745,-1.3882,-1.579,-1.6636,-1.6706,-1.7647,-1.7998,-1.7978,-1.7978,-1.7959,-1.7949,-1.7949,-1.7686,-1.7402,-1.7803,-1.7686,-1.7344,-1.7344,-1.707,-1.6845,-1.7534,-1.7698,-1.8055,-1.9622,-1.9674,-1.9531,-2.0441,-2.0213,-1.9798,-1.9798,-1.985,-1.985,-1.985,-2.0855,-2.1697,-2.1744,-2.2741,-2.3595,-2.3595,-2.3595,-2.3595,-2.3595,-2.3595,-2.3595,-2.3595,-2.3595,-2.3595,-2.3595,-2.4178,-2.4522,-2.4522,-2.5151,-2.551,-2.551,-2.551,-2.5525,-2.5555,-2.6031,-2.6684,-2.7426,-2.7936,-2.855,-2.9342,-2.9313,-2.9329,-2.9406,-2.8779,-2.8826,-2.9004,-2.9269,-2.9492,-2.9652,-2.9264,-2.8596,-2.7635,-2.6467,-2.4644,-2.1407,-1.8223,-1.5219,-1.2699,0.0,0.0,-0.7656,-0.6679,0.0,-0.6234,-0.6296,0.0,-0.6335,0.0,-0.6325,-0.6331,-0.6294,0.0,0.0,-0.8808,-1.0115,-1.1168,-1.162,-1.207,-1.2298,-1.2305,-1.2305,-1.2305,-1.2305,-1.2305,-1.2305,-1.2305,-1.2305,-1.2305,-1.3237,-1.4099,-1.4879,-1.607,-1.7001,-1.7647,-1.7862,-1.7822,-1.7539,-1.7539,-1.7344,-1.7061,-1.7061,-1.6992,-1.6914,-1.7021,-1.6992,-1.6894,-1.6894,-1.6826,-1.667,-1.6574,-1.6516,-1.6799,-1.7934,-1.8136,-1.8374,-1.9685,-1.9911,-1.9798,-1.9798,-2.0207,-2.056,-2.056,-2.1148,-2.1852,-2.2346,-2.3084,-2.3595,-2.3595,-2.3595,-2.3595,-2.3595,-2.3595,-2.3595,-2.3595,-2.3595,-2.3595,-2.3595,-2.3759,-2.3864,-2.3864,-2.4014,-2.4103,-2.4103,-2.4103,-2.4343,-2.4806,-2.5002,-2.556,-2.6653,-2.6413,-2.7039,-2.8562,-2.7736,-2.8047,-2.9406,-2.8779,-2.8826,-2.8101,-2.8666,-2.9219,-2.9616,-2.9581,-2.9195,-2.8233,-2.6708,-2.4435,-2.0804,-1.6979,-1.3411,-1.0438,-0.7562,-0.5585,0.0,0.0,0.0,-0.587,-0.5923,-0.6016,0.0,-0.4646,0.0,-0.6153,-0.6279,-0.6257,0.0,-0.7673,-0.9291,-1.0708,-1.0944,-1.1347,-1.2118,-1.2111,-1.2051,-1.1917,-1.1917,-1.1917,-1.1917,-1.1917,-1.1917,-1.1917,-1.2473,-1.3031,-1.3576,0.0,-1.5783,-1.634,-1.7101,-1.7314,-1.71,-1.71,-1.6943,-1.6665,-1.6665,-1.6611,-1.6436,-1.6436,-1.6309,-1.6182,-1.6377,-1.6309,-1.6225,-1.666,-1.6742,-1.7026,-1.8193,-1.8555,-1.8768,-1.9592,-1.9798,-1.985,-2.0156,-2.0295,-2.0497,-2.1064,-2.1472,-2.1993,-2.2905,-2.3377,-2.3595,-2.3595,-2.3595,-2.3595,-2.3595,-2.3595,-2.3595,-2.3595,-2.3595,-2.3595,-2.3595,-2.3595,-2.3595,-2.3595,-2.3595,-2.3595,-2.3595,-2.3837,-2.4131,-2.4483,-2.4936,-2.568,-2.6707,-2.6608,-2.7249,-2.8608,-2.7971,-2.8383,-2.9707,-2.9074,-2.9279,-2.6896,-2.779,-2.8654,-2.9133,-2.9474,-2.9468,-2.8578,-2.6473,-2.3638,-2.0007,-1.5511,-1.116,-0.7741,-0.5301,-0.3732,-0.3347,0.0,-0.4954,-0.5026,-0.4838,-0.5057,-0.609,-0.2956,-0.1948,-0.5159,-0.545,-0.5522,-0.5741,-0.6864,-0.8374,-1.0233,-0.9649,-1.0002,-1.1598,-1.174,-1.169,-1.143,-1.1423,-1.1423,-1.1423,-1.1423,-1.1423,-1.1423,-1.156,-1.1628,-1.1696,0.0,0.0,-1.4213,-1.5735,-1.6364,-1.6316,-1.6452,-1.6413,-1.6365,-1.649,-1.6309,-1.6037,-1.6037,-1.5732,-1.5478,-1.585,-1.5723,-1.5633,-1.6912,-1.7357,-1.7743,-1.915,-1.9579,-1.9695,-1.9747,-1.9798,-1.9952,-2.0547,-2.0346,-2.037,-2.1459,-2.1838,-2.2271,-2.3406,-2.3595,-2.3595,-2.3595,-2.3595,-2.3595,-2.3595,-2.3595,-2.3595,-2.3595,-2.3681,-2.3724,-2.3724,-2.3752,-2.3794,-2.3794,-2.3794,-2.3794,-2.3794,-2.4225,-2.4511,-2.4511,-2.5411,-2.6237,-2.6953,-2.7284,-2.7902,-2.8822,-2.8696,-2.91,-2.9918,-2.943,-2.9852,-2.5118,-2.5899,-2.6792,-2.7691,-2.8316,-2.8412,-2.7497,-2.5882,-2.3177,-1.8105,-1.401,-0.9927,-0.5403,-0.3624,-0.2673,-0.1799,-0.2079,-0.2629,-0.3103,-0.1862,-0.2104,0.0,-0.4896,-0.3559,-0.1304,-0.1083,0.0,0.0,0.0,-0.6592,-0.7874,-0.8517,-0.9357,-1.0381,-1.1082,-1.1476,-1.1423,-1.1423,-1.1423,-1.1423,-1.1423,-1.1423,-1.1423,-1.2241,-1.2639,-1.2706,0.0,0.0,-1.4279,-1.4615,-1.4491,-1.4208,-1.4908,-1.4964,-1.4722,-1.5398,-1.5586,-1.5527,-1.5527,-1.5478,-1.542,-1.5498,-1.5469,-1.5468,-1.569,-1.6197,-1.6866,-1.7743,-1.8436,-1.9044,-1.9643,-1.9798,-1.985,-1.9952,-2.0706,-2.1411,-2.1649,-2.2546,-2.3363,-2.3551,-2.3595,-2.3595,-2.3595,-2.3595,-2.3595,-2.3595,-2.3595,-2.3595,-2.3595,-2.3991,-2.4266,-2.4266,-2.4672,-2.4934,-2.4934,-2.4934,-2.4934,-2.4934,-2.5012,-2.5067,-2.5067,-2.5259,-2.5589,-2.6195,-2.5831,-2.6414,-2.8027,-2.7131,-2.7547,-2.9194,-2.9181,-2.9586,-2.3447,-2.4257,-2.5089,-2.568,-2.6214,-2.6637,-2.6947,-2.3568,-1.958,-1.6705,-1.1069,-0.5657,-0.2486,-0.0796,0.0267,0.0733,0.04,-0.0267,-0.1136,-0.054,-0.0614,-0.2393,-0.2559,-0.1881,-0.0139,-0.1737,0.0,0.0,0.0,-0.5832,-0.6459,-0.7794,-0.879,-0.9207,-0.9489,-0.9832,-1.0302,-1.0309,-1.0507,-1.0975,-1.0975,-1.0975,-1.0975,-1.1493,-1.1689,-1.1754,-1.2629,0.0,-1.3647,-1.4087,-1.4347,-1.4605,-1.4986,-1.5043,-1.4864,-1.5235,-1.541,-1.541,-1.541,-1.541,-1.541,-1.541,-1.5633,-1.6026,-1.6415,-1.7079,-1.7797,-1.8555,-1.898,-1.9359,-1.9695,-1.9798,-1.9991,-2.0607,-2.1744,-2.2606,-2.23,-2.295,-2.3595,-2.3595,-2.3595,-2.3595,-2.3595,-2.3595,-2.3595,-2.3595,-2.3595,-2.3595,-2.3595,-2.4307,-2.4576,-2.4032,-2.4184,-2.4471,-2.4752,-2.4776,-2.4894,-2.5182,-2.5449,-2.5615,-2.5615,-2.5872,-2.6087,-2.6367,-2.6123,-2.6376,-2.7232,-2.6706,-2.7125,-2.8383,-2.8448,-2.8871,-2.1307,-2.2159,-2.2978,-2.3071,-2.3437,-2.4162,-2.5594,-2.0169,-1.447,-1.3173,-0.65,-0.032,0.1575,0.2783,0.359,0.3789,0.306,0.2064,0.0733,0.06,0.0466,0.0067,0.0,0.0,0.0,-0.2546,0.0,0.0,0.0,0.0,-0.564,-0.7337,-0.8281,-0.8281,-0.8315,-0.8613,-0.9274,-0.9139,-0.946,-1.0301,-1.0301,-1.0434,-1.0624,-1.0624,-1.0624,-1.0624,-1.1288,0.0,0.0,-1.3183,-1.3777,-1.4382,-1.4746,-1.4874,-1.4932,-1.5284,-1.541,-1.541,-1.541,-1.541,-1.541,-1.541,-1.5806,-1.6425,-1.7135,-1.7907,-1.8608,-1.9371,-1.9695,-1.9798,-1.9798,-1.9798,-2.0131,-2.1411,-2.256,-2.3334,-2.2965,-2.329,-2.3595,-2.3595,-2.3595,-2.3595,-2.3595,-2.3681,-2.3752,-2.3752,-2.3879,-2.3948,-2.3948,-2.4672,-2.4855,-2.4032,-2.4142,-2.4415,-2.4855,-2.4879,-2.5089,-2.5486,-2.5908,-2.6156,-2.6156,-2.6505,-2.6691,-2.6691,-2.6691,-2.6691,-2.6691,-2.6691,-2.6996,-2.7588,-2.774,-2.8146,-1.8072,-1.8885,-1.986,-1.9613,-1.9859,-2.0571,-2.2016,-1.5696,-0.8442,-0.4671,0.0492,0.5111,0.7751,0.7085,0.6403,0.72,0.5982,0.4358,0.2716,0.2454,0.1859,0.02,0.0,0.0,0.0,-0.0334,0.0,0.0,0.0,0.0,0.0,-0.7086,-0.8057,-0.8057,-0.8759,-0.921,-0.9274,-0.8484,-0.8549,-0.9402,-0.9402,-0.9849,-1.0624,-1.0624,-1.0624,-1.0624,0.0,0.0,0.0,-1.0933,-1.0989,-1.117,-1.2634,-1.3252,-1.3425,-1.4874,-1.541,-1.541,-1.541,-1.541,-1.541,-1.541,-1.5468,-1.5642,-1.6368,-1.7146,-1.7841,-1.8608,-1.9254,-1.9798,-1.9798,-1.9798,-2.0131,-2.1411,-2.2239,-2.292,-2.3421,-2.3551,-2.3595,-2.3595,-2.3595,-2.3595,-2.3595,-2.3991,-2.4307,-2.4307,-2.4736,-2.5051,-2.5051,-2.5144,-2.5182,-2.5067,-2.5892,-2.6419,-2.6488,-2.6505,-2.6505,-2.6539,-2.6624,-2.6624,-2.6624,-2.6691,-2.6691,-2.6691,-2.6691,-2.6691,-2.6691,-2.6691,-2.6725,-2.681,-2.7503,-2.7823,-1.5884,-1.6102,-1.6119,-1.597,-1.6406,-1.6324,-1.4104,-0.7203,-0.0673,0.1445,0.6416,1.0619,1.1306,1.0382,0.9649,0.9985,0.908,0.7899,0.6548,0.5178,0.4082,0.3321,0.3272,0.0,0.0,0.0,0.0,0.0,0.0,0.0,0.0,-0.6079,-0.6404,-0.6404,-0.6798,-0.7447,-0.8484,-0.8156,-0.8678,-1.011,-1.011,-1.0238,-1.0624,-1.0624,-1.0624,-1.0624,0.0,0.0,0.0,-1.2035,-1.2634,-1.3537,-1.4204,-1.4451,-1.451,-1.5167,-1.541,-1.541,-1.541,-1.541,-1.541,-1.541,-1.569,-1.6197,-1.6922,-1.7688,-1.8447,-1.915,-1.9579,-1.9798,-1.9798,-2.037,-2.1183,-2.2114,-2.277,-2.3334,-2.3551,-2.3595,-2.3595,-2.3595,-2.3595,-2.3595,-2.3595,-2.3752,-2.4032,-2.4348,-2.4592,-2.4831,-2.5144,-2.5486,-2.5689,-2.5689,-2.5746,-2.5944,-2.6262,-2.6297,-2.6401,-2.6691,-2.6691,-2.6691,-2.6691,-2.6691,-2.6691,-2.6691,-2.6691,-2.6691,-2.6691,-2.6691,-2.6691,-2.6708,-2.6996,-2.7148,-1.3467,-1.3578,-1.3322,-1.2947,-1.2007,-0.9826,-0.5117,0.154,0.7436,0.9947,1.3799,1.6393,1.5266,1.4193,1.3325,1.3017,1.2132,1.1207,1.0394,0.8328,0.654,0.5528,0.0,0.5369,0.0,0.0,0.0,0.0,0.0,0.0,0.0,-0.5432,-0.5495,-0.5749,-0.5815,-0.64,-0.7632,-0.7632,-0.8345,-0.9843,-1.0104,-1.0364,-1.0624,-1.0624,-1.0624,-1.0624,0.0,0.0,0.0,-1.2274,-1.3114,-1.4373,-1.4628,-1.4815,-1.505,-1.5294,-1.541,-1.541,-1.5642,-1.5748,-1.5748,-1.5968,-1.6415,-1.6978,-1.7688,-1.8286,-1.8874,-1.9579,-1.9952,-2.0144,-2.0333,-2.1183,-2.21,-2.2603,-2.3143,-2.3595,-2.3595,-2.3595,-2.3595,-2.3595,-2.3595,-2.3638,-2.3794,-2.3948,-2.4282,-2.4776,-2.5012,-2.5205,-2.5598,-2.598,-2.6227,-2.6227,-2.5872,-2.5799,-2.6175,-2.6227,-2.6367,-2.6691,-2.6691,-2.6691,-2.6691,-2.6691,-2.6691,-2.6691,-2.6691,-2.6691,-2.6691,-2.6691,-2.6691,-2.6691,-2.6691,-2.6691,-1.0467,-1.127,-1.1844,-1.0832,-0.6182,-0.0608,0.4407,0.984,1.5642,2.2165,2.3301,2.2409,2.0253,1.8821,1.7663,1.6539,1.509,1.4004,1.3802,1.1905,0.9247,0.0,0.0,0.537,0.0,0.0,0.0,0.0,0.0,0.0,0.0,-0.5379,-0.5763,-0.6654,-0.6719,-0.6719,-0.6719,-0.6719,-0.7177,-0.8027,-0.8877,-0.9786,-1.0624,-1.0624,-1.0624,0.0,0.0,0.0,0.0,-1.0624,-1.1108,-1.1896,-1.2696,-1.3485,-1.4332,-1.5108,-1.541,-1.5526,-1.6265,-1.6492,-1.6595,-1.7357,-1.7578,-1.7743,-1.8436,-1.8715,-1.8874,-1.9579,-2.0308,-2.0944,-2.152,-2.2193,-2.2694,-2.2694,-2.3143,-2.3595,-2.3595,-2.3595,-2.3595,-2.3595,-2.3595,-2.3752,-2.4307,-2.4831,-2.5373,-2.5888,-2.6367,-2.6691,-2.6691,-2.6691,-2.6691,-2.6691,-2.6691,-2.6691,-2.6691,-2.6691,-2.6691,-2.6691,-2.6691,-2.6691,-2.6691,-2.6691,-2.6691,-2.6691,-2.6691,-2.6691,-2.6691,-2.6691,-2.6691,-2.6691,-2.6691,-2.6691,-0.4006,-0.3582,-0.2789,-0.1835,0.1335,0.5718,1.1258,1.8768,2.4871,2.5998,2.6041,2.5392,2.3802,2.1443,1.9497,1.8794,1.7423,1.6105,1.4954,0.0,0.0,0.9361,0.6823,0.0,0.0,0.0,0.0,0.0,0.0,0.0,0.0,-0.2471,-0.3811,-0.5749,-0.5815,-0.6075,-0.6719,-0.6719,-0.7437,-0.8877,-0.9139,-0.9786,-1.0624,-1.0624,0.0,0.0,0.0,0.0,0.0,-1.1406,-1.1896,-1.2634,-1.2887,-1.3485,-1.4204,-1.451,-1.4932,-1.541,-1.57,-1.6093,-1.6539,-1.6754,-1.7523,-1.8394,-1.8608,-1.8715,-1.8874,-1.9579,-2.0308,-2.0944,-2.1568,-2.2193,-2.2785,-2.3201,-2.3465,-2.3724,-2.4074,-2.4158,-2.4282,-2.4617,-2.4712,-2.4617,-2.443,-2.4816,-2.5259,-2.5411,-2.5872,-2.6332,-2.6657,-2.6691,-2.6691,-2.6691,-2.6691,-2.6691,-2.6691,-2.6691,-2.6691,-2.6691,-2.6691,-2.6691,-2.6691,-2.6691,-2.6691,-2.6691,-2.6691,-2.6691,-2.6691,-2.6691,-2.6691,-2.6691,-2.6691,-2.6691,0.2621,0.3333,0.4596,0.5548,0.9266,1.3978,1.8819,2.4207,2.8132,2.8089,2.8055,2.7603,2.6214,2.4089,2.2221,2.1138,1.9888,1.856,0.0,0.0,0.0,1.0989,0.0,0.0,0.0,0.0,0.0,0.0,0.0,0.0,0.0,0.0,-0.1935,-0.3806,-0.455,-0.5282,-0.6203,-0.6527,-0.7242,-0.8355,-0.8678,-0.9069,-0.9646,-0.9977,0.0,0.0,0.0,0.0,0.0,-1.1351,-1.2027,-1.3009,-1.3009,-1.3666,-1.4628,-1.4628,-1.4991,-1.5468,-1.6026,-1.6528,-1.7034,-1.7578,-1.8543,-1.949,-1.949,-1.949,-1.9658,-2.0307,-2.1015,-2.1657,-2.2271,-2.2711,-2.3143,-2.3508,-2.3595,-2.3767,-2.4266,-2.4389,-2.4552,-2.5105,-2.5221,-2.5144,-2.5028,-2.5297,-2.5561,-2.5746,-2.6068,-2.6367,-2.6657,-2.6691,-2.6691,-2.6691,-2.6691,-2.6691,-2.6691,-2.6691,-2.6691,-2.6691,-2.6691,-2.6691,-2.6691,-2.6691,-2.6691,-2.6691,-2.6691,-2.6691,-2.6691,-2.6691,-2.6691,-2.6691,-2.6691,-2.6691,0.0,0.9487,1.0275,1.1485,1.6922,2.2884,2.6078,2.6456,0.0,2.8844,2.9441,2.9144,2.7578,2.6545,2.5359,2.3514,2.2248,2.109,0.0,1.7246,0.0,0.0,0.0,0.0,0.0,0.0,0.0,0.0,0.0,0.0,0.0,0.0,-0.0133,-0.1065,-0.2802,-0.4215,-0.5292,-0.6133,-0.6584,-0.6719,-0.7502,-0.7962,-0.8027,-0.8812,0.0,0.0,0.0,0.0,0.0,-1.0624,-1.1483,-1.2826,-1.2887,-1.3846,-1.5235,-1.5294,-1.5352,-1.5584,-1.6968,-1.7523,-1.7852,-1.9359,-2.0295,-2.0795,-2.0845,-2.0845,-2.0979,-2.152,-2.2193,-2.283,-2.3377,-2.3551,-2.3595,-2.3595,-2.3638,-2.3794,-2.4348,-2.4511,-2.4672,-2.5205,-2.5297,-2.5449,-2.5924,-2.6049,-2.6191,-2.659,-2.6691,-2.6691,-2.6691,-2.6691,-2.6691,-2.6691,-2.6691,-2.6691,-2.6691,-2.6691,-2.6691,-2.6691,-2.6691,-2.6691,-2.6691,-2.6691,-2.6691,-2.6691,-2.6691,-2.6691,-2.6691,-2.6691,-2.6691,-2.6691,-2.6691,-2.6691,1.5694,0.0,1.4279,1.6666,2.0268,2.3707,0.0,2.7181,2.8785,2.9761,2.9773,2.9316,2.8371,2.7173,2.5944,2.4605,2.3451,2.2347,2.1377,0.0,0.0,1.0948,0.0,0.0,0.0,0.0,0.0,0.0,0.0,0.0,0.0,0.0,0.2138,0.0732,-0.04,-0.2002,-0.4284,-0.4544,-0.5335,-0.6719,-0.6915,-0.7372,-0.8027,-0.8221,0.0,0.0,0.0,0.0,-1.0624,-1.0624,-1.0807,-1.1233,-1.1834,-1.2687,-1.3666,-1.4273,-1.4864,-1.5468,-1.5806,-1.6631,-1.795,-1.9914,-2.0646,-2.0894,-2.1342,-2.1472,-2.152,-2.1649,-2.2193,-2.274,-2.2875,-2.3231,-2.3595,-2.3595,-2.3921,-2.4348,-2.491,-2.5335,-2.5762,-2.6245,-2.635,-2.628,-2.6033,-2.6297,-2.6436,-2.6191,-2.647,-2.6691,-2.6691,-2.6691,-2.6691,-2.6691,-2.6691,-2.6691,-2.6691,-2.6691,-2.6691,-2.6691,-2.6691,-2.6691,-2.6691,-2.6691,-2.6691,-2.6691,-2.6691,-2.6691,-2.6691,-2.6691,-2.6691,-2.6691,-2.6691,-2.6691,1.9068,1.9133,1.8845,2.0685,2.3062,2.525,2.6281,2.7898,2.9431,3.0215,3.0156,2.9842,2.941,2.8435,2.7317,2.618,2.522,0.0,0.0,0.0,1.4733,0.0,0.0,0.0,0.0,0.0,0.0,0.0,0.0,0.0,0.0,0.0,0.4002,0.3191,0.1934,-0.0067,-0.2736,-0.3209,-0.4077,-0.5467,-0.5467,-0.6121,-0.7437,-0.7827,0.0,0.0,0.0,0.0,-1.0624,-1.0982,-1.1351,-1.1787,-1.2565,-1.3416,-1.4145,-1.4569,-1.5216,-1.5979,-1.6301,-1.7599,-1.927,-2.0421,-2.1175,-2.1752,-2.2067,-2.2377,-2.25,-2.2239,-2.262,-2.3098,-2.3098,-2.3537,-2.3964,-2.3964,-2.4389,-2.4894,-2.5449,-2.5815,-2.6156,-2.6624,-2.6691,-2.6624,-2.6367,-2.6539,-2.6624,-2.6367,-2.6556,-2.6691,-2.6691,-2.6691,-2.6691,-2.6691,-2.6873,-2.6906,-2.6725,-2.7019,-2.7083,-2.6725,-2.6691,-2.6691,-2.6691,-2.6691,-2.6691,-2.6691,-2.6691,-2.6691,-2.6691,-2.6691,-2.6691,-2.6691,-2.6691,-2.6691,2.0948,2.241,2.3248,2.3808,2.535,2.6933,2.7803,2.8639,2.9479,3.042,3.0506,3.0374,3.0261,2.9669,2.8833,2.7719,0.0,0.0,2.3877,1.9598,0.0,0.0,0.0,0.0,0.0,0.0,0.0,0.0,0.0,0.0,0.0,0.0,0.0,0.5522,0.3936,0.1934,-0.0466,-0.167,-0.2876,-0.4015,-0.4015,-0.4875,-0.6527,-0.7242,-0.8156,0.0,0.0,0.0,-1.0618,-1.1351,-1.2081,-1.2887,-1.3726,-1.451,-1.5235,-1.5468,-1.5979,-1.6652,-1.7567,-1.9101,-2.0683,-2.0979,-2.1799,-2.2694,-2.2785,-2.3187,-2.3508,-2.3084,-2.3275,-2.3638,-2.3724,-2.3991,-2.4307,-2.4389,-2.4831,-2.5335,-2.5888,-2.6049,-2.6227,-2.6624,-2.6691,-2.6691,-2.6691,-2.6758,-2.6791,-2.6791,-2.6841,-2.6873,-2.6873,-2.6873,-2.6873,-2.6808,-2.7083,-2.7147,-2.6725,-2.7378,-2.75,-2.6841,-2.6791,-2.6791,-2.6791,-2.6791,-2.6808,-2.6873,-2.6873,-2.6873,-2.6873,-2.6808,-2.6791,-2.6791,-2.6791,-2.6758,2.3061,2.4874,2.6168,2.6065,2.6779,2.7743,2.8706,2.9324,2.9868,3.047,3.054,3.0388,3.0037,2.976,2.9304,0.0,0.0,2.4986,0.0,0.0,0.0,0.0,0.0,0.0,0.0,0.0,0.0,0.0,0.0,0.0,0.0,0.0,0.0,0.6584,0.5456,0.4331,0.3205,0.0801,-0.1602,-0.4015,-0.4015,-0.455,-0.5624,-0.5752,-0.6666,0.0,0.0,-0.9256,-1.0624,-1.0744,-1.1233,-1.2081,-1.2879,-1.3666,-1.4569,-1.5853,-1.6368,-1.6754,-1.8708,-1.9608,-2.0168,-2.1866,-2.2558,-2.2785,-2.329,-2.3508,-2.3681,-2.4017,-2.3864,-2.3724,-2.4158,-2.3991,-2.3837,-2.4266,-2.4831,-2.5335,-2.5888,-2.6297,-2.6624,-2.6691,-2.6691,-2.6691,-2.6691,-2.7004,-2.721,-2.721,-2.75,-2.7725,-2.7725,-2.7725,-2.7607,-2.7224,-2.7255,-2.7147,-2.6725,-2.7115,-2.7317,-2.721,-2.721,-2.721,-2.721,-2.721,-2.7348,-2.7707,-2.7725,-2.7725,-2.7725,-2.7378,-2.721,-2.721,-2.721,-2.7036,2.3866,2.5747,2.7274,2.7642,2.8098,2.8608,2.9175,2.9684,3.0121,3.0522,3.0541,3.0423,3.0162,0.0,2.9491,2.8847,0.0,0.0,0.0,0.0,0.0,0.0,0.0,0.0,0.0,0.0,0.0,0.0,0.0,0.0,0.0,0.0,0.0,0.0,0.851,0.6983,0.4737,0.3904,0.1716,-0.1868,-0.1868,-0.3066,-0.5342,-0.5342,-0.6326,-0.8027,0.0,-0.8742,-0.9913,-1.0401,-1.1017,-1.1896,-1.3174,-1.4127,-1.5041,-1.6991,-1.7938,-1.8454,-1.9825,-2.0743,-2.1445,-2.2406,-2.292,-2.3275,-2.3864,-2.4032,-2.4184,-2.5012,-2.4672,-2.4158,-2.4712,-2.4855,-2.495,-2.5221,-2.5635,-2.6087,-2.6332,-2.6724,-2.7019,-2.7019,-2.721,-2.7348,-2.7348,-2.75,-2.7619,-2.7619,-2.7783,-2.7897,-2.7897,-2.7897,-2.784,-2.7648,-2.7776,-2.7747,-2.7378,-2.7862,-2.8047,-2.7648,-2.7619,-2.7619,-2.7619,-2.7619,-2.7707,-2.7897,-2.7897,-2.7897,-2.7897,-2.7707,-2.7619,-2.7619,-2.7619,-2.7547,2.4649,2.6453,2.7929,2.8839,2.915,2.9308,2.9607,2.9953,3.0289,3.0561,3.0565,3.0472,3.0319,2.9956,0.0,2.9078,0.0,0.0,0.0,0.0,0.0,0.0,0.0,0.0,0.0,0.0,0.0,0.0,0.0,0.0,0.0,0.0,0.0,0.0,1.1301,0.9499,0.6542,0.6711,0.4605,0.0334,0.0067,-0.1531,-0.4389,-0.4794,-0.5851,-0.7367,-0.7632,-0.8156,-0.9069,-1.0053,-1.0989,-1.1935,-1.3597,-1.4974,-1.63,-1.8228,-1.9465,-2.0268,-2.1015,-2.1894,-2.274,-2.2875,-2.3231,-2.3724,-2.4225,-2.4389,-2.4657,-2.5803,-2.5512,-2.498,-2.5281,-2.5672,-2.5999,-2.6106,-2.6454,-2.6839,-2.6954,-2.7224,-2.7439,-2.7439,-2.7678,-2.7897,-2.7897,-2.7982,-2.8037,-2.8037,-2.8093,-2.8147,-2.8147,-2.8147,-2.812,-2.8037,-2.8264,-2.829,-2.802,-2.8533,-2.8651,-2.8174,-2.8065,-2.8037,-2.8037,-2.8037,-2.8047,-2.8147,-2.8147,-2.8147,-2.8147,-2.8047,-2.8037,-2.8037,-2.8037,-2.7982,2.6098,2.7513,2.875,2.9666,2.9777,2.9742,3.0069,3.0209,3.0374,3.0634,3.0636,3.0529,0.0,2.9874,2.9405,2.9072,0.0,0.0,0.0,0.0,0.0,0.0,0.0,0.0,0.0,0.0,0.0,0.0,0.0,0.0,0.0,0.0,0.0,0.0,0.0,1.1768,1.0026,0.8526,0.5596,0.1198,0.04,-0.0533,-0.1664,-0.3338,-0.4604,-0.5522,-0.6384,-0.7307,-0.8215,-0.9857,-1.0968,-1.1874,-1.3571,-1.5914,-1.8478,-1.9325,-2.0455,-2.1649,-2.2346,-2.2603,-2.2785,-2.3363,-2.3551,-2.3724,-2.4225,-2.4389,-2.4681,-2.6079,-2.6404,-2.6285,-2.5999,-2.5878,-2.5938,-2.6371,-2.6783,-2.7209,-2.7718,-2.784,-2.7869,-2.7869,-2.7869,-2.7897,-2.7897,-2.8156,-2.835,-2.835,-2.8682,-2.8929,-2.8929,-2.8929,-2.8791,-2.8394,-2.8394,-2.8394,-2.8368,-2.842,-2.8565,-2.8905,-2.8565,-2.835,-2.835,-2.835,-2.854,-2.8905,-2.8929,-2.8929,-2.8929,-2.854,-2.835,-2.835,-2.835,-2.821,2.6529,2.7895,2.9055,2.9655,2.9992,3.0177,3.0344,3.0447,3.0535,3.0664,3.0653,0.0,0.0,0.0,2.9492,0.0,0.0,0.0,0.0,0.0,0.0,0.0,0.0,0.0,0.0,0.0,0.0,0.0,0.0,0.0,0.0,0.0,0.0,0.0,0.0,1.4042,1.1897,1.1308,0.9412,0.6165,0.3713,0.1467,-0.0533,-0.1201,-0.2601,-0.4541,-0.4872,-0.6121,-0.8021,-0.8071,-0.9578,-1.1974,-1.4082,-1.6402,-1.8689,-1.9428,-2.1005,-2.2863,-2.3128,-2.3676,-2.4277,-2.4536,-2.4576,-2.4712,-2.5221,-2.5533,-2.5884,-2.6754,-2.7203,-2.7339,-2.7203,-2.7155,-2.7151,-2.7339,-2.749,-2.7654,-2.7851,-2.8047,-2.821,-2.821,-2.8412,-2.8601,-2.8601,-2.87,-2.8773,-2.8773,-2.8887,-2.8994,-2.8994,-2.8994,-2.8929,-2.8773,-2.8773,-2.8773,-2.8773,-2.8773,-2.8839,-2.8994,-2.8863,-2.8773,-2.8773,-2.8773,-2.8839,-2.8994,-2.8994,-2.8994,-2.8994,-2.8839,-2.8773,-2.8773,-2.8773,-2.87,2.6935,2.8171,2.9152,2.9777,3.0114,3.0321,3.0488,3.0561,3.0633,3.074,3.0693,3.051,3.0132,0.0,0.0,0.0,0.0,0.0,0.0,0.0,0.0,0.0,0.0,0.0,0.0,0.0,0.0,0.0,0.0,0.0,0.0,0.0,0.0,0.0,0.0,1.6151,1.3965,1.3501,1.23,1.0352,0.7421,0.4366,0.1265,0.0666,-0.0866,-0.3211,-0.4077,-0.546,-0.7167,-0.7678,-0.9768,-1.2793,-1.5369,-1.7497,-1.9267,-2.045,-2.2235,-2.4039,-2.4039,-2.4545,-2.5227,-2.5415,-2.5493,-2.5622,-2.6353,-2.6742,-2.7018,-2.7685,-2.8067,-2.8312,-2.8431,-2.8262,-2.8047,-2.8047,-2.8147,-2.8255,-2.8255,-2.8438,-2.8615,-2.8694,-2.892,-2.9156,-2.9206,-2.916,-2.9134,-2.9134,-2.9044,-2.8994,-2.8994,-2.8994,-2.8994,-2.8994,-2.8994,-2.8994,-2.8994,-2.8994,-2.8994,-2.8994,-2.8994,-2.8994,-2.8994,-2.8994,-2.8994,-2.8994,-2.8994,-2.8994,-2.8994,-2.8994,-2.8994,-2.8994,-2.8994,-2.8994,2.7433,2.8288,2.9063,3.0136,3.0196,3.0113,3.0501,3.0606,3.0662,3.0857,3.0792,3.0648,3.043,3.039,0.0,0.0,0.0,0.0,0.0,0.0,0.0,0.0,0.0,0.0,0.0,0.0,0.0,0.0,0.0,0.0,0.0,0.0,0.0,0.0,0.0,0.0,1.6595,1.4878,1.3661,1.2929,1.1269,0.8228,0.3987,0.2183,0.0398,-0.1406,-0.4061,-0.5256,-0.5585,-0.9122,-1.1974,-1.4483,-1.7433,-1.9281,-2.054,-2.2687,-2.4205,-2.5221,-2.5221,-2.5221,-2.5347,-2.5949,-2.6116,-2.6341,-2.746,-2.7814,-2.7991,-2.8857,-2.9114,-2.9211,-2.9605,-2.9055,-2.8402,-2.8402,-2.8707,-2.9017,-2.9017,-2.9017,-2.9089,-2.9351,-2.9412,-2.9474,-2.9661,-2.9514,-2.9412,-2.9412,-2.9178,-2.9017,-2.9017,-2.9017,-2.9017,-2.9017,-2.9017,-2.9017,-2.8994,-2.8994,-2.8994,-2.8994,-2.8994,-2.8994,-2.8994,-2.8994,-2.8994,-2.8994,-2.8994,-2.8994,-2.8994,-2.8994,-2.8994,-2.8994,-2.8994,-2.8994,2.7564,2.8631,2.9476,2.9718,3.0036,3.0298,3.0439,3.0528,3.0637,0.0,3.0696,3.058,3.0423,0.0,0.0,0.0,0.0,0.0,0.0,0.0,0.0,0.0,0.0,0.0,0.0,0.0,0.0,0.0,0.0,0.0,0.0,0.0,0.0,0.0,0.0,0.0,2.0513,1.8688,1.7356,1.6548,1.4716,1.1669,0.7546,0.7003,0.48,0.1309,0.0522,-0.2601,-0.7347,-1.1414,-1.3184,-1.3604,-1.7048,-1.9169,-2.0513,-2.2498,-2.4438,-2.6095,-2.6095,-2.6555,-2.7134,-2.7465,-2.7581,-2.7673,-2.8203,-2.8544,-2.8778,-2.9016,-2.9288,-2.955,-2.966,-2.9514,-2.9322,-2.9322,-2.9418,-2.9476,-2.9476,-2.9476,-2.9475,-2.9414,-2.9513,-2.9589,-2.9494,-2.957,-2.9607,-2.9607,-2.9533,-2.9476,-2.9476,-2.9476,-2.9436,-2.931,-2.9289,-2.9203,-2.9017,-2.8994,-2.8994,-2.8994,-2.8994,-2.8994,-2.8994,-2.8994,-2.8994,-2.8994,-2.8994,-2.8994,-2.8994,-2.8994,-2.8994,-2.8994,-2.8994,-2.8994,2.752,2.864,2.9494,2.978,2.9998,3.0171,3.0422,0.0,0.0,0.0,3.0746,3.0648,3.0435,0.0,0.0,0.0,0.0,0.0,0.0,0.0,0.0,0.0,0.0,0.0,0.0,0.0,0.0,0.0,0.0,0.0,0.0,0.0,0.0,0.0,0.0,0.0,2.2817,2.1581,2.0489,1.9545,1.8379,1.6181,1.3087,1.0716,0.7225,0.2931,0.1241,-0.3219,-0.9364,-1.2278,-1.4108,-1.5399,-1.8675,-2.0548,-2.1622,-2.3538,-2.5431,-2.7012,-2.7012,-2.7546,-2.833,-2.8685,-2.8797,-2.8863,-2.9287,-2.9547,-2.9706,-2.9706,-2.988,-3.0068,-3.0068,-3.0068,-3.0003,-2.9767,-2.9696,-2.9696,-2.9696,-2.9696,-2.9696,-2.9662,-2.9748,-2.9796,-2.9801,-2.9815,-2.9813,-2.9813,-2.9746,-2.9696,-2.9696,-2.9696,-2.9643,-2.9532,-2.9513,-2.9455,-2.9293,-2.9272,-2.9272,-2.9272,-2.9272,-2.9249,-2.9178,-2.9062,-2.8994,-2.8994,-2.8994,-2.9044,-2.9156,-2.9156,-2.9203,-2.9272,-2.9203,-2.9156,2.7439,2.8433,2.9195,3.006,3.003,2.9951,3.0509,3.0775,3.0898,3.0901,0.0,3.0808,3.0508,0.0,0.0,0.0,0.0,0.0,0.0,0.0,0.0,0.0,0.0,0.0,0.0,0.0,0.0,0.0,0.0,0.0,0.0,0.0,0.0,0.0,0.0,0.0,2.4176,2.3777,2.3134,0.0,2.1951,2.1149,1.9636,1.3873,0.8708,0.4102,-0.0327,-0.5665,-1.1331,-1.2271,-1.5077,-1.8985,-2.1661,-2.2996,-2.361,-2.5556,-2.6945,-2.7855,-2.7896,-2.8291,-2.8858,-2.9468,-2.9669,-2.9776,-3.0343,-3.0539,-3.0548,-3.0548,-3.0557,-3.0584,-3.0584,-3.0584,-3.0441,-2.9897,-2.9775,-2.9784,-2.9784,-2.9784,-2.9832,-2.9999,-3.0047,-3.0128,-3.0356,-3.0202,-3.0047,-3.0047,-2.9877,-2.9765,-2.9765,-2.9765,-2.9765,-2.9731,-2.9731,-2.9731,-2.9696,-2.9696,-2.9696,-2.9696,-2.9696,-2.9626,-2.9434,-2.9178,-2.9021,-2.8994,-2.8994,-2.9112,-2.9372,-2.9372,-2.9455,-2.9625,-2.9435,-2.9372,2.7567,2.8455,2.9041,2.9243,2.9985,3.0685,3.0817,3.0873,3.0898,3.0897,3.0891,3.0875,0.0,0.0,0.0,0.0,0.0,0.0,0.0,0.0,0.0,0.0,0.0,0.0,0.0,0.0,0.0,0.0,0.0,0.0,0.0,0.0,0.0,0.0,0.0,2.7551,2.7717,2.6517,2.59,0.0,2.4423,2.3547,2.3112,1.9237,1.3904,0.7474,0.2492,-0.4162,-1.1692,-1.3865,-1.7652,-2.2288,-2.4419,-2.5298,-2.5632,-2.7491,-2.8192,-2.8237,-2.8549,-2.8589,-2.8591,-2.9242,-2.9452,-2.9515,-2.9801,-2.9997,-3.0136,-3.0136,-3.0286,-3.0448,-3.0448,-3.0448,-3.0403,-3.0287,-3.0341,-3.0414,-3.0414,-3.0414,-3.0369,-3.026,-3.0349,-3.0439,-3.0345,-3.0357,-3.0369,-3.0311,-3.0286,-3.026,-3.026,-3.026,-3.0169,-2.9954,-2.9939,-2.9877,-2.9713,-2.9696,-2.9696,-2.9696,-2.9696,-2.9678,-2.9644,-2.9415,-2.9203,-2.9017,-2.8994,-2.904,-2.9089,-2.9089,-2.9112,-2.916,-2.9112,-2.9089,2.8085,2.9034,2.9666,2.9666,3.0173,3.0698,3.0856,3.0903,3.0895,3.0898,3.0897,0.0,0.0,0.0,0.0,0.0,0.0,0.0,0.0,0.0,0.0,0.0,0.0,0.0,0.0,0.0,0.0,0.0,0.0,0.0,0.0,0.0,0.0,0.0,2.9355,2.9301,2.9526,2.8502,2.7875,2.7651,2.6541,2.5389,2.4089,1.9547,1.5478,1.1538,0.3875,-0.1957,-0.6667,-1.4631,-2.0271,-2.4037,-2.5212,-2.5446,-2.5298,-2.6536,-2.7213,-2.7568,-2.7772,-2.7809,-2.7785,-2.8142,-2.8353,-2.8579,-2.9077,-2.9295,-2.9454,-2.9843,-3.0161,-3.0358,-3.0358,-3.0417,-3.0495,-3.0495,-3.0507,-3.0496,-3.0496,-3.0496,-3.0477,-3.042,-3.0482,-3.0528,-3.0471,-3.0494,-3.0544,-3.0506,-3.0506,-3.0506,-3.0506,-3.0506,-3.0432,-3.0266,-3.0234,-3.0174,-3.0056,-3.0037,-3.0037,-3.0037,-3.0037,-2.9992,-2.9845,-2.9729,-2.957,-2.9336,-2.9355,-2.9397,-2.9476,-2.9476,-2.9476,-2.9476,-2.9377,-2.9272,2.8586,2.9697,3.0402,3.0409,3.0394,0.0,3.075,3.0856,3.0908,3.0892,0.0,0.0,0.0,0.0,0.0,0.0,0.0,0.0,0.0,0.0,0.0,0.0,0.0,0.0,0.0,0.0,0.0,0.0,0.0,0.0,0.0,0.0,3.057,3.0579,3.038,3.0256,3.0294,2.9805,2.9156,2.8348,2.8057,2.6663,2.4193,1.9097,1.6208,1.4764,0.6214,0.1554,-0.0949,-1.3156,-2.0952,-2.5206,-2.5141,-2.4774,-2.4293,-2.4609,-2.5266,-2.6022,-2.609,-2.6135,-2.6206,-2.6436,-2.6709,-2.7114,-2.808,-2.8396,-2.8594,-2.9379,-2.9794,-3.0021,-3.0021,-3.0136,-3.0251,-3.0251,-3.0169,-3.015,-3.0372,-3.0435,-3.0442,-3.0506,-3.0517,-3.0523,-3.0572,-3.0581,-3.0588,-3.0579,-3.0588,-3.0586,-3.0586,-3.0595,-3.0584,-3.0527,-3.051,-3.0487,-3.0448,-3.0417,-3.0417,-3.0417,-3.0417,-3.033,-3.0095,-3.0095,-3.0003,-2.9832,-2.9748,-2.978,-2.9954,-2.9954,-2.9954,-2.9954,-2.978,-2.9607,2.8568,2.9692,3.0399,3.0395,3.0406,3.041,0.0,0.0,3.0895,0.0,0.0,0.0,0.0,0.0,0.0,0.0,0.0,0.0,0.0,0.0,0.0,0.0,0.0,0.0,0.0,0.0,0.0,0.0,0.0,0.0,0.0,3.0428,3.0449,3.0518,3.0204,3.0116,3.029,2.9943,2.9355,2.8559,2.8168,2.6953,2.4994,2.311,1.9443,1.4547,1.3155,0.7779,-0.0439,-0.6124,-1.5731,-2.672,-2.5062,-2.4417,-2.4399,-2.3822,-2.3468,-2.3268,-2.3555,-2.3309,-2.3014,-2.4193,-2.4579,-2.4962,-2.6561,-2.7194,-2.7477,-2.8215,-2.8627,-2.8836,-2.8836,-2.8855,-2.8873,-2.8873,-2.8847,-2.9156,-3.0325,-3.0558,-3.0588,-3.0569,-3.06,-3.0564,-3.0518,-3.0511,-3.0485,-3.0445,-3.0485,-3.0502,-3.0502,-3.0561,-3.0607,-3.0587,-3.0598,-3.0583,-3.0564,-3.0564,-3.0564,-3.0564,-3.0564,-3.0533,-3.0432,-3.0432,-3.0381,-3.0318,-2.9915,-2.9713,-2.9748,-2.9748,-2.9748,-2.9748,-2.9713,-2.9678,2.8585,2.931,2.9734,3.0265,3.0395,3.041,3.0402,3.0509,3.0625,0.0,0.0,0.0,0.0,0.0,0.0,0.0,0.0,0.0,0.0,0.0,0.0,0.0,0.0,0.0,0.0,0.0,0.0,0.0,0.0,0.0,3.0346,3.0191,3.0127,3.0168,2.9848,2.9713,2.979,2.9237,2.8444,2.7422,2.676,2.5192,2.2875,2.2056,2.085,1.8943,1.0189,0.3941,-0.0139,-0.2106,-1.0097,-2.124,-2.2168,-2.1902,-2.0854,-2.0525,-2.0425,-2.0469,-2.0635,-2.0318,-1.9929,-2.0527,-2.1033,-2.1695,-2.334,-2.4061,-2.4557,-2.5741,-2.6255,-2.6481,-2.6481,-2.6538,-2.6727,-2.7112,-2.7201,-2.7446,-2.8381,-2.9195,-2.9842,-3.0099,-3.0171,-3.0189,-3.0179,-3.0171,-3.019,-3.0334,-3.0378,-3.0431,-3.0535,-3.0582,-3.0585,-3.0547,-3.0535,-3.0521,-3.0497,-3.0492,-3.0508,-3.054,-3.0533,-3.0556,-3.0554,-3.0557,-3.0544,-3.0506,-3.024,-3.0099,-3.0099,-3.0099,-3.0003,-2.9877,-2.9877,-2.9813,2.8647,2.8997,2.9172,2.987,3.0026,3.0117,0.0,0.0,0.0,0.0,0.0,0.0,0.0,0.0,0.0,0.0,0.0,0.0,0.0,0.0,0.0,0.0,0.0,0.0,0.0,0.0,0.0,0.0,0.0,0.0,3.0147,2.9871,2.9688,2.9688,2.9238,2.8962,2.8891,2.7947,2.6829,2.5582,2.4821,2.2975,2.0175,1.9729,2.0073,2.0382,0.9616,0.3101,0.0,0.0,-0.4842,-1.268,-1.7475,-1.8374,-1.6977,-1.6728,-1.6876,-1.7196,-1.7505,-1.7354,-1.7155,-1.7685,-1.826,-1.9045,-2.0631,-2.1323,-2.1888,-2.3413,-2.3986,-2.4175,-2.4386,-2.4544,-2.4777,-2.528,-2.5379,-2.5688,-2.6764,-2.7834,-2.8725,-2.9195,-2.9401,-2.9551,-2.9663,-2.9792,-2.9926,-3.0117,-3.0164,-3.0237,-3.0382,-3.041,-3.0399,-3.0358,-3.0358,-3.0354,-3.0375,-3.0378,-3.0413,-3.0527,-3.0525,-3.0533,-3.0567,-3.0568,-3.0574,-3.0569,-3.0472,-3.0422,-3.0417,-3.0417,-3.0299,-3.0089,-3.0089,-3.0018,2.8806,2.8992,2.9018,2.9057,2.9064,2.93,0.0,0.0,0.0,0.0,0.0,0.0,0.0,0.0,0.0,0.0,0.0,0.0,0.0,0.0,0.0,0.0,0.0,0.0,0.0,0.0,0.0,0.0,0.0,0.0,2.9727,2.9364,2.9137,2.9137,2.8329,2.7756,2.7504,2.5933,2.446,2.3073,2.2717,2.086,1.7682,1.7314,1.6282,1.4815,1.7363,1.1457,0.0,0.0,-0.0365,-0.1747,-1.0688,-1.4116,-1.3942,-1.301,-1.2819,-1.3145,-1.4167,-1.4499,-1.4812,-1.6774,-1.7446,-1.7811,-1.9543,-2.0106,-2.0418,-2.1902,-2.2323,-2.2527,-2.3191,-2.339,-2.3417,-2.3417,-2.3459,-2.4085,-2.6474,-2.7067,-2.7255,-2.7795,-2.82,-2.8639,-2.9076,-2.9458,-2.9713,-2.9731,-2.9788,-2.9844,-2.984,-2.9902,-2.9933,-2.9931,-2.9931,-3.0034,-3.0287,-3.0309,-3.0398,-3.0582,-3.0591,-3.0565,-3.0505,-3.0512,-3.0506,-3.0505,-3.0501,-3.0484,-3.0487,-3.0487,-3.0456,-3.0367,-3.0367,-3.0367,2.8656,2.9006,2.9002,2.8997,2.8994,2.9101,2.9419,2.9494,0.0,0.0,0.0,0.0,0.0,0.0,0.0,0.0,0.0,0.0,0.0,0.0,0.0,0.0,0.0,0.0,0.0,0.0,0.0,0.0,0.0,0.0,2.9122,2.8615,2.8319,2.8319,2.7419,2.643,2.5337,2.4757,2.3614,2.1936,2.184,1.9982,1.6718,1.6632,1.4821,1.1858,1.2422,0.9736,0.4711,0.1365,0.0,-0.0432,-0.4931,-0.8305,-1.0697,-1.0383,-1.0334,-1.0609,-1.2068,-1.2565,-1.2795,-1.4096,-1.5049,-1.5848,-1.6443,-1.7128,-1.7943,-1.8976,-1.9242,-1.9408,-2.015,-2.0374,-2.0584,-2.1458,-2.1988,-2.2525,-2.3412,-2.4638,-2.5849,-2.6674,-2.7227,-2.7627,-2.7799,-2.8222,-2.8585,-2.8723,-2.8758,-2.8913,-2.9289,-2.9364,-2.9476,-2.9753,-2.977,-2.9803,-2.9908,-2.9924,-2.9954,-3.008,-3.024,-3.0356,-3.0365,-3.0509,-3.056,-3.0555,-3.056,-3.0563,-3.056,-3.0557,-3.0544,-3.0525,-3.0525,-3.0525,2.8492,2.8881,2.8998,0.0,2.9005,2.9005,2.9005,0.0,0.0,0.0,0.0,0.0,0.0,0.0,0.0,0.0,0.0,0.0,0.0,0.0,0.0,0.0,0.0,0.0,0.0,0.0,0.0,0.0,0.0,0.0,2.8499,2.7984,2.7465,2.7012,2.6217,2.5228,2.3994,2.3541,2.2481,2.0743,2.0044,1.8242,1.5578,1.4705,1.2947,1.0425,0.8907,0.7733,0.6526,0.1915,0.0,-0.0126,-0.1308,-0.4275,-0.7843,-0.8113,-0.8335,-0.8643,-1.0107,-1.0609,-1.0803,-1.2069,-1.3041,-1.3829,-1.405,-1.4716,-1.5477,-1.6239,-1.6455,-1.6613,-1.7313,-1.7532,-1.7912,-1.9362,-1.9826,-2.0065,-2.0552,-2.2288,-2.3993,-2.4858,-2.5409,-2.5796,-2.6,-2.6415,-2.6843,-2.7227,-2.7388,-2.771,-2.8342,-2.8599,-2.8809,-2.9079,-2.9101,-2.9163,-2.9381,-2.94,-2.9495,-2.9737,-2.9923,-3.006,-3.0098,-3.0232,-3.0356,-3.0456,-3.0472,-3.0511,-3.0605,-3.0579,-3.0571,-3.0577,-3.0577,-3.0578,0.0,0.0,0.0,0.0,0.0,0.0,2.8994,0.0,0.0,0.0,0.0,0.0,0.0,0.0,0.0,0.0,0.0,0.0,0.0,0.0,0.0,0.0,0.0,0.0,0.0,0.0,0.0,0.0,0.0,2.7851,2.7823,2.747,2.659,2.5205,2.4657,2.4116,2.3551,2.22,2.0828,1.9433,1.7278,1.5521,1.4145,1.1665,1.0481,1.0362,0.8117,0.6424,0.4998,0.1494,0.0,0.0,0.0,-0.2138,-0.535,-0.6177,-0.6717,-0.7225,-0.8304,-0.8676,-0.9022,-1.0958,-1.1621,-1.182,-1.261,-1.2879,-1.3114,-1.3826,-1.4046,-1.4205,-1.4975,-1.5186,-1.5605,-1.7136,-1.6903,-1.6749,-1.82,-2.0078,-2.1702,-2.2312,-2.2746,-2.3227,-2.3717,-2.413,-2.4574,-2.5264,-2.5748,-2.6298,-2.6968,-2.7531,-2.7851,-2.7897,-2.7897,-2.8148,-2.8704,-2.8773,-2.9037,-2.9624,-2.9678,-2.9678,-2.9696,-2.9696,-2.9839,-3.0182,-3.0194,-3.0309,-3.0571,-3.0529,-3.0499,-3.0505,-3.0501,-3.054,2.7992,0.0,0.0,0.0,0.0,0.0,0.0,0.0,0.0,0.0,0.0,0.0,0.0,0.0,0.0,0.0,0.0,0.0,0.0,0.0,0.0,0.0,0.0,0.0,0.0,0.0,0.0,0.0,2.7054,2.6736,2.6421,2.5988,2.54,2.4672,2.4055,2.3274,2.2225,2.0873,1.9506,1.8109,1.6402,1.5071,1.4145,1.2257,1.0698,0.9503,0.8249,0.6785,0.5093,0.146,0.0,0.0,0.0,-0.0587,-0.1828,-0.464,-0.5762,-0.6081,-0.7614,-0.8128,-0.8323,-0.9529,-1.0302,-1.0733,-1.0378,-1.0691,-1.1298,-1.2104,-1.2348,-1.2712,-1.4078,-1.4811,-1.531,-1.5729,-1.5672,-1.5662,-1.6038,-1.7049,-1.8354,-2.0012,-2.1158,-2.1903,-2.2069,-2.2931,-2.3825,-2.4438,-2.4632,-2.5067,-2.6029,-2.6588,-2.7009,-2.73,-2.7654,-2.7964,-2.8121,-2.8148,-2.8314,-2.8735,-2.8927,-2.918,-2.9474,-2.9607,-2.9746,-2.9842,-2.9842,-2.9861,-2.9953,-3.0371,-3.0567,-3.0579,-3.0574,-3.0576,2.8308,2.8507,2.8725,0.0,0.0,0.0,2.8994,2.8994,0.0,0.0,0.0,0.0,0.0,0.0,0.0,0.0,0.0,0.0,0.0,0.0,0.0,0.0,0.0,0.0,0.0,0.0,0.0,0.0,2.6095,2.5829,2.5538,2.487,2.4343,2.4028,2.3171,2.226,2.126,1.9902,1.8684,1.7522,1.5351,1.4109,1.3606,1.1603,0.9964,0.8628,0.7792,0.6654,0.5243,0.3147,0.134,0.0,0.0,0.0,-0.0335,-0.3213,-0.4764,-0.5572,-0.6519,-0.6833,-0.7024,-0.7852,-0.8484,-0.8856,-0.8751,-0.9267,-1.0027,-1.0537,-1.0982,-1.1542,-1.2813,-1.3202,-1.3416,-1.4146,-1.4019,-1.3901,-1.4205,-1.4634,-1.5598,-1.7809,-1.9101,-1.9812,-1.9812,-2.0686,-2.1616,-2.2241,-2.2746,-2.3453,-2.4302,-2.5072,-2.5642,-2.5876,-2.6621,-2.7172,-2.7309,-2.7542,-2.7794,-2.8183,-2.834,-2.8542,-2.8772,-2.9008,-2.9202,-2.9323,-2.9476,-2.9533,-2.9439,-2.9965,-3.0237,-3.0272,-3.0287,-3.0366,2.8863,2.8929,2.8952,0.0,0.0,0.0,2.8929,2.8905,2.8881,0.0,0.0,0.0,0.0,0.0,0.0,0.0,0.0,0.0,0.0,0.0,0.0,0.0,0.0,0.0,0.0,0.0,2.6007,2.5166,2.5067,2.4973,2.4934,2.3956,2.336,2.3317,2.2197,2.1239,2.0526,1.9147,1.8051,1.7225,1.4368,1.2948,1.2765,1.0395,0.8877,0.8091,0.7111,0.6276,0.5509,0.5446,0.3282,0.0,0.0,0.0,-0.0201,-0.2008,-0.382,-0.5379,-0.5432,-0.5428,-0.5557,-0.6334,-0.6523,-0.6719,-0.7507,-0.8226,-0.8882,-0.9075,-0.9849,-1.0744,-1.1469,-1.117,-1.0989,-1.2397,-1.2205,-1.1834,-1.2581,-1.2826,-1.3459,-1.5504,-1.668,-1.7401,-1.7468,-1.8167,-1.8915,-1.9608,-2.0713,-2.1741,-2.2326,-2.3355,-2.3999,-2.3999,-2.5086,-2.5931,-2.6286,-2.6836,-2.7348,-2.7794,-2.784,-2.7869,-2.7897,-2.8183,-2.846,-2.8699,-2.9045,-2.9159,-2.9013,-2.9495,-2.9708,-2.9712,-2.9841,-3.0022,0.0,0.0,0.0,0.0,0.0,0.0,2.8464,2.8308,2.812,0.0,0.0,0.0,0.0,0.0,0.0,0.0,0.0,0.0,0.0,0.0,0.0,0.0,0.0,0.0,0.0,0.0,2.5211,2.4576,2.4158,2.3694,2.3201,2.2995,2.2606,2.2058,2.1342,2.0594,1.9889,1.8496,1.7125,1.5686,1.387,1.2634,1.1958,1.0148,0.9204,0.8947,0.7372,0.6593,0.64,0.5711,0.3286,0.0,0.0,0.0,-0.0202,-0.2009,-0.3825,-0.5389,-0.5369,-0.5428,-0.5428,-0.5624,-0.5686,-0.5686,-0.5885,-0.6017,-0.6474,-0.7832,-0.939,-1.0624,-1.08,-1.0744,-1.0681,-1.0989,-1.0926,-1.087,-1.1052,-1.1593,-1.2189,-1.2594,-1.4359,-1.5955,-1.6585,-1.7852,-1.8915,-1.9608,-2.0445,-2.1183,-2.1763,-2.2431,-2.2834,-2.2834,-2.3876,-2.4752,-2.5255,-2.5898,-2.6607,-2.7378,-2.7426,-2.756,-2.7897,-2.7964,-2.802,-2.8084,-2.8139,-2.8306,-2.8524,-2.9303,-2.955,-2.9232,-2.9568,-2.9767,0.0,0.0,0.0,2.8682,0.0,0.0,0.0,2.802,2.7897,2.7897,0.0,0.0,0.0,0.0,0.0,0.0,0.0,0.0,0.0,0.0,0.0,0.0,0.0,0.0,0.0,0.0,2.4455,2.3636,2.301,2.2515,2.2193,2.1941,2.1609,2.1245,2.0633,1.9761,1.8667,1.7938,1.6655,1.4758,1.3537,1.2381,1.1128,0.9894,0.8812,0.7962,0.7111,0.6461,0.6013,0.5568,0.382,0.1272,0.0336,0.0,-0.0135,-0.1005,-0.3084,-0.5393,-0.5376,-0.5432,-0.5428,-0.5428,-0.5428,-0.5428,-0.5428,-0.5686,-0.6334,-0.7637,-0.8608,-0.939,-0.9849,-0.9977,-1.0047,-1.0498,-1.0624,-1.0624,-1.0624,-1.0926,-1.1351,-1.171,-1.2777,-1.3972,-1.5138,-1.661,-1.7731,-1.8024,-1.872,-1.9297,-1.9622,-2.0476,-2.111,-2.111,-2.2449,-2.3583,-2.4194,-2.4784,-2.5427,-2.6197,-2.6232,-2.6438,-2.6935,-2.7123,-2.74,-2.7897,-2.7897,-2.788,-2.7844,-2.8488,-2.8686,-2.8506,-2.8709,-2.8846,0.0,0.0,0.0,0.0,0.0,2.8139,0.0,0.0,0.0,2.7648,0.0,0.0,0.0,0.0,0.0,0.0,0.0,0.0,0.0,0.0,0.0,0.0,0.0,0.0,0.0,2.4184,2.3679,2.2785,2.21,2.1663,2.152,2.1077,2.0696,2.0383,1.9888,1.8874,1.7413,1.7413,1.627,1.3965,1.3304,1.2066,1.0242,0.9576,0.842,0.6915,0.6785,0.6334,0.562,0.5495,0.4556,0.3015,0.1209,0.0337,0.0,0.0,-0.2076,-0.4913,-0.5312,-0.5372,-0.5428,-0.5428,-0.5428,-0.5428,-0.5428,-0.6009,-0.685,-0.7567,-0.7897,-0.8156,-0.8877,-0.9075,-0.9204,-0.9913,-1.0104,-1.0104,-1.0104,-1.0104,-1.0281,-1.0947,-1.1322,-1.2066,-1.3666,-1.5129,-1.612,-1.6244,-1.6901,-1.739,-1.7578,-1.8732,-1.9517,-1.9517,-2.1124,-2.2491,-2.3244,-2.3755,-2.4387,-2.5166,-2.5221,-2.5373,-2.5815,-2.611,-2.6687,-2.7613,-2.7572,-2.747,-2.7303,-2.753,-2.7707,-2.7783,-2.7869,-2.7994,0.0,0.0,0.0,0.0,2.8183,0.0,0.0,0.0,2.6858,2.6858,0.0,0.0,0.0,0.0,0.0,0.0,0.0,0.0,0.0,0.0,0.0,0.0,0.0,0.0,0.0,0.0,2.283,2.2694,2.21,2.1472,2.093,2.0845,2.0219,1.8967,1.8874,1.8112,1.6652,1.6595,1.5419,1.313,1.307,1.1764,0.9454,0.9332,0.8748,0.7827,0.7046,0.6654,0.6461,0.5697,0.5246,0.4916,0.3084,0.141,0.0,0.0,-0.1272,-0.3215,-0.4834,-0.5372,-0.5428,-0.5428,-0.5428,-0.5428,-0.5428,-0.6009,-0.6719,-0.685,-0.7372,-0.8027,-0.8091,-0.8156,-0.8156,-0.8285,-0.8285,-0.8285,-0.8285,-0.8285,-0.835,-0.8409,-0.9603,-1.1176,-1.2879,-1.3793,-1.4585,-1.5303,-1.6038,-1.6781,-1.7512,-1.8328,-1.8809,-1.8809,-2.0092,-2.1445,-2.2507,-2.3214,-2.4024,-2.5128,-2.5221,-2.5221,-2.5297,-2.5319,-2.5737,-2.6638,-2.6352,-2.6556,-2.7303,-2.7004,-2.7019,-2.7396,-2.7736,-2.7908,0.0,0.0,0.0,0.0,0.0,0.0,2.7811,0.0,2.6674,0.0,0.0,0.0,0.0,0.0,0.0,0.0,0.0,0.0,0.0,0.0,0.0,0.0,0.0,0.0,0.0,0.0,0.0,0.0,0.0,2.0307,1.9594,1.9606,1.9125,1.8112,1.8058,1.7578,1.6482,1.6042,1.4866,1.3009,1.2512,1.1267,0.9274,0.8748,0.8091,0.7177,0.6334,0.5943,0.5947,0.5561,0.5379,0.5189,0.3418,0.161,0.0,0.0,-0.114,-0.2947,-0.4773,-0.5376,-0.5428,-0.5428,-0.5428,-0.5428,-0.5428,-0.5686,-0.5943,-0.5943,-0.6207,-0.6597,-0.7111,-0.7242,-0.7372,-0.7897,-0.8027,-0.8027,-0.8027,-0.8027,-0.8027,-0.8027,-0.8597,-0.9418,-1.0634,-1.2296,-1.3751,-1.4523,-1.4934,-1.54,-1.6234,-1.6968,-1.7578,-1.8015,-1.8967,-2.013,-2.1383,-2.1777,-2.2275,-2.3142,-2.3842,-2.4205,-2.4205,-2.4839,-2.5379,-2.5753,-2.5619,-2.573,-2.6092,-2.6229,-2.6385,-2.6573,-2.7002,-2.721,2.9985,0.0,0.0,0.0,0.0,0.0,0.0,0.0,0.0,0.0,0.0,0.0,0.0,0.0,0.0,2.339,0.0,0.0,0.0,0.0,0.0,0.0,0.0,0.0,0.0,0.0,0.0,0.0,1.9813,0.0,1.8447,1.8394,1.807,1.7302,1.7302,1.6922,1.6208,1.54,1.4337,1.3009,1.2205,1.0899,0.9274,0.842,0.7502,0.6654,0.5749,0.5428,0.5428,0.5428,0.5372,0.5252,0.3418,0.1609,0.0,0.0,-0.1479,-0.3625,-0.4919,-0.5379,-0.5428,-0.5428,-0.5428,-0.5428,-0.5428,-0.5428,-0.5428,-0.5428,-0.5428,-0.5557,-0.6203,-0.633,-0.6527,-0.7116,-0.7312,-0.7312,-0.7312,-0.7312,-0.7312,-0.7312,-0.7702,-0.8221,-0.8812,-1.0634,-1.232,-1.3416,-1.3726,-1.4154,-1.4991,-1.6073,-1.7034,-1.7523,-1.8447,-1.9503,-2.0696,-2.0795,-2.1077,-2.1649,-2.2503,-2.3098,-2.3245,-2.4096,-2.4641,-2.4973,-2.4973,-2.5051,-2.5221,-2.5577,-2.5762,-2.5799,-2.6297,-2.6588,0.0,0.0,0.0,2.9775,0.0,0.0,0.0,0.0,2.7034,0.0,0.0,0.0,0.0,0.0,2.3332,2.2815,2.1594,0.0,0.0,0.0,0.0,0.0,0.0,0.0,0.0,0.0,0.0,1.8689,1.8066,1.7688,1.7633,1.7633,1.7302,1.6549,1.6539,1.6208,1.5468,1.4628,1.3846,1.3009,1.2205,1.0899,0.9274,0.842,0.7502,0.6654,0.5749,0.5428,0.5428,0.5428,0.5369,0.5243,0.3416,0.1606,0.0,0.0,-0.2223,-0.5343,-0.5399,-0.5379,-0.5428,-0.5428,-0.5428,-0.5428,-0.5428,-0.5428,-0.5428,-0.5428,-0.5428,-0.5428,-0.5428,-0.5428,-0.5428,-0.5495,-0.5495,-0.5495,-0.5495,-0.5495,-0.5495,-0.5495,-0.6859,-0.8027,-0.8027,-0.8807,-0.9964,-1.164,-1.2512,-1.3312,-1.4145,-1.6213,-1.7578,-1.7578,-1.8886,-2.0055,-2.0746,-2.0795,-2.1077,-2.1649,-2.1744,-2.2039,-2.2694,-2.274,-2.3289,-2.4389,-2.443,-2.4657,-2.5221,-2.5221,-2.5221,-2.5259,-2.5762,-2.6339,0.0,0.0,2.9631,3.0029,0.0,0.0,0.0,0.0,0.0,0.0,0.0,0.0,0.0,0.0,2.25,2.0948,2.0343,1.9622,0.0,0.0,0.0,0.0,0.0,0.0,0.0,0.0,0.0,1.8584,1.7958,1.7413,0.0,1.6866,1.6528,1.5806,1.5748,1.54,1.4628,1.3795,1.3,1.2205,1.1413,1.0737,1.011,0.9268,0.8355,0.7502,0.6658,0.5947,0.5428,0.5428,0.5369,0.5312,0.4706,0.2681,0.0,0.0,-0.1548,-0.3768,-0.4986,-0.5386,-0.5372,-0.5372,-0.5372,-0.5372,-0.5428,-0.5428,-0.5428,-0.5428,-0.5428,-0.5428,-0.5428,-0.5428,-0.5428,-0.5428,-0.5428,-0.5428,-0.5428,-0.5428,-0.5428,-0.5428,-0.6334,-0.7307,-0.7897,-0.8748,-1.0021,-1.2258,-1.2826,-1.3657,-1.5497,-1.6415,-1.7257,-1.8232,-1.8768,-1.9359,-2.0093,-2.0156,-2.0245,-2.0421,-2.0868,-2.1224,-2.1417,-2.2267,-2.2875,-2.3245,-2.3651,-2.3964,-2.4158,-2.4937,-2.5336,-2.5352,-2.5957,-2.6316,2.8972,2.9333,0.0,2.9941,2.8839,0.0,2.8323,0.0,0.0,0.0,0.0,0.0,0.0,0.0,2.1172,1.8815,1.823,1.763,0.0,1.5573,0.0,0.0,0.0,0.0,0.0,0.0,1.669,1.7423,1.7036,1.6631,0.0,0.0,1.5864,1.541,1.541,1.4991,1.4213,1.3425,1.2573,1.1764,1.0989,1.0428,1.011,0.9268,0.8355,0.7502,0.6593,0.5947,0.5428,0.5432,0.5372,0.5379,0.5396,0.3969,0.1744,0.0471,-0.074,-0.2079,-0.4579,-0.4982,-0.4428,-0.4428,-0.4903,-0.5382,-0.5376,-0.5372,-0.5372,-0.5369,-0.5369,-0.5432,-0.5428,-0.5428,-0.5428,-0.5428,-0.5428,-0.5428,-0.5428,-0.5428,-0.5428,-0.5428,-0.6338,-0.7372,-0.7897,-0.9,-1.0408,-1.2266,-1.2826,-1.3657,-1.5439,-1.6415,-1.7246,-1.8232,-1.8768,-1.9254,-1.9747,-1.9798,-1.9798,-1.9798,-2.0207,-2.0547,-2.0795,-2.1785,-2.2452,-2.2694,-2.3275,-2.3729,-2.3969,-2.4741,-2.5251,-2.5496,-2.6168,-2.6426]}]]